[[{"header":{"parameterUnit":"m.s-1","parameterCategory":1,"la1":30.6,"la2":29.2853,"lo1":-89.7004,"lo2":-87.6739,"dy":0.0162,"dx":0.0183,"nx":112,"ny":82,"refTime":"2026-02-26T12:00:00:Z","depth":0,"parameterNumber":2,"parameterNumberName":"U-component_of_WINDS"},"data":[0.0,0.0,0.0,0.0,0.0,0.0,0.0,0.0,0.0,0.0,0.0,0.0,0.0,0.0,0.0,0.0,0.0,0.0,0.0,0.0,0.0,0.0,0.0,0.0,0.0,0.0,0.0,0.0,0.0,0.0,0.0,0.0,0.0,0.0,0.0,0.0,0.0,0.0,0.0,0.0,0.0,0.0,0.0,0.0,0.0,0.0,0.0,0.0,0.0,0.0,0.0,0.0,0.0,0.0,0.0,0.0,0.0,0.0,0.0,0.0,0.0,0.0,0.0,0.0,0.0,0.0,0.0,0.0,0.0,0.0,0.0,0.0,0.0,0.0,0.0,0.0,0.0,0.0,0.0,0.0,0.0,0.0,0.0,0.0,0.0,0.0,0.0,0.0,0.0,0.0,-0.6706,-0.6614,-0.6901,-0.7094,-0.7094,-0.667,-0.6231,-0.5827,0.0,0.0,0.0,0.0,0.0,0.0,0.0,0.0,0.0,0.0,0.0,0.0,0.0,0.0,0.0,0.0,0.0,0.0,0.0,0.0,0.0,0.0,0.0,0.0,0.0,0.0,0.0,0.0,0.0,0.0,0.0,0.0,0.0,0.0,0.0,0.0,0.0,0.0,0.0,0.0,0.0,0.0,0.0,0.0,0.0,0.0,0.0,0.0,0.0,0.0,0.0,0.0,0.0,0.0,0.0,0.0,0.0,0.0,0.0,0.0,0.0,0.0,0.0,0.0,0.0,0.0,0.0,0.0,0.0,0.0,0.0,0.0,0.0,0.0,0.0,0.0,0.0,0.0,0.0,0.0,0.0,0.0,0.0,0.0,0.0,0.0,0.0,0.0,0.0,0.0,0.0,0.0,0.0,0.0,0.0,0.0,0.0,0.0,0.0,0.0,0.0,0.0,0.0,0.0,-0.6737,-0.7437,-0.726,-0.7094,-0.7094,-0.6424,-0.5934,-0.5809,0.0,0.0,0.0,0.0,0.0,0.0,0.0,0.0,0.0,0.0,0.0,0.0,0.0,0.0,0.0,0.0,0.0,0.0,0.0,0.0,0.0,0.0,0.0,0.0,0.0,0.0,0.0,0.0,0.0,0.0,0.0,0.0,0.0,0.0,0.0,0.0,0.0,0.0,0.0,0.0,0.0,0.0,0.0,0.0,0.0,0.0,0.0,0.0,0.0,0.0,0.0,0.0,0.0,0.0,0.0,0.0,0.0,0.0,0.0,0.0,0.0,0.0,0.0,0.0,0.0,0.0,0.0,0.0,0.0,0.0,0.0,0.0,0.0,0.0,0.0,0.0,0.0,0.0,0.0,0.0,0.0,0.0,0.0,0.0,0.0,0.0,0.0,0.0,0.0,0.0,0.0,0.0,0.0,0.0,0.0,0.0,0.0,0.0,0.0,0.0,0.0,0.0,0.0,-0.6306,-0.6735,-0.7608,-0.7142,-0.6856,-0.7089,-0.6161,-0.5641,-0.5793,-0.5596,0.0,0.0,0.0,0.0,0.0,0.0,0.0,0.0,0.0,0.0,0.0,0.0,0.0,0.0,0.0,0.0,0.0,0.0,0.0,0.0,0.0,0.0,0.0,0.0,0.0,0.0,0.0,0.0,0.0,0.0,0.0,0.0,0.0,0.0,0.0,0.0,0.0,0.0,0.0,0.0,0.0,0.0,0.0,0.0,0.0,0.0,0.0,0.0,0.0,0.0,0.0,0.0,0.0,0.0,0.0,0.0,0.0,0.0,0.0,0.0,0.0,0.0,0.0,0.0,0.0,0.0,0.0,0.0,0.0,0.0,0.0,0.0,0.0,0.0,0.0,0.0,0.0,0.0,0.0,0.0,0.0,0.0,0.0,0.0,0.0,0.0,0.0,0.0,0.0,0.0,0.0,0.0,0.0,0.0,0.0,0.0,0.0,0.0,0.0,0.0,0.0,0.0,-0.6633,-0.6712,-0.7477,-0.6844,-0.6488,-0.6796,-0.5815,-0.5297,-0.555,-0.522,0.0,0.0,0.0,0.0,0.0,0.0,0.0,0.0,0.0,0.0,0.0,0.0,0.0,0.0,0.0,0.0,0.0,0.0,0.0,0.0,0.0,0.0,0.0,0.0,0.0,0.0,0.0,0.0,0.0,0.0,0.0,0.0,0.0,0.0,0.0,0.0,0.0,0.0,0.0,0.0,0.0,0.0,0.0,0.0,0.0,0.0,0.0,0.0,0.0,0.0,0.0,0.0,0.0,0.0,0.0,0.0,0.0,0.0,0.0,0.0,0.0,0.0,0.0,0.0,0.0,0.0,0.0,0.0,0.0,0.0,0.0,0.0,0.0,0.0,0.0,0.0,0.0,0.0,0.0,0.0,0.0,0.0,0.0,0.0,0.0,0.0,0.0,0.0,0.0,0.0,0.0,0.0,0.0,0.0,0.0,0.0,0.0,0.0,0.0,0.0,0.0,0.0,-0.6481,-0.6665,-0.7094,-0.6428,-0.596,-0.5975,-0.5286,-0.4843,-0.4868,-0.4614,0.0,0.0,0.0,0.0,0.0,0.0,0.0,0.0,0.0,0.0,0.0,0.0,0.0,0.0,0.0,0.0,0.0,0.0,0.0,0.0,0.0,0.0,0.0,0.0,0.0,0.0,0.0,0.0,0.0,0.0,0.0,0.0,0.0,0.0,0.0,0.0,0.0,0.0,0.0,0.0,0.0,0.0,0.0,0.0,0.0,0.0,0.0,0.0,0.0,0.0,0.0,0.0,0.0,0.0,0.0,0.0,0.0,0.0,0.0,0.0,0.0,0.0,0.0,0.0,0.0,0.0,0.0,0.0,0.0,0.0,0.0,0.0,0.0,0.0,0.0,0.0,0.0,0.0,0.0,0.0,0.0,0.0,0.0,0.0,0.0,0.0,0.0,0.0,0.0,0.0,0.0,0.0,0.0,0.0,0.0,0.0,0.0,0.0,0.0,0.0,0.0,0.0,-0.6668,-0.7026,-0.7428,-0.6978,-0.6654,-0.6654,-0.5929,-0.5471,-0.5427,0.0,0.0,0.0,0.0,0.0,0.0,0.0,0.0,0.0,0.0,0.0,0.0,0.0,0.0,0.0,0.0,0.0,0.0,0.0,0.0,0.0,0.0,0.0,0.0,0.0,0.0,0.0,0.0,0.0,0.0,0.0,0.0,0.0,0.0,0.0,0.0,0.0,0.0,0.0,0.0,0.0,0.0,0.0,0.0,0.0,0.0,0.0,0.0,0.0,0.0,0.0,0.0,0.0,0.0,0.0,0.0,0.0,0.0,0.0,0.0,0.0,0.0,0.0,0.0,0.0,0.0,0.0,0.0,0.0,0.0,0.0,0.0,0.0,0.0,0.0,0.0,0.0,0.0,0.0,0.0,0.0,0.0,0.0,0.0,0.0,0.0,0.0,0.0,0.0,0.0,0.0,0.0,0.0,0.0,0.0,0.0,0.0,0.0,0.0,0.0,0.0,0.0,-0.6355,-0.6809,-0.7163,-0.7305,-0.6865,-0.6513,-0.6379,-0.5709,-0.5315,-0.5352,0.0,0.0,0.0,0.0,0.0,0.0,0.0,0.0,0.0,0.0,0.0,0.0,0.0,0.0,0.0,0.0,0.0,0.0,0.0,0.0,0.0,0.0,0.0,0.0,0.0,0.0,0.0,0.0,0.0,0.0,0.0,0.0,0.0,0.0,0.0,0.0,0.0,0.0,0.0,0.0,0.0,0.0,0.0,0.0,0.0,0.0,0.0,0.0,0.0,0.0,0.0,0.0,0.0,0.0,0.0,0.0,0.0,0.0,0.0,0.0,0.0,0.0,0.0,0.0,0.0,0.0,0.0,0.0,0.0,0.0,0.0,0.0,0.0,0.0,0.0,0.0,0.0,0.0,0.0,0.0,0.0,0.0,0.0,0.0,0.0,0.0,0.0,0.0,0.0,0.0,0.0,0.0,0.0,0.0,0.0,0.0,0.0,0.0,0.0,0.0,0.0,0.0,-0.6384,-0.6803,-0.6941,-0.6538,-0.5846,-0.5254,-0.4849,-0.432,-0.4122,0.0,0.0,0.0,0.0,0.0,0.0,0.0,0.0,0.0,0.0,0.0,0.0,0.0,0.0,0.0,0.0,0.0,0.0,0.0,0.0,0.0,0.0,0.0,0.0,0.0,0.0,0.0,0.0,0.0,0.0,0.0,0.0,0.0,0.0,0.0,0.0,0.0,0.0,0.0,0.0,0.0,0.0,0.0,0.0,0.0,0.0,0.0,0.0,0.0,0.0,0.0,0.0,0.0,0.0,0.0,0.0,0.0,0.0,0.0,0.0,0.0,0.0,0.0,0.0,0.0,0.0,0.0,0.0,0.0,0.0,0.0,0.0,0.0,0.0,0.0,0.0,0.0,0.0,0.0,0.0,0.0,0.0,0.0,0.0,0.0,0.0,0.0,0.0,0.0,0.0,0.0,0.0,0.0,0.0,0.0,0.0,0.0,0.0,0.0,0.0,0.0,0.0,0.0,-0.5978,-0.6348,-0.6563,-0.6448,-0.6231,-0.5945,-0.5541,-0.5191,-0.4908,-0.4699,0.0,0.0,0.0,0.0,0.0,0.0,0.0,0.0,0.0,0.0,0.0,0.0,0.0,0.0,0.0,0.0,0.0,0.0,0.0,0.0,0.0,0.0,0.0,0.0,0.0,0.0,0.0,0.0,0.0,0.0,0.0,0.0,0.0,0.0,0.0,0.0,0.0,0.0,0.0,0.0,0.0,0.0,0.0,0.0,0.0,0.0,0.0,0.0,0.0,0.0,0.0,0.0,0.0,0.0,0.0,0.0,0.0,0.0,0.0,0.0,0.0,0.0,0.0,0.0,0.0,0.0,0.0,0.0,0.0,0.0,0.0,0.0,0.0,0.0,0.0,0.0,0.0,0.0,0.0,0.0,0.0,0.0,0.0,0.0,0.0,0.0,0.0,0.0,0.0,0.0,0.0,0.0,0.0,0.0,0.0,0.0,0.0,0.0,0.0,0.0,0.0,0.0,-0.5803,-0.632,-0.6599,-0.6426,-0.6309,-0.6075,-0.5679,-0.5225,-0.4864,-0.4617,0.0,0.0,0.0,0.0,0.0,0.0,0.0,0.0,0.0,0.0,0.0,0.0,0.0,0.0,0.0,0.0,0.0,0.0,0.0,0.0,0.0,0.0,0.0,0.0,0.0,0.0,0.0,0.0,0.0,0.0,0.0,0.0,0.0,0.0,0.0,0.0,0.0,0.0,0.0,0.0,0.0,0.0,0.0,0.0,0.0,0.0,0.0,0.0,0.0,0.0,0.0,0.0,0.0,0.0,0.0,0.0,0.0,0.0,0.0,0.0,0.0,0.0,0.0,0.0,0.0,0.0,0.0,0.0,0.0,0.0,0.0,0.0,0.0,0.0,0.0,0.0,0.0,0.0,0.0,0.0,0.0,0.0,0.0,0.0,0.0,0.0,0.0,0.0,0.0,0.0,0.0,0.0,0.0,0.0,0.0,0.0,0.0,0.0,0.0,0.0,0.0,0.0,-0.5793,-0.6497,-0.6826,-0.6445,-0.6178,-0.5874,-0.5469,-0.4786,-0.434,-0.4284,0.0,0.0,0.0,0.0,0.0,0.0,0.0,0.0,0.0,0.0,0.0,0.0,0.0,0.0,0.0,0.0,0.0,0.0,0.0,0.0,0.0,0.0,0.0,0.0,0.0,0.0,0.0,0.0,0.0,0.0,0.0,0.0,0.0,0.0,0.0,0.0,0.0,0.0,0.0,0.0,0.0,0.0,0.0,0.0,0.0,0.0,0.0,0.0,0.0,0.0,0.0,0.0,0.0,0.0,0.0,0.0,0.0,0.0,0.0,0.0,-0.6904,-0.6533,0.0,0.0,0.0,0.0,0.0,0.0,0.0,0.0,0.0,0.0,0.0,0.0,0.0,0.0,0.0,0.0,0.0,0.0,0.0,0.0,0.0,0.0,0.0,0.0,0.0,0.0,0.0,0.0,0.0,0.0,0.0,0.0,0.0,0.0,0.0,0.0,0.0,0.0,0.0,0.0,-0.5754,-0.5958,-0.6164,-0.6375,-0.6346,-0.6148,-0.5745,-0.5183,-0.4641,-0.4175,-0.4294,0.0,0.0,0.0,0.0,0.0,0.0,0.0,0.0,0.0,0.0,0.0,0.0,0.0,0.0,0.0,0.0,0.0,0.0,0.0,0.0,0.0,0.0,0.0,0.0,0.0,0.0,0.0,0.0,0.0,0.0,0.0,0.0,0.0,0.0,0.0,0.0,0.0,0.0,0.0,0.0,0.0,0.0,0.0,0.0,0.0,0.0,0.0,0.0,0.0,0.0,0.0,0.0,0.0,0.0,0.0,0.0,0.0,0.0,0.0,-0.8105,-0.7607,0.0,0.0,0.0,0.0,0.0,0.0,0.0,0.0,0.0,0.0,0.0,0.0,0.0,0.0,0.0,0.0,0.0,0.0,0.0,0.0,0.0,0.0,0.0,0.0,0.0,0.0,0.0,0.0,0.0,0.0,0.0,0.0,0.0,0.0,0.0,0.0,0.0,0.0,0.0,0.0,-0.5733,-0.5968,-0.6262,-0.6689,-0.6738,-0.665,-0.6448,-0.5787,-0.5139,-0.4574,-0.4383,0.0,0.0,0.0,0.0,0.0,0.0,0.0,0.0,0.0,0.0,0.0,0.0,0.0,0.0,0.0,0.0,0.0,0.0,0.0,0.0,0.0,0.0,0.0,0.0,0.0,0.0,0.0,0.0,0.0,0.0,0.0,0.0,0.0,0.0,0.0,0.0,0.0,0.0,0.0,0.0,0.0,0.0,0.0,0.0,0.0,0.0,0.0,0.0,0.0,0.0,0.0,0.0,0.0,-0.9375,-0.9833,-1.0528,-1.0528,-1.0753,-1.1055,-0.9598,-0.906,-0.917,-0.8363,0.0,0.0,0.0,0.0,0.0,0.0,0.0,0.0,0.0,0.0,0.0,0.0,0.0,0.0,0.0,0.0,0.0,0.0,0.0,0.0,0.0,0.0,-0.6729,-0.6638,-0.6628,-0.6433,-0.5711,0.0,0.0,0.0,0.0,0.0,0.0,0.0,0.0,0.0,0.0,0.0,-0.5841,-0.627,-0.6699,-0.7158,-0.7207,-0.7178,-0.7109,-0.6321,-0.5599,-0.5055,-0.4608,-0.3922,0.0,0.0,0.0,0.0,0.0,0.0,0.0,0.0,0.0,0.0,0.0,0.0,0.0,0.0,0.0,0.0,0.0,0.0,0.0,0.0,0.0,0.0,0.0,0.0,0.0,0.0,0.0,0.0,0.0,0.0,0.0,0.0,-0.6155,-0.708,0.0,0.0,0.0,0.0,0.0,0.0,0.0,0.0,0.0,0.0,0.0,0.0,0.0,-0.9111,-0.9872,-1.0283,-1.0361,-1.0146,-1.089,-1.1322,-1.1439,-1.1439,-1.1653,-1.1999,-1.1428,0.0,-1.0097,-0.9562,0.0,0.0,0.0,0.0,0.0,0.0,0.0,0.0,0.0,0.0,0.0,0.0,0.0,0.0,0.0,0.0,0.0,0.0,0.0,0.0,0.0,0.0,-0.8042,-0.7632,-0.753,-0.7491,-0.7384,-0.6813,-0.6201,-0.5782,-0.5764,-0.5783,0.0,0.0,0.0,0.0,0.0,0.0,-0.627,-0.6729,-0.7164,-0.7569,-0.7618,-0.7486,-0.7129,-0.6407,-0.5711,-0.5124,-0.4806,-0.4426,-0.3922,-0.387,0.0,0.0,0.0,0.0,0.0,0.0,0.0,0.0,0.0,0.0,0.0,0.0,0.0,0.0,0.0,0.0,0.0,0.0,0.0,0.0,0.0,0.0,0.0,0.0,0.0,0.0,0.0,0.0,0.0,-0.6689,-0.714,-0.787,-0.7699,-0.7645,0.0,0.0,0.0,0.0,0.0,0.0,0.0,0.0,0.0,-0.9697,-0.9951,-1.0371,-1.1017,-1.1436,-1.1784,-1.21,-1.2494,-1.2783,-1.3008,-1.3008,-1.309,-1.3266,-1.3086,-1.2656,-1.2002,-1.081,-1.0001,-0.9474,0.0,0.0,0.0,0.0,-0.9192,-0.8909,-0.9872,-0.9745,-0.9121,-0.886,0.0,0.0,0.0,0.0,0.0,0.0,0.0,-0.8682,-0.848,-0.8594,-0.8682,-0.847,-0.8431,-0.8431,-0.8431,-0.8129,-0.7598,-0.6699,-0.6719,-0.6719,-0.6221,-0.5965,0.0,0.0,0.0,-0.6289,-0.6738,-0.6973,-0.7266,-0.7656,-0.7695,-0.7627,-0.7457,-0.6944,-0.6338,-0.5644,-0.5113,-0.4564,-0.4009,-0.393,-0.3775,0.0,0.0,0.0,0.0,0.0,0.0,0.0,0.0,0.0,0.0,0.0,0.0,0.0,0.0,0.0,0.0,0.0,0.0,0.0,0.0,0.0,0.0,0.0,0.0,0.0,0.0,0.0,0.0,-0.7862,-0.8253,-0.8892,-0.8915,-0.8796,0.0,0.0,0.0,0.0,0.0,0.0,-0.9453,-0.9893,-1.0381,-1.0948,-1.1357,-1.1787,-1.224,-1.2525,-1.3012,-1.3636,-1.3636,-1.386,-1.427,-1.4163,-1.4172,-1.427,-1.4153,-1.3929,-1.3529,-1.2148,-1.1377,-1.1045,-1.0753,-1.0273,-0.9884,-1.0762,-1.0674,-1.0283,-1.1379,-1.1261,-1.0577,-1.0234,-0.9825,-0.9375,-0.8714,0.0,0.0,0.0,0.0,-0.9658,-0.9658,-0.9658,-0.9658,-0.9658,-0.957,-0.9492,-0.9492,-0.9414,-0.8955,-0.7676,-0.7671,-0.7632,-0.6862,-0.6638,0.0,-0.657,-0.6667,-0.6823,-0.707,-0.7295,-0.75,-0.7676,-0.7695,-0.7695,-0.7695,-0.733,-0.6861,-0.6313,-0.5487,-0.4802,-0.4304,-0.3969,-0.3653,-0.3333,0.0,0.0,0.0,0.0,0.0,0.0,0.0,0.0,0.0,0.0,0.0,0.0,0.0,0.0,0.0,0.0,0.0,0.0,0.0,0.0,0.0,0.0,0.0,0.0,0.0,0.0,0.0,0.0,0.0,-1.0353,-1.0323,0.0,0.0,0.0,0.0,-0.9524,-0.9922,-1.0371,-1.0791,-1.1252,-1.1878,-1.2749,-1.3154,-1.3549,-1.3977,-1.3997,-1.4036,-1.4075,-1.4075,-1.4299,-1.4736,-1.4299,-1.4328,-1.4727,-1.428,-1.4094,-1.4036,-1.3549,-1.267,-1.1567,-1.1547,-1.1007,-1.0371,-1.1232,-1.1547,-1.1555,-1.2008,-1.1885,-1.1538,-1.1518,-1.1172,-1.0811,-1.0741,-1.0762,0.0,0.0,-1.1134,-1.1479,-1.1479,-1.1479,-1.1479,-1.1479,-1.1134,-1.079,-1.079,-1.0498,-0.9862,-0.8581,-0.8346,-0.8219,-0.7729,0.0,-0.707,-0.707,-0.7398,-0.7501,-0.7148,-0.7827,-0.8164,-0.7744,-0.7695,-0.7695,-0.7695,-0.733,-0.7076,-0.7057,-0.5994,-0.536,-0.5331,-0.4168,-0.3749,-0.4217,-0.3486,0.0,0.0,0.0,0.0,0.0,0.0,0.0,0.0,0.0,0.0,0.0,0.0,0.0,0.0,0.0,0.0,0.0,0.0,0.0,0.0,0.0,0.0,0.0,0.0,0.0,0.0,0.0,0.0,-1.1722,-1.1756,0.0,-1.1282,-1.0905,-1.0859,-1.1248,-1.1182,-1.1555,-1.2529,-1.2734,-1.3086,-1.3636,-1.3802,-1.4094,-1.4551,-1.4551,-1.4687,-1.4933,-1.4933,-1.5011,-1.5186,-1.5001,-1.5039,-1.5176,-1.5019,-1.4933,-1.4923,-1.4795,-1.4104,-1.3223,-1.3223,-1.2861,-1.2432,-1.3008,-1.3047,-1.2881,-1.3276,-1.2998,-1.2338,-1.1792,-1.1498,-1.1398,-1.167,-1.1736,-1.1736,-1.1736,-1.1853,-1.1924,-1.1675,-1.1606,-1.1606,-1.1606,-1.1467,-1.1349,-1.1349,-1.1232,-1.0909,-1.0156,-0.9561,-0.9036,-0.8607,-0.8412,-0.832,-0.832,-0.8441,-0.848,-0.835,-0.8594,-0.8721,-0.8548,-0.8311,-0.8145,-0.8145,-0.7739,-0.7242,-0.6689,-0.6273,-0.5793,-0.5228,-0.4603,-0.4285,-0.4301,-0.368,-0.3375,0.0,0.0,0.0,0.0,0.0,0.0,0.0,0.0,0.0,0.0,0.0,0.0,0.0,0.0,0.0,0.0,0.0,0.0,0.0,0.0,0.0,0.0,0.0,0.0,0.0,-1.1644,-1.2649,-1.3336,-1.3411,-1.3228,-1.2807,-1.2285,-1.2155,-1.2603,-1.2759,-1.3168,-1.4037,-1.4228,-1.4439,-1.4703,-1.4767,-1.4922,-1.5244,-1.5361,-1.5508,-1.5635,-1.5635,-1.5557,-1.541,-1.541,-1.541,-1.541,-1.541,-1.541,-1.541,-1.541,-1.505,-1.4523,-1.4387,-1.4065,-1.3724,-1.4007,-1.3929,-1.3734,-1.4007,-1.3743,-1.3203,-1.2617,-1.2432,-1.248,-1.2759,-1.2847,-1.2817,-1.2681,-1.2632,-1.2559,-1.2142,-1.2034,-1.2034,-1.2034,-1.1917,-1.1809,-1.1809,-1.1692,-1.1518,-1.1213,-1.0527,-0.9864,-0.9299,-0.9201,-0.9201,-0.9201,-0.9201,-0.9201,-0.9201,-0.9201,-0.9143,-0.9023,-0.875,-0.8551,-0.8404,-0.8242,-0.7768,-0.6891,-0.6633,-0.6203,-0.5565,-0.5068,-0.4756,-0.4668,-0.4141,-0.382,-0.3697,0.0,0.0,0.0,0.0,0.0,0.0,0.0,0.0,0.0,0.0,0.0,0.0,0.0,0.0,0.0,0.0,0.0,0.0,0.0,0.0,0.0,0.0,0.0,-1.1988,-1.3655,-1.4907,-1.5196,-1.5233,-1.4758,-1.3502,-1.3856,-1.4027,-1.3651,-1.4651,-1.5278,-1.5273,-1.5716,-1.5942,-1.5926,-1.6036,-1.6114,-1.6114,-1.6504,-1.6494,-1.6095,-1.6085,-1.585,-1.541,-1.541,-1.541,-1.541,-1.541,-1.541,-1.541,-1.541,-1.542,-1.5391,-1.4971,-1.4551,-1.4143,-1.4143,-1.4143,-1.4143,-1.4133,-1.4124,-1.4124,-1.4114,-1.4104,-1.4104,-1.4104,-1.4104,-1.4026,-1.3617,-1.3525,-1.3428,-1.3008,-1.2925,-1.2925,-1.2905,-1.2559,-1.2223,-1.2223,-1.1927,-1.1636,-1.1626,-1.1261,-1.0654,-0.9796,-0.9631,-0.9631,-0.9622,-0.9612,0.0,-0.9612,-0.9612,-0.9484,-0.9111,-0.9053,-0.8877,-0.8483,-0.8789,-0.8626,-0.7754,-0.7064,-0.6602,-0.6414,-0.5514,-0.5139,-0.5397,-0.489,-0.4454,-0.4119,0.0,0.0,0.0,0.0,0.0,0.0,0.0,0.0,0.0,0.0,0.0,0.0,0.0,0.0,0.0,0.0,0.0,0.0,0.0,0.0,0.0,-1.3547,-1.4283,-1.4058,-1.4443,-1.5028,-1.5829,-1.593,-1.5794,-1.5446,-1.5617,-1.5844,-1.6025,-1.6696,-1.6961,-1.6672,-1.7135,-1.7119,-1.6517,-1.6509,-1.6553,-1.6553,-1.6348,-1.6212,-1.6085,-1.5772,-1.5527,-1.541,-1.541,-1.541,-1.541,-1.541,-1.541,-1.541,-1.541,-1.5596,-1.587,-1.541,-1.5166,-1.503,-1.503,-1.503,-1.4991,-1.4707,-1.4609,-1.4551,-1.4211,-1.4104,-1.4104,-1.4104,-1.4104,-1.4085,-1.3968,-1.3938,-1.3841,-1.3447,-1.334,-1.3262,-1.2983,-1.2793,-1.2705,-1.2705,-1.2631,-1.2445,-1.2109,-1.1931,-1.157,-1.0693,-1.0537,-1.0429,-1.0146,-1.0107,-1.0107,-1.0107,-1.0107,-1.0176,-1.0371,-1.0107,-0.9901,-0.9784,-0.9297,-0.8626,-0.7754,-0.6932,-0.6459,-0.6404,-0.5871,-0.5519,-0.5397,-0.5263,-0.497,0.0,0.0,0.0,0.0,0.0,0.0,0.0,0.0,0.0,0.0,0.0,0.0,0.0,0.0,0.0,0.0,0.0,0.0,0.0,0.0,0.0,0.0,-1.5246,-1.623,-1.6799,-1.6668,-1.6716,-1.7293,-1.751,-1.7609,-1.7609,-1.763,-1.7707,-1.7934,-1.8524,-1.8794,-1.8569,-1.8848,-1.8613,-1.775,-1.7571,-1.7244,-1.6707,-1.665,-1.6457,-1.6085,-1.5811,-1.5586,-1.541,-1.541,-1.541,-1.541,-1.541,-1.541,-1.541,-1.541,-1.5664,-1.6046,0.0,0.0,0.0,0.0,-1.541,-1.5381,-1.5127,-1.5049,-1.501,-1.4718,-1.464,-1.464,-1.464,-1.464,-1.4601,-1.4426,-1.4377,-1.428,-1.3851,-1.3743,-1.3685,-1.3467,-1.3271,-1.3145,-1.3145,-1.3032,-1.2827,-1.2549,-1.25,0.0,-1.156,-1.1299,-1.1103,-1.088,-1.0684,-1.0547,-1.0547,-1.041,-1.0391,-1.0615,-1.043,-1.0224,-1.0029,-0.9727,0.0,0.0,0.0,-0.707,-0.6709,-0.6477,0.0,0.0,0.0,0.0,0.0,0.0,0.0,0.0,-0.3438,-0.339,0.0,0.0,0.0,0.0,0.0,0.0,0.0,0.0,0.0,0.0,0.0,0.0,0.0,0.0,0.0,0.0,-1.6513,-1.7591,-1.9698,-1.9597,-1.9258,-1.917,-1.9475,-1.9702,-1.9702,-1.9605,-1.9549,-1.9549,-2.021,-2.0577,-2.0478,-2.0538,0.0,0.0,0.0,-1.8196,-1.704,-1.7338,-1.7111,-1.6357,-1.6307,-1.6039,-1.5661,-1.5546,-1.5526,-1.5526,-1.5439,-1.541,-1.541,-1.541,-1.5644,-1.5987,-1.5674,-1.5762,-1.6056,-1.5684,-1.5566,-1.5566,-1.5566,0.0,0.0,-1.5488,-1.5449,-1.541,-1.541,-1.541,-1.5332,-1.4961,-1.4882,-1.4756,-1.4299,-1.4182,-1.4172,-1.4114,-1.3821,-1.3564,-1.3516,-1.3213,-1.2964,-1.2915,-1.2905,-1.2778,-1.235,-1.1934,-1.1655,-1.1606,-1.1252,-1.0977,-1.0977,-1.0615,-1.0391,-1.044,-1.04,0.0,-0.9786,-1.0088,-0.9794,-0.861,-0.8493,-0.8101,-0.7285,-0.7246,-0.7388,-0.7695,-0.6993,-0.6681,-0.6742,-0.5993,-0.569,-0.5814,-0.4652,-0.4242,0.0,0.0,0.0,0.0,0.0,0.0,0.0,0.0,0.0,0.0,0.0,0.0,0.0,0.0,0.0,-1.803,-1.8819,-1.9635,-2.0978,-2.1079,-2.0812,-2.0205,-2.0205,-2.0251,-2.0251,-2.0746,-2.1075,-2.1075,-2.1597,-2.1628,-2.0914,-2.1342,-2.1229,-2.0331,-1.9778,-1.9381,-1.9107,-1.8444,-1.805,-1.7883,-1.749,0.0,-1.7152,-1.6567,-1.6293,-1.6265,-1.5671,-1.541,-1.541,-1.541,-1.5459,-1.5596,-1.62,-1.6309,-1.6124,-1.6377,-1.6443,-1.6443,-1.6443,-1.624,-1.5968,-1.5968,-1.5693,-1.541,-1.541,-1.541,0.0,-1.5312,-1.5293,-1.5195,-1.4766,-1.4658,-1.457,-1.4192,-1.4046,-1.389,-1.3584,-1.3447,-1.3281,-1.2949,-1.2905,-1.2876,-1.2773,-1.2393,-1.1973,-1.1655,-1.1506,-1.1457,-1.1457,-1.1076,-1.0928,-1.1322,-1.1017,-1.0752,-1.0654,-1.043,-1.0029,-0.9406,-0.9055,-0.8652,-0.817,-0.814,-0.8008,-0.7705,-0.7539,-0.7325,-0.7023,-0.6969,-0.7065,-0.7255,-0.5578,-0.4838,0.0,0.0,0.0,0.0,0.0,0.0,0.0,0.0,0.0,0.0,0.0,-1.4079,-1.5475,0.0,-1.8116,-1.9233,-2.0112,-2.0941,-2.1782,-2.1895,-2.1652,-2.1027,-2.1194,-2.1354,-2.1354,-2.1944,-2.2309,-2.2309,-2.2543,-2.2504,-2.2061,-2.2073,-2.1698,-2.0846,-2.0247,-1.9647,-1.9011,-1.8532,-1.8192,-1.7947,-1.7729,-1.7605,-1.7578,-1.723,-1.7062,-1.7034,-1.6669,-1.6489,-1.6482,-1.6367,-1.6152,-1.6012,-1.651,-1.6455,-1.6153,-1.6562,-1.6697,-1.6697,-1.6697,-1.656,-1.6396,-1.6396,-1.625,-1.6044,-1.6044,-1.5918,-1.5732,-1.5732,-1.5576,-1.5361,-1.5156,-1.5098,-1.5049,-1.4796,-1.4582,-1.4404,-1.4189,-1.3975,-1.3665,-1.3271,-1.3193,-1.315,-1.2935,-1.2695,-1.2402,-1.1963,-1.1895,-1.1839,-1.1636,-1.1389,-1.134,-1.1577,-1.1172,-1.0908,-1.0908,-1.0322,-0.9845,-0.9612,-0.9221,-0.8906,-0.8701,-0.8691,-0.8594,-0.8353,-0.8153,-0.8058,-0.8057,-0.7907,-0.8031,-0.8323,-0.7215,-0.6595,0.0,0.0,0.0,0.0,0.0,0.0,0.0,-1.2128,-1.2835,-1.4947,-1.5814,-1.6497,-1.7513,-1.8945,-2.0037,-2.025,-2.1054,-2.1845,-2.2397,-2.2472,-2.2309,-2.1857,-2.2196,-2.2472,-2.2472,-2.2844,-2.3108,-2.3108,-2.3108,-2.3108,-2.3108,-2.2581,-2.1964,-2.1278,-2.0732,-1.9968,-1.8931,-1.892,-1.8714,-1.8368,-1.8368,-1.8368,-1.8357,-1.8202,-1.8136,-1.8136,-1.7879,-1.7723,-1.7584,-1.7198,-1.6827,-1.6519,-1.6708,-1.6593,-1.6366,-1.6723,-1.6824,-1.6833,-1.6921,-1.6892,-1.6824,-1.6824,-1.6775,-1.6697,-1.6697,-1.6484,-1.6222,-1.6222,-1.5937,-1.5615,-1.5557,-1.5537,-1.5518,-1.543,-1.5156,-1.4911,-1.4833,-1.4502,-1.4114,-1.3685,-1.3633,-1.3496,-1.3101,-1.3023,-1.2852,-1.2398,-1.233,-1.2227,-1.1888,-1.176,-1.1712,-1.1712,-1.132,-1.1035,-1.1035,-1.0303,-0.9864,-0.9864,-0.9474,-0.9258,-0.9258,-0.917,-0.9121,-0.9121,-0.8809,-0.8792,-0.9104,-0.8885,-0.8932,-0.9248,-0.8922,-0.8468,-1.4934,-1.3534,-1.2605,-1.3418,-1.291,-1.2977,0.0,-1.555,-1.5009,-1.6769,-1.7539,-1.8103,-1.8707,-1.9786,-2.0918,-2.187,-2.2133,-2.241,-2.2932,-2.3007,-2.2995,-2.2932,-2.297,-2.3007,-2.3007,-2.307,-2.3108,-2.3108,-2.3108,-2.3108,-2.3108,-2.2581,-2.2251,-2.2164,-2.1628,-2.1275,-2.1129,-2.1129,-2.1132,-2.107,-2.107,-2.107,-2.103,-2.0398,-2.0101,-2.002,-1.8897,-1.8115,-1.755,-1.6846,-1.6563,-1.6545,-1.698,-1.7116,-1.7089,-1.7258,-1.7314,-1.7363,-1.7734,-1.7627,-1.7314,-1.7314,-1.7051,-1.6697,-1.6697,-1.6668,-1.6629,-1.6629,-1.659,-1.6463,-1.6124,-1.6016,-1.5919,-1.5508,-1.5381,-1.5244,-1.4891,-1.4746,-1.459,-1.4124,-1.4036,-1.3899,-1.3506,-1.3437,-1.3291,-1.2871,-1.2812,-1.2817,-1.2758,-1.2393,-1.2135,-1.2135,-1.178,-1.1506,-1.1506,-1.1045,-1.0741,-1.0741,-1.0371,-1.0156,-1.0156,-0.9747,-0.9524,-0.9524,-0.9488,-0.9488,-0.9524,-0.9914,-1.0098,-1.0156,-1.0098,-0.9468,-1.6568,-1.558,-1.4839,-1.4997,-1.4902,-1.5146,-1.6559,-1.6848,-1.7187,-1.8518,-1.9233,-1.9837,-2.0363,-2.1091,-2.1782,-2.2234,-2.2556,-2.2844,-2.307,-2.3108,-2.2982,-2.2656,-2.2907,-2.3108,-2.3108,-2.3108,-2.3108,-2.3108,-2.3108,-2.3108,-2.3108,-2.2581,-2.2309,-2.2309,-2.1782,-2.1493,-2.1493,-2.1493,-2.1493,-2.1493,-2.1493,-2.1493,-2.1493,-2.1188,-2.1047,-2.1006,-2.0491,-2.0109,-1.9809,-1.9067,-1.8754,-1.8748,-1.8508,-1.8243,-1.7933,-1.7709,-1.7905,-1.827,-1.8323,-1.8212,-1.811,-1.8397,-1.8038,-1.7447,-1.7447,-1.7305,-1.7109,-1.7109,-1.6892,-1.6658,-1.6504,-1.6455,-1.6338,-1.5928,-1.5821,-1.5703,-1.5244,-1.5146,-1.5019,-1.459,-1.4512,-1.4375,-1.3919,-1.3851,-1.3704,-1.3311,-1.3062,-1.2905,-1.2905,-1.2725,-1.2486,-1.2233,-1.2038,-1.1846,-1.1626,-1.1418,-1.131,-1.131,-1.1144,-1.1067,-1.1067,-1.087,-1.0752,-1.0752,-1.0508,-1.0498,-1.0752,-1.0684,-1.0802,-1.1067,-1.1067,-1.0769,-1.725,-1.6722,-1.6308,-1.6371,-1.6685,-1.7077,-1.7551,-1.8292,-1.9108,-1.9886,-2.0515,-2.0993,-2.1245,-2.1832,-2.2309,-2.2309,-2.2744,-2.3108,-2.3108,-2.297,-2.2732,-2.2359,-2.2506,-2.2706,-2.2857,-2.3007,-2.3108,-2.3108,-2.3108,-2.3108,-2.3108,-2.2581,-2.2309,-2.2309,-2.192,-2.1719,-2.1719,-2.187,-2.1945,-2.1945,-2.1945,-2.1945,-2.1945,-2.1945,-2.1857,-2.1719,-2.1719,-2.1631,-2.1425,-2.0693,-2.0394,-2.0337,-1.9814,-1.9378,-1.8988,-1.8632,-1.8542,-1.8577,-1.8354,-1.8315,-1.8414,-1.8808,-1.8529,-1.8008,-1.8008,-1.7803,-1.7559,-1.7559,-1.7324,-1.7028,-1.6911,-1.6882,-1.6807,-1.6357,-1.6281,-1.6153,-1.5684,-1.5586,-1.5469,-1.5039,-1.4961,-1.4824,-1.4358,-1.428,-1.4143,-1.374,-1.3418,-1.3145,-1.2935,-1.2905,-1.2764,-1.2418,-1.2389,-1.2275,-1.1976,-1.1839,-1.177,-1.177,-1.1653,-1.1606,-1.1606,-1.1606,-1.1606,-1.1606,-1.1271,-1.1271,-1.1606,-1.1261,-1.1271,-1.1606,-1.1606,-1.1606,-1.6525,-1.6132,-1.6107,-1.7727,-1.8141,-1.8568,-2.0201,-2.0591,-2.0629,-2.0666,-2.1106,-2.1333,-2.0817,-2.1581,-2.2309,-2.2309,-2.2744,-2.3108,-2.3108,-2.2644,-2.2334,-2.2309,-2.1857,-2.1744,-2.2255,-2.2794,-2.3108,-2.3108,-2.3108,-2.3108,-2.3108,-2.2581,-2.2309,-2.2309,-2.2297,-2.2284,-2.2284,-2.2782,-2.3058,-2.3058,-2.3058,-2.3058,-2.3058,-2.3058,-2.2757,-2.2284,-2.2284,-2.1983,-2.1425,-2.0693,-2.0394,-2.0394,-2.0366,-2.0354,-2.0342,-2.0337,-1.926,-1.7802,-1.7541,-1.768,-1.8032,-1.8042,-1.8008,-1.8008,-1.8008,-1.7998,-1.7988,-1.7988,-1.7978,-1.7881,-1.7471,-1.7363,-1.7256,-1.6785,-1.6677,-1.656,-1.6173,-1.6075,-1.5948,-1.5478,-1.5391,-1.5254,-1.4834,-1.4766,-1.4619,-1.4153,-1.4075,-1.3773,-1.3013,-1.2905,-1.2895,-1.2886,-1.2886,-1.2876,-1.2866,-1.2451,-1.2184,-1.2184,-1.1819,-1.1606,-1.1606,-1.1606,-1.1606,-1.1606,-1.1596,-1.1596,-1.1606,-1.1596,-1.1596,-1.1606,-1.1606,-1.1606,-1.7539,-1.7754,-1.8216,-1.9535,-1.9862,-2.0101,-2.1031,-2.1232,-2.1232,-2.1232,-2.1355,-2.143,-2.1242,-2.1546,-2.1882,-2.2246,-2.2443,-2.2681,-2.3058,-2.2945,-2.2556,-2.1845,-2.2246,-2.2343,-2.182,-2.2259,-2.2706,-2.3083,-2.3108,-2.3108,-2.3108,-2.2932,-2.2832,-2.2832,-2.2832,-2.2832,-2.2832,-2.3007,-2.3108,-2.3108,-2.3108,-2.3108,-2.3108,-2.3108,-2.3007,-2.2832,-2.2832,-2.2732,-2.2543,-2.2295,-2.2177,-2.2177,-2.2177,-2.1955,-2.1617,-2.1097,-2.051,-1.992,-1.9918,-1.9952,-2.0048,-2.0447,-1.9824,-1.8844,-1.8844,-1.8462,-1.8008,-1.8008,-1.8008,-1.7978,-1.7832,-1.7803,-1.7686,-1.7266,-1.7168,-1.7041,-1.6602,-1.6514,-1.6377,-1.5958,-1.587,-1.5703,-1.5273,-1.5205,-1.5059,-1.4629,-1.4289,-1.3899,-1.3369,-1.3301,-1.3193,-1.2935,-1.2905,-1.2905,-1.2905,-1.2768,-1.2656,-1.2656,-1.2543,-1.2465,-1.2465,-1.2465,-1.2465,-1.2465,-1.2158,-1.2148,-1.2455,-1.2148,-1.2158,-1.2465,-1.2465,-1.2465,-1.8518,-1.9032,-1.9623,-2.0928,-2.1282,-2.1393,-2.1945,-2.192,-2.1669,-2.1307,-2.1029,-2.0778,-2.0388,-2.0476,-2.0853,-2.1606,-2.1895,-2.2284,-2.2995,-2.2932,-2.2543,-2.187,-2.2234,-2.2347,-2.1832,-2.2108,-2.2506,-2.3058,-2.3108,-2.3108,-2.3108,-2.3108,-2.3108,-2.3108,-2.3108,-2.3108,-2.3108,-2.3108,-2.3108,-2.3108,-2.3108,-2.3108,-2.3108,-2.3108,-2.3108,-2.3108,-2.3108,-2.3108,-2.3108,-2.3108,-2.3108,-2.3108,-2.3108,-2.2895,-2.251,-2.204,-2.1819,-2.1662,-2.0959,-2.058,-2.0466,-2.0828,-2.0009,-1.8854,-1.8854,-1.8428,-1.8008,-1.8008,-1.8008,-1.8008,-1.8008,-1.8008,-1.7939,-1.7676,-1.7607,-1.749,-1.7061,-1.6963,-1.6836,-1.6387,-1.6299,-1.6162,-1.5723,-1.5508,-1.5322,-1.5049,-1.4775,-1.4358,-1.3782,-1.3704,-1.3633,-1.3359,-1.3193,-1.3105,-1.3105,-1.2993,-1.2905,-1.2905,-1.2905,-1.2905,-1.2905,-1.2905,-1.2905,-1.2905,-1.2607,-1.2607,-1.2905,-1.2598,-1.2607,-1.2905,-1.2905,-1.2905,-1.9459,-1.9911,-2.0326,-2.1945,-2.2347,-2.2456,-2.2945,-2.2606,-2.192,-2.083,-2.0151,-1.9397,-1.8355,-1.8607,-1.9359,-2.0515,-2.1157,-2.187,-2.2945,-2.2656,-2.2347,-2.2347,-2.192,-2.182,-2.2347,-2.2422,-2.2619,-2.3108,-2.312,-2.3108,-2.3108,-2.3108,-2.3108,-2.3108,-2.3108,-2.3108,-2.3108,-2.3108,-2.3108,-2.3108,-2.3108,-2.3108,-2.3108,-2.3108,-2.3108,-2.3108,-2.3108,-2.3108,-2.3108,-2.3108,-2.3108,-2.3108,-2.3108,-2.3108,-2.3108,-2.3108,-2.3108,-2.2809,-2.0753,-1.9808,-1.9497,-1.9497,-1.8911,-1.8202,-1.8144,-1.811,-1.8076,-1.8008,-1.8008,-1.8008,-1.8008,-1.8008,-1.8008,-1.8008,-1.8008,-1.79,-1.75,-1.7422,-1.7285,-1.6824,-1.6716,-1.657,-1.6202,-1.5732,-1.5449,-1.5449,-1.543,-1.5079,-1.425,-1.4143,-1.4133,-1.4104,-1.3753,-1.3545,-1.3545,-1.3174,-1.2964,-1.2964,-1.2964,-1.2964,-1.2935,-1.2935,-1.2925,-1.2905,-1.2905,-1.2905,-1.2905,-1.2905,-1.2905,-1.2905,-1.2905,-1.2905,-2.0715,-2.1355,-2.187,-2.2681,-2.2895,-2.2832,-2.2556,-2.1782,-2.0805,-1.9673,-1.8995,-1.8405,-1.7714,-1.838,-1.9359,-2.0515,-2.1157,-2.187,-2.2945,-2.2982,-2.2895,-2.2895,-2.3188,-2.3414,-2.3552,-2.3941,-2.4036,-2.3803,-2.3346,-2.3108,-2.3108,-2.3108,-2.3108,-2.3108,-2.3108,-2.3108,-2.3108,-2.3108,-2.3108,-2.3108,-2.3108,-2.3108,-2.3108,-2.3108,-2.3108,-2.3108,-2.3108,-2.3108,-2.3108,-2.3108,-2.3108,-2.3108,-2.3108,-2.3108,-2.3108,-2.3108,-2.3108,-2.3022,-2.2469,-2.2219,-2.2144,-2.2144,-2.1573,-2.0782,-2.0139,-1.9497,-1.8811,-1.8168,-1.8008,-1.8008,-1.8008,-1.8008,-1.8008,-1.8008,-1.8008,-1.7978,-1.7871,-1.7852,-1.7725,-1.7295,-1.6921,-1.6668,-1.6551,-1.6191,-1.5928,-1.5928,-1.5615,-1.5225,-1.4687,-1.4619,-1.4492,-1.4143,-1.4007,-1.3948,-1.3948,-1.3851,-1.3792,-1.3792,-1.3792,-1.3646,-1.3359,-1.335,-1.3203,-1.2915,-1.2905,-1.2905,-1.2905,-1.2905,-1.2905,-1.2905,-1.2905,-1.2905,-2.1606,-2.2246,-2.2719,-2.3032,-2.292,-2.2606,-2.2071,-2.1091,-1.9974,-1.8894,-1.8229,-1.7601,-1.6785,-1.7551,-1.8581,-1.9472,-2.0478,-2.1506,-2.2594,-2.317,-2.3484,-2.3484,-2.4017,-2.4356,-2.4356,-2.4418,-2.433,-2.4017,-2.3703,-2.3371,-2.312,-2.3108,-2.3108,-2.3108,-2.3108,-2.3108,-2.3108,-2.3108,-2.3108,-2.3108,-2.3108,-2.3108,-2.3108,-2.3108,-2.3108,-2.3108,-2.3108,-2.3108,-2.3108,-2.3108,-2.3108,-2.3108,-2.3108,-2.3108,-2.3108,-2.3108,-2.3108,-2.3108,-2.3108,-2.3108,-2.3035,-2.2702,-2.2002,-2.1239,-2.0751,-2.0268,-1.9759,-1.9266,-1.8888,-1.8563,-1.8563,-1.8303,-1.8008,-1.8008,-1.8008,-1.8008,-1.8008,-1.8008,-1.7939,-1.7705,-1.7314,-1.7021,-1.7021,-1.665,-1.6357,-1.6357,-1.5977,-1.5645,-1.541,-1.5176,-1.4961,-1.4689,-1.4504,-1.4424,-1.4424,-1.4221,-1.4104,-1.4104,-1.4104,-1.3997,-1.3763,-1.3753,-1.3646,-1.3437,-1.3437,-1.334,-1.3154,-1.3154,-1.3066,-1.2905,-1.2905,-1.2905,-2.2272,-2.2744,-2.3108,-2.3108,-2.2694,-2.2146,-2.1518,-2.0514,-1.9359,-1.8129,-1.7488,-1.6832,-1.5701,-1.648,-1.7501,-1.8191,-1.9661,-2.1106,-2.2259,-2.3339,-2.4029,-2.4104,-2.4594,-2.4888,-2.4888,-2.4494,-2.4155,-2.4004,-2.4004,-2.3753,-2.3133,-2.3108,-2.3108,-2.3108,-2.3108,-2.3108,-2.3108,-2.3108,-2.3108,-2.3108,-2.3108,-2.3108,-2.3108,-2.3108,-2.3108,-2.3108,-2.3108,-2.3108,-2.3108,-2.3108,-2.3108,-2.3108,-2.3108,-2.3108,-2.3108,-2.3108,-2.3108,-2.3108,-2.3108,-2.3108,-2.2975,-2.2292,-2.1553,-2.091,-2.0814,-2.0782,-2.0751,-2.0623,-2.0042,-1.9464,-1.9332,-1.8754,-1.8134,-1.8042,-1.8008,-1.8008,-1.8008,-1.8008,-1.8008,-1.8008,-1.7715,-1.7471,-1.7471,-1.7109,-1.6785,-1.6785,-1.6436,-1.6183,-1.6183,-1.5713,-1.541,-1.541,-1.5088,-1.4873,-1.4873,-1.4521,-1.428,-1.428,-1.428,-1.425,-1.4202,-1.4192,-1.4163,-1.4104,-1.4104,-1.3929,-1.3594,-1.3594,-1.3408,-1.3071,-1.3071,-1.3071,-2.2807,-2.3032,-2.3108,-2.3108,-2.2694,-2.2046,-2.1069,-1.9962,-1.8556,-1.6547,-1.6057,-1.5663,-1.4576,-1.5638,-1.714,-1.8619,-1.9886,-2.1232,-2.2744,-2.3577,-2.4167,-2.4619,-2.5146,-2.546,-2.546,-2.5372,-2.4946,-2.4067,-2.4004,-2.3753,-2.3133,-2.3108,-2.3108,-2.3108,-2.3108,-2.3108,-2.3108,-2.3108,-2.3108,-2.3108,-2.3108,-2.3108,-2.3108,-2.3108,-2.3108,-2.3108,-2.3108,-2.3108,-2.3108,-2.3108,-2.3108,-2.3108,-2.3108,-2.3108,-2.3108,-2.3108,-2.3108,-2.3108,-2.3108,-2.3108,-2.3078,-2.2944,-2.2793,-2.2537,-2.1877,-2.1659,-2.1522,-2.0814,-2.0494,-2.0204,-1.9497,-1.9177,-1.8877,-1.8168,-1.8008,-1.8008,-1.8008,-1.8008,-1.8008,-1.8008,-1.7949,-1.79,-1.79,-1.7549,-1.7275,-1.7275,-1.6894,-1.659,-1.659,-1.5918,-1.541,-1.541,-1.5352,-1.5303,-1.5303,-1.5234,-1.5157,-1.5157,-1.5157,-1.5039,-1.4687,-1.4678,-1.4502,-1.4114,-1.4104,-1.4075,-1.3997,-1.3997,-1.3958,-1.389,-1.389,-1.389,-2.2957,-2.3108,-2.3108,-2.3108,-2.2284,-2.1242,-2.0413,-1.892,-1.7315,-1.5982,-1.5487,-1.5123,-1.4614,-1.5593,-1.6763,-1.7566,-1.8894,-2.0288,-2.1656,-2.2836,-2.3835,-2.4687,-2.5548,-2.5925,-2.5624,-2.536,-2.4858,-2.4054,-2.3715,-2.3396,-2.312,-2.3108,-2.3108,-2.3108,-2.3108,-2.3108,-2.3108,-2.3108,-2.3108,-2.3108,-2.3108,-2.3108,-2.3108,-2.3108,-2.3108,-2.3108,-2.3108,-2.3108,-2.3108,-2.3108,-2.3108,-2.3108,-2.3108,-2.3108,-2.3108,-2.3108,-2.3108,-2.3108,-2.3108,-2.3108,-2.3108,-2.3108,-2.3108,-2.3035,-2.2628,-2.2506,-2.2445,-2.2021,-2.1259,-2.0494,-2.0074,-1.9299,-1.8529,-1.811,-1.8008,-1.8008,-1.8008,-1.8008,-1.8008,-1.8008,-1.8008,-1.8008,-1.8008,-1.7842,-1.7705,-1.7705,-1.7344,-1.707,-1.707,-1.6504,-1.6016,-1.5781,-1.5752,-1.5664,-1.543,-1.541,-1.541,-1.541,-1.541,-1.5322,-1.5117,-1.5107,-1.5019,-1.4777,-1.4767,-1.466,-1.4473,-1.4473,-1.4328,-1.4104,-1.4104,-1.4104,-2.2957,-2.3108,-2.3083,-2.2957,-2.1807,-2.0515,-1.9798,-1.8016,-1.6333,-1.5655,-1.5097,-1.4739,-1.4739,-1.5512,-1.6283,-1.6635,-1.7892,-1.9321,-2.0679,-2.2071,-2.3396,-2.4637,-2.5686,-2.6084,-2.5485,-2.5059,-2.4512,-2.3866,-2.3358,-2.3108,-2.3108,-2.3108,-2.3108,-2.3108,-2.3108,-2.3108,-2.3108,-2.3108,-2.3108,-2.3108,-2.3108,-2.3108,-2.3108,-2.3108,-2.3108,-2.3108,-2.3108,-2.3108,-2.3108,-2.3108,-2.3108,-2.3108,-2.3108,-2.3108,-2.3108,-2.3108,-2.3108,-2.3108,-2.3108,-2.3108,-2.3108,-2.3108,-2.3108,-2.3108,-2.3108,-2.3108,-2.3108,-2.3108,-2.2144,-2.1069,-2.0687,-1.9726,-1.8754,-1.8371,-1.8144,-1.8008,-1.8008,-1.8008,-1.8008,-1.8008,-1.8008,-1.8008,-1.8008,-1.8008,-1.8008,-1.8008,-1.7734,-1.7519,-1.7519,-1.7217,-1.6804,-1.6427,-1.629,-1.6064,-1.5723,-1.5605,-1.5557,-1.5557,-1.5469,-1.541,-1.541,-1.541,-1.541,-1.541,-1.541,-1.5244,-1.4922,-1.4922,-1.4746,-1.4377,-1.4377,-1.4377,-2.2957,-2.3108,-2.2982,-2.251,-2.1518,-2.0415,-1.9309,-1.7741,-1.6199,-1.5185,-1.4551,-1.4179,-1.4179,-1.4651,-1.555,-1.7071,-1.7852,-1.9007,-2.1117,-2.197,-2.297,-2.46,-2.5322,-2.5473,-2.4946,-2.4813,-2.4349,-2.3258,-2.3133,-2.3108,-2.3108,-2.3108,-2.3108,-2.3108,-2.3108,-2.3108,-2.3108,-2.3108,-2.3108,-2.3108,-2.3108,-2.3108,-2.3108,-2.3108,-2.3108,-2.3108,-2.3108,-2.3108,-2.3108,-2.3108,-2.3108,-2.3108,-2.3108,-2.3108,-2.3108,-2.3108,-2.3108,-2.3108,-2.3108,-2.3108,-2.3108,-2.3108,-2.3108,-2.3108,-2.3108,-2.3108,-2.3108,-2.3108,-2.2975,-2.2537,-2.1005,-2.108,-2.1132,-1.9562,-1.8596,-1.8008,-1.8008,-1.8008,-1.8008,-1.8008,-1.8008,-1.8008,-1.8008,-1.8008,-1.8008,-1.8008,-1.7978,-1.7949,-1.7949,-1.792,-1.7734,-1.7305,-1.6904,-1.6619,-1.658,-1.624,-1.6036,-1.6036,-1.5635,-1.541,-1.541,-1.541,-1.541,-1.541,-1.541,-1.5391,-1.5352,-1.5352,-1.5332,-1.5264,-1.5264,-1.5264,-2.2397,-2.2844,-2.297,-2.2418,-2.1217,-1.9949,-1.9171,-1.7212,-1.5424,-1.4984,-1.4192,-1.3778,-1.4462,-1.4488,-1.4947,-1.6584,-1.6773,-1.735,-1.9246,-2.025,-2.1543,-2.3534,-2.4562,-2.5046,-2.4813,-2.4788,-2.4324,-2.3195,-2.3108,-2.3108,-2.3108,-2.3108,-2.3108,-2.3108,-2.3108,-2.3108,-2.3108,-2.3446,-2.3653,-2.3653,-2.3653,-2.3653,-2.364,-2.3258,-2.3108,-2.3108,-2.3108,-2.3108,-2.3108,-2.3108,-2.3108,-2.3108,-2.3108,-2.3321,-2.3653,-2.3653,-2.3835,-2.4111,-2.4111,-2.4111,-2.4111,-2.4111,-2.4111,-2.3998,-2.3308,-2.3346,-2.359,-2.3195,-2.2763,-2.2218,-2.1553,-2.0846,-2.0042,-1.8821,-1.8236,-1.8008,-1.8008,-1.8008,-1.8008,-1.8008,-1.8008,-1.8008,-1.8008,-1.8008,-1.8008,-1.8008,-1.8008,-1.8008,-1.8008,-1.8008,-1.7949,-1.7773,-1.7383,-1.7021,-1.6726,-1.6541,-1.6465,-1.6465,-1.6045,-1.5831,-1.5831,-1.5557,-1.541,-1.541,-1.541,-1.541,-1.541,-1.541,-1.541,-1.541,-1.541,-1.541,-2.1568,-2.2234,-2.2493,-2.197,-2.069,-1.9409,-1.8882,-1.6748,-1.4896,-1.4896,-1.3998,-1.3554,-1.4695,-1.4588,-1.4815,-1.6249,-1.6183,-1.6522,-1.8204,-1.9095,-2.0374,-2.2594,-2.3559,-2.4111,-2.4274,-2.4299,-2.4036,-2.3409,-2.3195,-2.3108,-2.3108,-2.3108,-2.3108,-2.3108,-2.3108,-2.3108,-2.3108,-2.3703,-2.4004,-2.4004,-2.4167,-2.4243,-2.423,-2.3797,-2.3509,-2.3358,-2.3358,-2.3258,-2.3108,-2.3108,-2.3108,-2.312,-2.3296,-2.364,-2.4017,-2.418,-2.4494,-2.4788,-2.4788,-2.4788,-2.4788,-2.4788,-2.4888,-2.4838,-2.3885,-2.3885,-2.4155,-2.371,-2.2904,-2.2111,-2.1956,-2.059,-1.9144,-1.8529,-1.8202,-1.8008,-1.8008,-1.8008,-1.8008,-1.8008,-1.8008,-1.8008,-1.8008,-1.8008,-1.8008,-1.8008,-1.8008,-1.8008,-1.8008,-1.8008,-1.8008,-1.8008,-1.7744,-1.7441,-1.7096,-1.697,-1.6892,-1.6892,-1.6387,-1.6095,-1.6095,-1.5644,-1.5469,-1.5596,-1.5478,-1.5478,-1.5605,-1.5478,-1.541,-1.541,-1.541,-1.541,-2.0553,-2.1119,-2.1408,-2.0842,-1.9861,-1.887,-1.8342,-1.6505,-1.4896,-1.4896,-1.3998,-1.3554,-1.4695,-1.4903,-1.5248,-1.6312,-1.6488,-1.7077,-1.8757,-1.9008,-1.9823,-2.2058,-2.2334,-2.2518,-2.307,-2.312,-2.3358,-2.3954,-2.3421,-2.3108,-2.3108,-2.3108,-2.3108,-2.3108,-2.3108,-2.3108,-2.3108,-2.3703,-2.4004,-2.4004,-2.4556,-2.4775,-2.4775,-2.4775,-2.4474,-2.3991,-2.3991,-2.3665,-2.3108,-2.3108,-2.3108,-2.3158,-2.3766,-2.3991,-2.4067,-2.4607,-2.4788,-2.4788,-2.4788,-2.4788,-2.4788,-2.4788,-2.5172,-2.5485,-2.4958,-2.4775,-2.4775,-2.4775,-2.3761,-2.2563,-2.2051,-2.059,-1.9299,-1.9299,-1.863,-1.8008,-1.8008,-1.8008,-1.8008,-1.8008,-1.8008,-1.8008,-1.8008,-1.8008,-1.8008,-1.8008,-1.8008,-1.8008,-1.8008,-1.8008,-1.8008,-1.8008,-1.8008,-1.8008,-1.7998,-1.7617,-1.7373,-1.7373,-1.6584,-1.6095,-1.6095,-1.5644,-1.5615,-1.6075,-1.5635,-1.5625,-1.6085,-1.5625,-1.541,-1.541,-1.541,-1.541,-1.9397,-1.9936,-2.0213,-1.9673,-1.8995,-1.8317,-1.7765,-1.6229,-1.4896,-1.4896,-1.3998,-1.3441,-1.4211,-1.4349,-1.4808,-1.6283,-1.65,-1.6951,-1.8255,-1.907,-2.0238,-2.2096,-2.364,-2.4343,-2.3778,-2.3728,-2.364,-2.3396,-2.3208,-2.3108,-2.3108,-2.3108,-2.3108,-2.3108,-2.3108,-2.3296,-2.3715,-2.428,-2.4745,-2.5096,-2.5272,-2.536,-2.5322,-2.4594,-2.4167,-2.4004,-2.4004,-2.3891,-2.3753,-2.4098,-2.4261,-2.4274,-2.4462,-2.4782,-2.5109,-2.5285,-2.5598,-2.5971,-2.5971,-2.5971,-2.5971,-2.5971,-2.6084,-2.6185,-2.6021,-2.5661,-2.5272,-2.4888,-2.4489,-2.385,-2.2747,-2.1585,-2.0478,-1.9538,-1.862,-1.8008,-1.8008,-1.8008,-1.8008,-1.8008,-1.8008,-1.8008,-1.8008,-1.8008,-1.8008,-1.8008,-1.8008,-1.8008,-1.8008,-1.8008,-1.8008,-1.8008,-1.8008,-1.8008,-1.8008,-1.7891,-1.7812,-1.7812,-1.7275,-1.6995,-1.6995,-1.6543,-1.6346,-1.6523,-1.6356,-1.6356,-1.6523,-1.6356,-1.6162,-1.5889,-1.5889,-1.5693,-1.8141,-1.8794,-1.912,-1.877,-1.8304,-1.7752,-1.7187,-1.594,-1.4833,-1.4639,-1.3848,-1.3378,-1.3984,-1.4103,-1.4563,-1.5969,-1.6208,-1.6672,-1.8016,-1.8957,-2.0213,-2.2083,-2.3904,-2.4732,-2.4067,-2.4004,-2.3853,-2.3459,-2.3233,-2.3108,-2.3108,-2.3108,-2.3108,-2.3108,-2.3108,-2.3384,-2.3991,-2.4544,-2.5084,-2.5598,-2.5824,-2.5925,-2.5921,-2.5008,-2.4607,-2.4582,-2.4393,-2.4305,0.0,-2.465,-2.4788,-2.4813,-2.5034,-2.531,-2.5624,-2.5871,-2.6185,-2.6499,-2.6499,-2.6499,-2.6499,-2.6499,-2.6499,-2.6499,-2.6499,-2.6248,-2.5812,-2.5272,-2.4847,-2.4237,-2.2815,-2.1653,-2.054,-1.9331,-1.8514,-1.8008,-1.8008,-1.8008,-1.8008,-1.8008,-1.8008,-1.8008,-1.8008,-1.8008,-1.8008,-1.8008,-1.8008,-1.8008,-1.8008,-1.8008,-1.8008,-1.8008,-1.8008,-1.8008,-1.8008,-1.8008,-1.8008,-1.8008,-1.7617,-1.7383,-1.7383,-1.6963,-1.6775,-1.6973,-1.6785,-1.6785,-1.6973,-1.6785,-1.656,-1.6318,-1.6318,-1.6172,0.0,-1.7576,-1.7978,-1.7978,-1.7589,-1.7084,-1.65,-1.558,0.0,-1.4186,-1.3609,-1.3378,-1.3984,-1.4141,-1.4513,-1.5567,-1.5819,-1.6434,-1.8041,-1.8845,-2.0086,-2.2234,-2.3489,-2.413,-2.4004,-2.4029,-2.4042,-2.4004,-2.3434,-2.312,-2.3158,-2.3133,-2.3108,-2.3108,-2.3108,-2.3396,-2.4054,-2.4537,-2.5109,-2.5661,-2.6235,-2.6499,-2.6474,-2.5858,-2.5561,-2.5573,-2.5046,-2.4813,-2.485,-2.4888,-2.4913,-2.4983,-2.5473,-2.5649,-2.5724,-2.6298,-2.6499,-2.6499,-2.6499,-2.6499,-2.6499,-2.6499,-2.6499,-2.6499,-2.6499,-2.6499,-2.6386,-2.5812,-2.4964,-2.3919,-2.2502,-2.1073,-1.9789,-1.8953,-1.8414,-1.8086,-1.8057,-1.8057,-1.8047,-1.8018,-1.8008,-1.8008,-1.8008,-1.8008,-1.8008,-1.8008,-1.8008,-1.8008,-1.8008,-1.8008,-1.8008,-1.8008,-1.8008,-1.8008,-1.8008,-1.8008,-1.8008,-1.8008,-1.7646,-1.7432,-1.7432,-1.7009,-1.7012,-1.7422,-1.6999,-1.7021,-1.7432,-1.7021,-1.6775,-1.6746,-1.6746,-1.6726,-1.5261,0.0,-1.5676,-1.5676,-1.5575,-1.5449,0.0,-1.4765,-1.4236,-1.4128,-1.3609,-1.3378,-1.3984,-1.4437,-1.506,-1.6145,-1.7027,-1.7903,-1.8694,-2.0725,-2.2656,-2.4036,-2.5209,-2.5418,-2.4117,-2.4381,-2.4456,-2.4029,-2.3434,-2.3296,-2.3766,-2.3346,-2.3108,-2.3108,-2.3108,-2.3584,-2.4587,-2.4725,-2.531,-2.6298,-2.6424,-2.6499,-2.6461,-2.5448,-2.5222,-2.5573,-2.5046,-2.5046,-2.5448,-2.5921,-2.6109,-2.6122,-2.6248,-2.6285,-2.6311,-2.6449,-2.6499,-2.6499,-2.6499,-2.6499,-2.6499,-2.6499,-2.6499,-2.6499,-2.6499,-2.6499,-2.6461,-2.6336,-2.5585,-2.4637,-2.3884,-2.2353,-2.0874,-2.0281,-1.9534,-1.8896,-1.8529,-1.8451,-1.8354,-1.8076,-1.8008,-1.8008,-1.8008,-1.8008,-1.8008,-1.8008,-1.8008,-1.8008,-1.8008,-1.8008,-1.8008,-1.8008,-1.8008,-1.8008,-1.8008,-1.8008,-1.8008,-1.8008,-1.792,-1.7861,-1.7861,-1.7764,-1.7754,-1.7861,-1.7764,-1.7764,-1.7861,-1.7764,-1.7549,-1.7227,-1.7227,-1.7051,-1.4036,-1.4676,-1.5273,-1.5273,-1.5273,-1.5198,-1.4947,-1.4488,-1.4009,-1.374,-1.3428,-1.3378,-1.3984,-1.4337,-1.4959,-1.6296,-1.7014,-1.8066,-1.9899,-2.208,-2.391,-2.5046,-2.5699,-2.5624,-2.4494,-2.4418,-2.4318,-2.4017,-2.3703,-2.3665,-2.3979,-2.3703,-2.3384,-2.3108,-2.3108,-2.3647,-2.4775,-2.4788,-2.5372,-2.6499,-2.6499,-2.6499,-2.6461,-2.5573,-2.5473,-2.5996,-2.541,-2.5485,-2.6047,-2.6361,-2.6499,-2.6499,-2.6499,-2.6499,-2.6499,-2.6499,-2.6499,-2.6499,-2.6499,-2.6499,-2.6499,-2.6499,-2.6499,-2.6499,-2.6499,-2.6499,-2.6499,-2.6499,-2.5429,-2.4243,-2.3965,-2.2306,-2.0653,-2.0335,-1.978,-1.9219,-1.8984,-1.8936,-1.8773,-1.8344,-1.8301,-1.8208,-1.8047,-1.8008,-1.8008,-1.8008,-1.8008,-1.8008,-1.8008,-1.8008,-1.8008,-1.8008,-1.8008,-1.8008,-1.8008,-1.8008,-1.8008,-1.8008,-1.8008,-1.8008,-1.8008,-1.8008,-1.8008,-1.8008,-1.8008,-1.8008,-1.8008,-1.7579,-1.7464,-1.7666,-1.7235,-1.7121,-1.3315,-1.4438,-1.5563,-1.5487,-1.5525,-1.5462,-1.4997,-1.4551,-1.4085,-1.3566,-1.3466,-1.3629,-1.4236,-1.4412,-1.4979,-1.65,-1.6964,-1.8254,-2.143,-2.31,-2.4431,-2.5586,-2.5649,-2.5385,-2.4838,-2.4318,-2.4029,-2.4117,-2.4054,-2.4067,-2.423,-2.4092,-2.3778,-2.3246,-2.3145,-2.3609,-2.4662,-2.4662,-2.5247,-2.6361,-2.6285,-2.6336,-2.6474,-2.5774,-2.5837,-2.6461,-2.585,-2.5925,-2.6499,-2.6499,-2.6499,-2.6499,-2.6499,-2.6499,-2.6499,-2.6499,-2.6499,-2.6499,-2.6499,-2.6499,-2.6499,-2.6499,-2.6499,-2.6499,-2.6499,-2.6499,-2.6499,-2.6499,-2.5052,-2.3514,-2.3514,-2.1744,-2.0019,-2.0019,-1.9746,-1.9463,-1.9394,-1.9385,-1.9258,-1.8783,-1.8705,-1.8588,-1.8262,-1.8203,-1.8184,-1.8115,-1.8105,-1.8086,-1.8018,-1.8008,-1.8008,-1.8008,-1.8008,-1.8008,-1.8008,-1.8008,-1.8008,-1.8008,-1.8008,-1.8008,-1.8008,-1.8008,-1.8008,-1.8008,-1.8008,-1.8008,-1.8008,-1.707,-1.6991,-1.7759,-1.6902,-1.697,-1.3815,-1.4488,-1.4909,-1.4462,-1.4689,-1.4997,-1.4928,-1.484,-1.4765,-1.4657,-1.4645,-1.4808,-1.5361,-1.5831,-1.6534,-1.7752,-1.9145,-2.0893,-2.3276,-2.3841,-2.4582,-2.6172,-2.59,-2.5385,-2.4838,-2.4318,-2.4192,-2.4625,-2.4268,-2.4393,-2.5297,-2.4494,-2.3954,-2.3866,-2.3358,-2.3421,-2.4117,-2.4117,-2.4669,-2.5724,-2.5285,-2.5561,-2.6461,-2.541,-2.5498,-2.6461,-2.585,-2.5925,-2.6499,-2.6499,-2.6499,-2.6499,-2.6499,-2.6499,-2.6499,-2.6499,-2.6499,-2.6499,-2.6499,-2.6499,-2.6499,-2.6499,-2.6499,-2.6499,-2.6499,-2.6499,-2.6499,-2.6499,-2.5052,-2.3514,-2.3514,-2.1985,-2.0507,-2.0507,-2.0458,-2.0302,-1.9902,-1.9814,-1.9697,-1.9268,-1.9189,-1.917,-1.9102,-1.9092,-1.8965,-1.8559,-1.851,-1.8373,-1.8057,-1.8008,-1.8008,-1.8008,-1.8008,-1.8008,-1.8008,-1.8008,-1.8008,-1.8008,-1.8008,-1.8008,-1.8008,-1.8008,-1.8008,-1.8008,-1.8008,-1.8008,-1.8008,-1.707,-1.6671,-1.68,-1.6249,-1.631,-1.3546,-1.4243,-1.4833,-1.4588,-1.4941,-1.5336,-1.5336,-1.511,-1.4896,-1.4896,-1.4896,-1.5148,-1.5982,-1.6609,-1.7639,-1.966,-2.1117,-2.2573,-2.4217,-2.4682,-2.5259,-2.6361,-2.5699,-2.5084,-2.4813,-2.401,-2.3735,-2.433,-2.4418,-2.4531,-2.472,-2.4544,-2.4167,-2.3521,-2.3246,-2.3233,-2.3496,-2.3496,-2.4061,-2.5172,-2.5222,-2.536,-2.5573,-2.5674,-2.5812,-2.6034,-2.6084,-2.6248,-2.6499,-2.6499,-2.6499,-2.6499,-2.6499,-2.6499,-2.6499,-2.6499,-2.6499,-2.6499,-2.6499,-2.6499,-2.6499,-2.6499,-2.6499,-2.6499,-2.6499,-2.6499,-2.6499,-2.6499,-2.5429,-2.4192,-2.3635,-2.2451,-2.1221,-2.0712,-2.0605,-2.0546,-2.0312,-2.0264,-2.0137,-1.9707,-1.9619,-1.9561,-1.9326,-1.9287,-1.9219,-1.9023,-1.8984,-1.8838,-1.8373,-1.8315,-1.8227,-1.8037,-1.8008,-1.8008,-1.8008,-1.8008,-1.8008,-1.8008,-1.8008,-1.8008,-1.8008,-1.8008,-1.7759,-1.7251,-1.7759,-1.7759,-1.7251,-1.6289,-1.6105,-1.6558,-1.5296,-1.5022,-1.3566,-1.4237,-1.4921,-1.5047,-1.548,-1.5919,-1.6078,-1.5789,-1.5512,-1.5651,-1.5676,-1.5927,-1.676,-1.7589,-1.8994,-2.1468,-2.2669,-2.3697,-2.4845,-2.5347,-2.5812,-2.6424,-2.5598,-2.5008,-2.5008,-2.4073,-2.3735,-2.433,-2.4657,-2.4695,-2.4381,-2.4544,-2.4199,-2.3333,-2.317,-2.3108,-2.3108,-2.3108,-2.3609,-2.4632,-2.5034,-2.5146,-2.5034,-2.5908,-2.6122,-2.5858,-2.6298,-2.6499,-2.6499,-2.6499,-2.6499,-2.6499,-2.6499,-2.6499,-2.6499,-2.6499,-2.6499,-2.6499,-2.6499,-2.6499,-2.6499,-2.6499,-2.6499,-2.6499,-2.6499,-2.6499,-2.6499,-2.6499,-2.5955,-2.5075,-2.3818,-2.2739,-2.1773,-2.0818,-2.0605,-2.0605,-2.0605,-2.0605,-2.0507,-2.0127,-2.0068,-1.9971,-1.9639,-1.959,-1.9551,-1.9453,-1.9434,-1.9277,-1.8812,-1.8754,-1.8588,-1.8203,-1.812,-1.8081,-1.8018,-1.8008,-1.8008,-1.8008,-1.8008,-1.8008,-1.8008,-1.8008,-1.7579,-1.6636,-1.7535,-1.7545,-1.6602,-1.5649,-1.5587,-1.6245,-1.4407,-1.3884,-1.4632,-1.4833,-1.5009,-1.5525,-1.6057,-1.6597,-1.7159,-1.726,-1.7373,-1.7852,-1.7965,-1.799,-1.8066,-1.9397,-2.1031,-2.2706,-2.354,-2.4305,-2.5385,-2.5573,-2.5812,-2.6424,-2.5912,-2.5536,-2.5536,-2.5034,-2.4888,-2.5435,-2.5071,-2.5008,-2.546,-2.4582,-2.4017,-2.3941,-2.3384,-2.3108,-2.3108,-2.3108,-2.3409,-2.4054,-2.4104,-2.4619,-2.5548,-2.5624,-2.5971,-2.6436,-2.6474,-2.6499,-2.6499,-2.6499,-2.6499,-2.6499,-2.6499,-2.6499,-2.6499,-2.6499,-2.6499,-2.6499,-2.6499,-2.6499,-2.6499,-2.6499,-2.6499,-2.6499,-2.6499,-2.6499,-2.6499,-2.6499,-2.6465,-2.5943,-2.4,-2.2739,-2.1773,-2.0818,-2.0605,-2.0605,-2.0605,-2.0605,-2.0595,-2.0566,-2.0556,-2.0546,-2.0517,-2.0507,-2.037,-1.9932,-1.9873,-1.9717,-1.9297,-1.9238,-1.9072,-1.8607,-1.8559,-1.8403,-1.8047,-1.8008,-1.8008,-1.8008,-1.8008,-1.8008,-1.8008,-1.8008,-1.7579,-1.6636,-1.7535,-1.7545,-1.6602,-1.5649,-1.5234,-1.5261,-1.3819,-1.3375,-1.4337,-1.4651,-1.4947,-1.5148,-1.6153,-1.72,-1.7765,-1.789,-1.8141,-1.902,-1.9196,-1.9309,-1.9698,-2.0553,-2.176,-2.3401,-2.4142,-2.4895,-2.6009,-2.6172,-2.6248,-2.6461,-2.5984,-2.5598,-2.5598,-2.5121,-2.4863,-2.5096,-2.5234,-2.5247,-2.5121,-2.5034,-2.4845,-2.4519,-2.3966,-2.3665,-2.3665,-2.3283,-2.3208,-2.3434,-2.3828,-2.4205,-2.4632,-2.5297,-2.5711,-2.5971,-2.6336,-2.6499,-2.6499,-2.6499,-2.6499,-2.6499,-2.6499,-2.6499,-2.6499,-2.6499,-2.6499,-2.6499,-2.6499,-2.6499,-2.6499,-2.6499,-2.6499,-2.6499,-2.6499,-2.6499,-2.6499,-2.6499,-2.6499,-2.6164,-2.4779,-2.3708,-2.2702,-2.1707,-2.1011,-2.0605,-2.0605,-2.0605,-2.0605,-2.0605,-2.0605,-2.0605,-2.0605,-2.0605,-2.0546,-2.0342,-2.0361,-2.0166,-1.9736,-1.9678,-1.9512,-1.9082,-1.8763,-1.8539,-1.8383,-1.812,-1.8008,-1.8008,-1.8008,-1.8008,-1.8008,-1.8008,-1.7295,-1.5755,-1.6645,-1.6358,-1.4799,-1.445,-1.4279,-1.4235,-1.3122,-1.2597,-1.4387,-1.4733,-1.5148,-1.5148,-1.6292,-1.7637,-1.8505,-1.8706,-1.902,-2.0112,-2.0188,-2.03,-2.1081,-2.1383,-2.2096,-2.3954,-2.4569,-2.5209,-2.6336,-2.6499,-2.6499,-2.6499,-2.6147,-2.5875,-2.5875,-2.5548,-2.5335,-2.5335,-2.5498,-2.5435,-2.5084,-2.5247,-2.5109,-2.4569,-2.4192,-2.3916,-2.3728,-2.3308,-2.3195,-2.3384,-2.3803,-2.4092,-2.4293,-2.5372,-2.5875,-2.5921,-2.6323,-2.6499,-2.6499,-2.6499,-2.6499,-2.6499,-2.6499,-2.6499,-2.6499,-2.6499,-2.6499,-2.6499,-2.6499,-2.6499,-2.6499,-2.6499,-2.6499,-2.6499,-2.6499,-2.6499,-2.6499,-2.6499,-2.6499,-2.6349,-2.5664,-2.448,-2.3257,-2.2253,-2.1298,-2.0605,-2.0605,-2.0605,-2.0605,-2.0605,-2.0605,-2.0605,-2.0605,-2.0605,-2.0605,-2.0605,-2.0605,-2.0498,-2.0156,-2.0117,-1.9951,-1.9531,-1.9102,-1.8754,-1.8617,-1.8344,-1.8154,-1.8018,-1.7716,-1.7681,-1.7974,-1.8008,-1.7123,-1.5234,-1.6105,-1.5649,-1.3709,-1.3709,-1.3709,-1.3673,-1.2732,-1.2198,-1.5035,-1.5286,-1.568,-1.5706,-1.6581,-1.785,-1.9447,-1.9811,-2.0125,-2.128,-2.1106,-2.1056,-2.2121,-2.1882,-2.2234,-2.4424,-2.4788,-2.5209,-2.6336,-2.6499,-2.6499,-2.6499,-2.6499,-2.6499,-2.6499,-2.6499,-2.6499,-2.6499,-2.5959,-2.5598,-2.5598,-2.5109,-2.4582,-2.4029,-2.4004,-2.3728,-2.312,-2.3108,-2.3396,-2.4004,-2.4004,-2.4305,-2.4838,-2.5996,-2.6487,-2.6499,-2.6499,-2.6499,-2.6499,-2.6499,-2.6499,-2.6499,-2.6499,-2.6499,-2.6499,-2.6499,-2.6499,-2.6499,-2.6499,-2.6499,-2.6499,-2.6499,-2.6499,-2.6499,-2.6499,-2.6499,-2.6499,-2.6499,-2.6499,-2.6512,-2.6512,-2.5028,-2.3268,-2.2253,-2.1298,-2.0605,-2.0605,-2.0605,-2.0605,-2.0605,-2.0605,-2.0605,-2.0605,-2.0605,-2.0605,-2.0605,-2.0605,-2.0605,-2.0605,-2.0605,-2.0439,-1.9971,-1.9541,-1.9121,-1.8646,-1.8607,-1.8432,-1.8047,-1.7148,-1.7035,-1.7974,-1.7974,-1.7113,-1.5234,-1.6105,-1.5614,-1.3673,-1.3673,-1.3673,-1.3673,-1.2732,-1.2305,-1.4934,-1.5009,-1.5324,-1.6082,-1.739,-1.8869,-2.0151,-2.0427,-2.0981,-2.2862,-2.3125,-2.2987,-2.2882,-2.3088,-2.3464,-2.4142,-2.487,-2.5624,-2.6386,-2.6499,-2.6499,-2.6499,-2.6499,-2.6499,-2.6499,-2.6499,-2.6499,-2.6499,-2.6336,-2.6235,-2.6235,-2.6084,-2.5711,-2.5134,-2.477,-2.4305,-2.3753,-2.374,-2.3828,-2.4004,-2.4757,-2.5209,-2.5372,-2.5699,-2.6109,-2.6499,-2.6499,-2.6499,-2.6499,-2.6499,-2.6499,-2.6499,-2.6499,-2.6499,-2.6499,-2.6499,-2.6499,-2.6499,-2.6499,-2.6499,-2.6499,-2.6499,-2.6499,-2.6499,-2.6499,-2.6763,-2.7065,-2.7065,-2.7318,-2.7463,-2.6712,-2.5813,-2.4754,-2.3372,-2.1783,-2.0605,-2.0605,-2.0605,-2.0605,-2.0605,-2.0605,-2.0605,-2.0605,-2.0605,-2.0605,-2.0605,-2.0605,-2.0605,-2.0605,-2.0605,-2.0556,-2.0429,-1.998,-1.9678,-1.9514,-1.9268,-1.9043,-1.8916,-1.7699,-1.7306,-1.7983,-1.7354,-1.6428,-1.5234,-1.5473,-1.4657,-1.2732,-1.2732,-1.2732,-1.2696,-1.2445,-1.2305,-1.5097,-1.5374,-1.5743,-1.6635,-1.8103,-1.966,-2.1016,-2.1493,-2.2096,-2.3678,-2.3816,-2.369,-2.376,-2.3916,-2.4142,-2.4569,-2.5172,-2.5799,-2.6411,-2.6499,-2.6499,-2.6499,-2.6499,-2.6499,-2.6499,-2.6499,-2.6499,-2.6499,-2.6499,-2.6499,-2.6499,-2.6499,-2.6223,-2.5611,-2.5297,-2.487,-2.433,-2.433,-2.4431,-2.4632,-2.5285,-2.5724,-2.5971,-2.5971,-2.6172,-2.6499,-2.6499,-2.6499,-2.6499,-2.6499,-2.6499,-2.6499,-2.6499,-2.6499,-2.6499,-2.6499,-2.6499,-2.6499,-2.6499,-2.6499,-2.6499,-2.6499,-2.6499,-2.6537,-2.6751,-2.7052,-2.7331,-2.7544,-2.7846,-2.795,-2.731,-2.6312,-2.509,-2.3544,-2.2136,-2.1039,-2.0673,-2.0605,-2.0605,-2.0605,-2.0605,-2.0605,-2.0605,-2.0605,-2.0605,-2.0605,-2.0605,-2.0605,-2.0605,-2.0605,-2.0605,-2.0605,-2.037,-2.0098,-1.9932,-1.9678,-1.9463,-1.9297,-1.8145,-1.7605,-1.7873,-1.6712,-1.5579,-1.4629,-1.4593,-1.3846,-1.2305,-1.2305,-1.2305,-1.2305,-1.2305,-1.2305,-1.5277,-1.5978,-1.6622,-1.735,-1.8794,-2.0451,-2.1992,-2.2744,-2.3271,-2.3879,-2.3622,-2.3634,-2.4612,-2.4494,-2.4519,-2.5448,-2.5636,-2.585,-2.6411,-2.6499,-2.6499,-2.6499,-2.6499,-2.6499,-2.6499,-2.6499,-2.6499,-2.6499,-2.6499,-2.6499,-2.6499,-2.6499,-2.6223,-2.5611,-2.5598,-2.5347,-2.48,-2.4838,-2.5134,-2.5598,-2.5649,-2.5984,-2.6499,-2.6499,-2.6499,-2.6499,-2.6499,-2.6499,-2.6499,-2.6499,-2.6499,-2.6499,-2.6499,-2.6499,-2.6499,-2.6499,-2.6499,-2.6499,-2.6499,-2.6499,-2.6499,-2.6499,-2.6524,-2.6663,-2.7165,-2.7356,-2.7544,-2.8047,-2.8222,-2.8223,-2.8137,-2.6657,-2.4832,-2.3225,-2.2352,-2.1683,-2.0789,-2.0605,-2.0605,-2.0605,-2.0605,-2.0605,-2.0605,-2.0605,-2.0605,-2.0605,-2.0605,-2.0605,-2.0605,-2.0605,-2.0605,-2.0605,-2.0605,-2.0449,-2.001,-1.9971,-1.9805,-1.9424,-1.8499,-1.7913,-1.7801,-1.618,-1.4816,-1.3754,-1.3754,-1.3266,-1.2305,-1.2305,-1.2305,-1.2305,-1.2305,-1.2305,-1.4167,-1.5134,-1.6321,-1.818,-2.0211,-2.1983,-2.2744,-2.302,-2.3271,-2.3879,-2.4569,-2.5021,-2.4813,-2.5435,-2.5883,-2.5636,-2.6009,-2.6348,-2.6474,-2.6499,-2.6499,-2.6499,-2.6499,-2.6499,-2.6499,-2.6499,-2.6499,-2.6499,-2.6499,-2.6499,-2.6499,-2.6499,-2.6223,-2.5611,-2.5598,-2.5347,-2.48,-2.5222,-2.5485,-2.5598,-2.6084,-2.6373,-2.6499,-2.6499,-2.6499,-2.6499,-2.6499,-2.6499,-2.6499,-2.6499,-2.6499,-2.6499,-2.6499,-2.6499,-2.6499,-2.6499,-2.6499,-2.6499,-2.6499,-2.6499,-2.6499,-2.6499,-2.6788,-2.7165,-2.7291,-2.7896,-2.8562,-2.8712,-2.9076,-2.9223,-2.8336,-2.7454,-2.632,-2.436,-2.2574,-2.1214,-2.0722,-2.0605,-2.0605,-2.0605,-2.0605,-2.0605,-2.0605,-2.0605,-2.0605,-2.0605,-2.0605,-2.0605,-2.0605,-2.0605,-2.0605,-2.0605,-2.0605,-2.0566,-2.0478,-2.0458,-2.0429,-2.0341,-1.9107,-1.835,-1.8312,-1.6804,-1.5389,-1.4141,-1.4097,-1.3489,-1.2305,-1.2305,-1.2305,-1.2305,-1.2305,-1.2305,-1.4042,-1.5278,-1.6714,-1.9496,-2.0806,-2.1674,-2.286,-2.3108,-2.3195,-2.3496,-2.4243,-2.4833,-2.4788,-2.5498,-2.5984,-2.5649,-2.6122,-2.6499,-2.6499,-2.6499,-2.6499,-2.6499,-2.6499,-2.6499,-2.6499,-2.6499,-2.6499,-2.6499,-2.6499,-2.6499,-2.6499,-2.6499,-2.6361,-2.6047,-2.6047,-2.5921,-2.5611,-2.5908,-2.6047,-2.6047,-2.6348,-2.6499,-2.6499,-2.6499,-2.6499,-2.6499,-2.6499,-2.6499,-2.6499,-2.6499,-2.6499,-2.6499,-2.6499,-2.6499,-2.6499,-2.6499,-2.6499,-2.6499,-2.6499,-2.6499,-2.6499,-2.6499,-2.6864,-2.7331,-2.7595,-2.826,-2.895,-2.9264,-2.9169,-2.8858,-2.8255,-2.7111,-2.5798,-2.4487,-2.3185,-2.204,-2.136,-2.1241,-2.1182,-2.0928,-2.0889,-2.082,-2.0644,-2.0605,-2.0605,-2.0605,-2.0605,-2.0605,-2.0605,-2.0605,-2.0605,-2.0605,-2.0605,-2.0605,-2.0605,-2.0605,-2.0605,-2.0605,-1.9918,-1.9282,-1.8767,-1.7453,-1.6005,-1.4516,-1.3988,-1.3387,-1.2739,-1.2585,-1.2549,-1.2549,-1.2365,-1.2305,-1.3595,-1.5237,-1.7075,-2.0378,-2.086,-2.0969,-2.2596,-2.3032,-2.3108,-2.3108,-2.359,-2.4142,-2.4562,-2.5109,-2.546,-2.546,-2.5971,-2.6348,-2.6348,-2.6436,-2.6499,-2.6499,-2.6499,-2.6499,-2.6499,-2.6499,-2.6499,-2.6499,-2.6499,-2.6499,-2.6499,-2.6499,-2.6499,-2.6499,-2.6499,-2.6499,-2.6499,-2.6499,-2.6499,-2.6499,-2.6499,-2.6499,-2.6499,-2.6499,-2.6436,-2.6348,-2.6449,-2.6436,-2.6348,-2.6449,-2.6499,-2.6499,-2.6499,-2.6499,-2.6499,-2.6499,-2.6499,-2.6499,-2.6499,-2.6499,-2.6512,-2.66,-2.7014,-2.7532,-2.8084,-2.8637,-2.9176,-2.9654,-2.9106,-2.8347,-2.8136,-2.6603,-2.4946,-2.444,-2.3773,-2.3012,-2.2111,-2.1885,-2.1777,-2.1416,-2.1249,-2.1073,-2.0742,-2.0654,-2.0605,-2.0605,-2.0605,-2.0605,-2.0605,-2.0605,-2.0605,-2.0605,-2.0605,-2.0605,-2.0605,-2.0605,-2.0605,-2.0605,-2.0605,-2.0206,-1.9313,-1.7989,-1.6653,-1.5249,-1.3922,-1.326,-1.3213,-1.2991,-1.2864,-1.2857,-1.2572,-1.2458,-1.0948,-1.345,-1.6477,-1.933,-2.0566,-2.1319,-2.2209,-2.2757,-2.3108,-2.3108,-2.359,-2.4017,-2.4092,-2.4556,-2.4888,-2.4888,-2.536,-2.5711,-2.5711,-2.6172,-2.6499,-2.6499,-2.6499,-2.6499,-2.6499,-2.6499,-2.6499,-2.6499,-2.6499,-2.6499,-2.6499,-2.6499,-2.6499,-2.6499,-2.6499,-2.6499,-2.6499,-2.6499,-2.6499,-2.6499,-2.6499,-2.6499,-2.6499,-2.6499,-2.6223,-2.5737,-2.6273,-2.621,-2.5749,-2.6285,-2.6499,-2.6499,-2.6499,-2.6499,-2.6499,-2.6499,-2.6499,-2.6499,-2.6499,-2.6499,-2.6575,-2.7052,-2.7544,-2.8097,-2.8612,-2.9214,-2.9691,-2.9767,-2.9702,-2.9365,-2.8347,-2.7197,-2.5994,-2.4967,-2.3917,-2.2893,-2.2083,-2.1885,-2.1865,-2.1807,-2.1494,-2.1181,-2.1112,-2.082,-2.0605,-2.0605,-2.0605,-2.0605,-2.0605,-2.0605,-2.0605,-2.0605,-2.0605,-2.0605,-2.0605,-2.0605,-2.0605,-2.0605,-2.0605,-2.0527,-2.0401,-1.839,-1.7171,-1.6952,-1.4708,-1.342,-1.3213,-1.3166,-1.3153,-1.3146,-1.3106,-1.3093,-1.1598,-1.3346,-1.5282,-1.799,-1.9002,-1.9713,-2.1316,-2.2191,-2.2732,-2.3045,-2.3308,-2.3484,-2.3484,-2.3948,-2.4356,-2.4356,-2.4808,-2.5159,-2.5159,-2.5385,-2.5649,-2.5971,-2.6009,-2.6135,-2.6461,-2.6499,-2.6499,-2.6499,-2.6499,-2.6499,-2.6499,-2.6499,-2.6499,-2.6499,-2.6499,-2.6499,-2.6499,-2.6499,-2.6499,-2.6499,-2.6499,-2.6499,-2.6499,-2.6499,-2.6172,-2.5624,-2.6248,-2.6172,-2.5636,-2.6248,-2.6499,-2.6499,-2.6499,-2.6499,-2.6499,-2.6499,-2.6499,-2.6499,-2.6499,-2.67,-2.7002,-2.7241,-2.7871,-2.8574,-2.8813,-2.934,-2.9792,-2.9792,-2.9326,-2.8597,-2.7493,-2.6378,-2.5252,-2.4135,-2.3464,-2.2994,-2.2666,-2.2588,-2.2519,-2.2285,-2.1894,-2.1602,-2.1602,-2.1435,-2.1221,-2.0977,-2.0937,-2.085,-2.0635,-2.0605,-2.0605,-2.0605,-2.0605,-2.0605,-2.0605,-2.0605,-2.0605,-2.0605,-2.0605,-2.0605,-2.0605,-1.847,-1.7302,-1.7302,-1.5049,-1.3828,-1.3701,-1.3534,-1.3413,-1.3407,-1.3287,-1.3213,-1.2015,-1.2919,-1.371,-1.6383,-1.7301,-1.8008,-1.9895,-2.1219,-2.2117,-2.2526,-2.2875,-2.3108,-2.3108,-2.3459,-2.3778,-2.3778,-2.4255,-2.4587,-2.4587,-2.47,-2.4938,-2.536,-2.5523,-2.5774,-2.6235,-2.6411,-2.6499,-2.6499,-2.6499,-2.6499,-2.6499,-2.6499,-2.6499,-2.6499,-2.6499,-2.6499,-2.6499,-2.6499,-2.6499,-2.6499,-2.6499,-2.6499,-2.6499,-2.6499,-2.6109,-2.5435,-2.6185,-2.6084,-2.546,-2.6197,-2.6499,-2.6499,-2.6499,-2.6499,-2.6499,-2.6499,-2.6499,-2.6499,-2.6499,-2.6851,-2.7306,-2.7444,-2.8147,-2.8913,-2.9063,-2.9453,-2.9792,-2.9792,-2.8976,-2.7844,-2.676,-2.563,-2.45,-2.3387,-2.3091,-2.3091,-2.3091,-2.3091,-2.3003,-2.2691,-2.2334,-2.2041,-2.2041,-2.1953,-2.1777,-2.1445,-2.1356,-2.1279,-2.0987,-2.084,-2.0732,-2.0732,-2.0674,-2.0605,-2.0605,-2.0605,-2.0605,-2.0605,-2.0605,-2.0605,-2.0605,-1.8749,-1.7585,-1.7302,-1.547,-1.437,-1.4088,-1.3868,-1.3713,-1.3706,-1.3534,-1.3434,-1.0667,-1.1174,-1.1691,-1.4372,-1.5899,-1.6961,-1.78,-1.9668,-2.1284,-2.1308,-2.2272,-2.3108,-2.3108,-2.3133,-2.3145,-2.3145,-2.3665,-2.4042,-2.4042,-2.4494,-2.48,-2.4825,-2.5297,-2.5598,-2.5636,-2.6172,-2.6499,-2.6499,-2.6499,-2.6499,-2.6499,-2.6499,-2.6499,-2.6499,-2.6499,-2.6499,-2.6499,-2.6499,-2.6499,-2.6499,-2.6499,-2.6499,-2.6499,-2.6499,-2.5908,-2.4888,-2.6034,-2.5883,-2.4946,-2.6047,-2.6499,-2.6499,-2.6499,-2.6499,-2.6499,-2.6499,-2.6499,-2.6499,-2.6499,-2.6851,-2.7369,-2.7896,-2.8461,-2.9001,-2.9578,-2.9767,-2.9792,-2.9792,-2.8976,-2.7844,-2.676,-2.563,-2.45,-2.3387,-2.3091,-2.3091,-2.3091,-2.3091,-2.3091,-2.3062,-2.2721,-2.248,-2.248,-2.2148,-2.1875,-2.1855,-2.1846,-2.1846,-2.1826,-2.1455,-2.1161,-2.1161,-2.082,-2.0605,-2.0605,-2.0605,-2.0605,-2.0605,-2.0605,-2.0605,-2.0605,-1.952,-1.839,-1.7334,-1.6191,-1.5137,-1.4088,-1.4075,-1.4062,-1.4062,-1.4048,-1.4041,-0.9619,-1.0547,-1.1634,-1.2865,-1.4258,-1.5663,-1.6846,-1.8322,-1.9569,-1.9922,-2.0997,-2.1711,-2.1141,-2.2171,-2.3108,-2.3108,-2.3283,-2.3409,-2.3409,-2.3584,-2.3847,-2.4255,-2.4456,-2.4833,-2.5523,-2.5787,-2.6097,-2.6461,-2.6499,-2.6499,-2.6499,-2.6499,-2.6499,-2.6499,-2.6499,-2.6499,-2.6499,-2.6499,-2.6499,-2.6499,-2.6499,-2.6499,-2.6499,-2.6499,-2.5567,-2.4016,-2.5085,-2.5271,-2.485,-2.5598,-2.616,-2.6499,-2.6499,-2.6499,-2.6499,-2.6499,-2.6499,-2.6549,-2.6901,-2.7344,-2.7896,-2.8448,-2.9026,-2.9528,-2.9729,-2.9792,-2.9792,-2.9792,-2.8976,-2.7844,-2.676,-2.563,-2.45,-2.3387,-2.3091,-2.3091,-2.3091,-2.3091,-2.3091,-2.3091,-2.2974,-2.2877,-2.2877,-2.275,-2.2598,-2.2324,-2.2295,-2.2197,-2.1924,-2.1748,-2.165,-2.165,-2.126,-2.0996,-2.0996,-2.0732,-2.0605,-2.0605,-2.0605,-2.0284,-1.9599,-1.9204,-1.8141,-1.6314,-1.5902,-1.5179,-1.4088,-1.4088,-1.4088,-1.4088,-1.4088,-1.4088,-0.9082,-1.0166,-1.1506,-1.2057,-1.2993,-1.4155,-1.5508,-1.6787,-1.7839,-1.8327,-1.9561,-2.0419,-1.9972,-2.1049,-2.2165,-2.2634,-2.2702,-2.2793,-2.3078,-2.3108,-2.3246,-2.3665,-2.3879,-2.428,-2.4983,-2.5234,-2.5498,-2.5921,-2.6109,-2.6197,-2.6197,-2.6386,-2.6499,-2.6499,-2.6499,-2.6499,-2.6499,-2.6499,-2.6499,-2.6499,-2.6499,-2.6499,-2.6487,-2.5999,-2.4917,-2.3504,-2.385,-2.3928,-2.3905,-2.4628,-2.5125,-2.5499,-2.5499,-2.5499,-2.5534,-2.5873,-2.599,-2.6134,-2.7009,-2.7645,-2.8197,-2.8712,-2.9315,-2.9792,-2.9792,-2.9792,-2.9792,-2.9792,-2.8976,-2.7844,-2.676,-2.5389,-2.4049,-2.3256,-2.3091,-2.3091,-2.3091,-2.3091,-2.3091,-2.3091,-2.3091,-2.3091,-2.3091,-2.3091,-2.3003,-2.2721,-2.2682,-2.2617,-2.2344,-2.2178,-2.21,-2.21,-2.1709,-2.1414,-2.1414,-2.1182,-2.0987,-2.0801,-2.0791,-2.0438,-1.9569,-1.9195,-1.8141,-1.6273,-1.5861,-1.5179,-1.4088,-1.4088,-1.4088,-1.4088,-1.4088,-1.4088,0.0,0.0,0.0,-1.195,-1.2174,-1.2515,-1.3782,-1.5069,-1.6137,-1.656,-1.7998,-1.9332,-1.9705,-1.9817,-2.0265,-2.1584,-2.1865,-2.2168,-2.2944,-2.3078,-2.3108,-2.3108,-2.3627,-2.3979,-2.4004,-2.4449,-2.4775,-2.4788,-2.5219,-2.5507,-2.5565,-2.6138,-2.6452,-2.6499,-2.6452,-2.6452,-2.6499,-2.6452,-2.6452,-2.6452,-2.6452,-2.6452,-2.6358,-2.4929,-2.3944,-2.3368,-2.2457,-2.2,-2.2045,-2.3064,-2.3503,-2.3514,-2.3514,-2.3514,-2.3635,-2.46,-2.4969,-2.5159,-2.6691,-2.7573,-2.8161,-2.8687,-2.9302,-2.9792,-2.9753,-2.9753,-2.9753,-2.9753,-2.8937,-2.7804,-2.6719,-2.4808,-2.3135,-2.3091,-2.3091,-2.3091,-2.3091,-2.3091,-2.3091,-2.3091,-2.3091,-2.3091,-2.3091,-2.3091,-2.3091,-2.3091,-2.3091,-2.3091,-2.3091,-2.274,-2.2529,-2.2529,-2.2158,-2.1904,-2.1904,-2.1894,-2.1699,-2.122,-2.119,-2.0995,-2.0586,-1.9559,-1.843,-1.7302,-1.6232,-1.5179,-1.4088,-1.4088,-1.4088,-1.4088,-1.4088,-1.4088,-0.9611,0.0,0.0,0.0,0.0,0.0,-1.2998,-1.3511,-1.4078,-1.5114,-1.6207,-1.7023,-1.7132,-1.7913,-1.8757,-1.941,-2.0859,-2.197,-2.2187,-2.2732,-2.3108,-2.3108,-2.3246,-2.3509,-2.3954,-2.3555,-2.3704,-2.473,-2.3766,-2.3554,-2.455,-2.5116,-2.5734,-2.6499,-2.5804,-2.5769,-2.6499,-2.5769,-2.5406,-2.5406,-2.5406,-2.5028,-2.4325,-2.3912,-2.2925,-2.1583,-2.2631,-2.2353,-2.121,-2.241,-2.3165,-2.3514,-2.3514,-2.3514,-2.3514,-2.3818,-2.3927,-2.4089,-2.522,-2.6231,-2.7146,-2.8026,-2.8983,-2.9663,-2.8806,-2.8557,-2.8557,-2.8557,-2.7775,-2.6666,-2.5546,-2.4787,-2.4125,-2.3299,-2.3091,-2.3091,-2.3091,-2.3091,-2.3091,-2.3091,-2.3091,-2.3091,-2.3091,-2.3091,-2.3091,-2.3091,-2.3091,-2.3091,-2.3091,-2.2994,-2.2925,-2.2925,-2.2588,-2.2344,-2.2344,-2.206,-2.1699,-2.122,-2.119,-2.0667,-1.9499,-1.9155,-1.8101,-1.6191,-1.5861,-1.5179,-1.4088,-1.4088,-1.4088,-1.4088,-1.4088,-1.4088,-1.0322,-1.0986,-1.1777,-1.1502,0.0,0.0,-1.2661,-1.2744,-1.292,-1.4023,-1.4807,-1.5382,-1.5743,-1.6407,-1.7114,-1.7695,-1.9336,-2.0734,-2.1267,-2.2063,-2.261,-2.261,-2.2884,-2.3112,-2.3127,-2.2983,-2.2916,-2.3039,-2.2643,-2.2942,-2.416,-2.4528,-2.5059,-2.5838,-2.5699,-2.5699,-2.5873,-2.53,-2.5004,-2.5004,-2.4564,-2.4072,-2.3478,-2.2901,-2.1973,-2.0868,-2.2096,-2.1709,-2.0283,-2.1803,-2.26,-2.285,-2.2451,-2.2301,-2.2339,-2.2739,-2.3018,-2.3329,-2.457,-2.5506,-2.631,-2.7174,-2.7867,-2.8371,-2.8176,-2.7804,-2.7522,-2.7964,-2.6982,-2.563,-2.4957,-2.4457,-2.392,-2.3266,-2.3091,-2.3091,-2.3091,-2.3091,-2.3091,-2.3091,-2.3091,-2.3091,-2.3091,-2.3091,-2.3091,-2.3091,-2.3091,-2.3091,-2.3091,-2.3091,-2.3091,-2.3091,-2.2877,-2.273,-2.273,-2.2549,-2.2227,-2.1756,-2.1726,-2.12,-1.9977,-1.9048,-1.7899,-1.6396,-1.5504,-1.4734,-1.4088,-1.4088,-1.4088,-1.4088,-1.4088,-1.4088,-1.1162,-1.1609,-1.2203,-1.2203,-1.1619,0.0,-1.2494,-1.2471,-1.2437,-1.3271,-1.3714,-1.4231,-1.5107,-1.5273,-1.5547,-1.6346,-1.7468,-1.8754,-2.0167,-2.1161,-2.1753,-2.1753,-2.2384,-2.2537,-2.1815,-2.2322,-2.2082,-2.0719,-2.1701,-2.2813,-2.3776,-2.4032,-2.4329,-2.4756,-2.5779,-2.5838,-2.4862,-2.4826,-2.4791,-2.4671,-2.3745,-2.3294,-2.3136,-2.1823,-2.1037,-2.0718,-2.1296,-2.0772,-1.967,-2.142,-2.2103,-2.1924,-2.0972,-2.0673,-2.0828,-2.1593,-2.214,-2.2726,-2.4163,-2.5001,-2.5558,-2.6099,-2.64,-2.6637,-2.7481,-2.7075,-2.6513,-2.7481,-2.6397,-2.4957,-2.483,-2.4049,-2.3266,-2.3135,-2.3091,-2.3091,-2.3091,-2.3091,-2.3091,-2.3091,-2.3091,-2.3091,-2.3091,-2.3091,-2.3091,-2.3091,-2.3091,-2.3091,-2.3091,-2.3091,-2.3091,-2.3091,-2.3091,-2.3091,-2.3091,-2.3091,-2.2916,-2.2539,-2.251,-2.2107,-2.1298,-1.9327,-1.7979,-1.7408,-1.5208,-1.4088,-1.4088,-1.4088,-1.4088,-1.4088,-1.4088,-1.4088,-1.1969,-1.2077,-1.2203,-1.2203,-1.2077,0.0,-1.1858,-1.2031,-1.2359,-1.2891,-1.3066,-1.3379,-1.4202,-1.4358,-1.4523,-1.5078,-1.5654,-1.6709,-1.8723,-2.0079,-2.0846,-2.0846,-2.1005,-2.1037,-2.0878,-2.0365,-2.0204,-2.0558,-2.0511,-2.059,-2.091,-2.236,-2.3232,-2.3299,-2.4602,-2.4814,-2.3818,-2.3781,-2.3368,-2.259,-2.2403,-2.1886,-2.1145,-2.0476,-2.0163,-2.0158,-2.1858,-2.1991,-2.1089,-2.2585,-2.2739,-2.1924,-2.0972,-2.1039,-2.1659,-2.1078,-2.1154,-2.16,-2.2271,-2.3391,-2.455,-2.4977,-2.5755,-2.6348,-2.5661,-2.5284,-2.5168,-2.5368,-2.5797,-2.5975,-2.5041,-2.4628,-2.4253,-2.3299,-2.3091,-2.3091,-2.3091,-2.3091,-2.3091,-2.3091,-2.3091,-2.3091,-2.3091,-2.3091,-2.3091,-2.3091,-2.3091,-2.3091,-2.3091,-2.3091,-2.3091,-2.3091,-2.3091,-2.3091,-2.3091,-2.3091,-2.2916,-2.2539,-2.251,-2.2285,-2.1777,-2.049,-1.9146,-1.7913,-1.54,-1.4088,-1.4088,-1.4088,-1.4088,-1.4088,-1.4088,-1.4088,-1.2607,-1.2559,-1.2559,-1.2559,-1.2369,0.0,0.0,-1.2227,-1.233,-1.2793,-1.2705,-1.2754,-1.3389,-1.3506,-1.3643,-1.4072,-1.4853,-1.5703,-1.6587,-1.8214,-1.9302,-1.9302,-1.9856,-2.0095,-1.965,-1.9803,-1.9944,-1.9944,-1.9318,-1.9274,-2.0039,-2.1391,-2.2154,-2.2143,-2.3721,-2.401,-2.2776,-2.2739,-2.2515,-2.1989,-2.1517,-2.0919,-2.0234,-2.0019,-1.9805,-1.9683,-2.1406,-2.1574,-2.0781,-2.2174,-2.244,-2.1952,-2.1479,-2.1593,-2.1952,-2.1479,-2.1685,-2.2231,-2.2002,-2.2653,-2.3669,-2.3892,-2.4349,-2.4808,-2.4787,-2.4787,-2.466,-2.4135,-2.4339,-2.4681,-2.4092,-2.3963,-2.38,-2.3266,-2.3091,-2.3091,-2.3091,-2.3091,-2.3091,-2.3091,-2.3091,-2.3091,-2.3091,-2.3091,-2.3091,-2.3091,-2.3091,-2.3091,-2.3091,-2.3091,-2.3091,-2.3091,-2.3091,-2.3091,-2.3091,-2.3091,-2.3003,-2.2789,-2.2779,-2.2637,-2.2217,-2.1127,-1.9494,-1.7207,-1.5863,-1.4845,-1.4088,-1.4088,-1.4088,-1.4088,-1.4088,-1.4088,-1.3213,-1.3208,-1.3238,-1.3071,-1.2861,-1.2701,0.0,0.0,0.0,-1.2715,-1.2549,-1.2461,-1.2837,-1.2837,-1.2891,-1.332,-1.4258,-1.4834,-1.457,-1.6099,-1.7312,-1.7489,-1.8566,-1.8992,-1.8186,-1.9091,-1.9553,-1.9079,-1.8255,-1.8342,-1.9619,-2.0606,-2.1085,-2.099,-2.2929,-2.3247,-2.1735,-2.1914,-2.1914,-2.1735,-2.0972,-2.0332,-1.9912,-1.9824,-1.9648,-1.9497,-2.0751,-2.0831,-2.0144,-2.1477,-2.1886,-2.1735,-2.1735,-2.1849,-2.2,-2.1811,-2.2276,-2.2909,-2.2154,-2.2441,-2.3091,-2.3091,-2.3091,-2.3256,-2.4168,-2.4457,-2.4296,-2.3343,-2.3091,-2.3091,-2.3091,-2.3091,-2.3091,-2.3091,-2.3091,-2.3091,-2.3091,-2.3091,-2.3091,-2.3091,-2.3091,-2.3091,-2.3091,-2.3091,-2.3091,-2.3091,-2.3091,-2.3091,-2.3091,-2.3091,-2.3091,-2.3091,-2.3091,-2.3091,-2.3091,-2.3091,-2.3091,-2.3091,-2.3091,-2.2945,-2.2646,-2.1299,-1.9272,-1.6548,-1.6121,-1.5355,-1.4168,-1.4115,-1.4088,-1.4088,-1.4088,-1.4088,-1.3977,-1.4277,-1.4412,-1.3623,-1.3975,-1.4111,-1.2613,0.0,-1.3164,-1.2428,0.0,-1.2846,-1.2895,0.0,0.0,-1.2881,-1.3101,-1.3281,-1.3603,-1.4155,-1.4836,-1.5605,-1.6504,-1.6882,-1.6424,-1.6574,-1.7093,-1.8049,-1.7391,-1.7323,-1.8178,-1.9533,-2.0024,-1.9555,-2.1829,-2.231,-2.0789,-2.1593,-2.1593,-2.075,-2.0634,-2.0332,-1.9902,-1.9531,-1.9541,-1.9862,-2.0566,-2.0728,-2.0604,-2.1611,-2.1517,-2.075,-2.075,-2.126,-2.1886,-2.1088,-2.1312,-2.204,-2.1926,-2.2441,-2.3091,-2.3091,-2.3091,-2.3135,-2.3256,-2.3299,-2.3256,-2.3135,-2.3091,-2.3091,-2.3091,-2.3091,-2.3091,-2.3091,-2.3091,-2.3091,-2.3091,-2.3091,-2.3091,-2.3091,-2.3091,-2.3091,-2.3091,-2.3091,-2.3091,-2.3091,-2.3091,-2.3091,-2.3091,-2.3091,-2.3091,-2.3091,-2.3091,-2.3091,-2.3091,-2.3091,-2.3091,-2.3091,-2.3091,-2.3071,-2.3023,-2.0642,-1.86,-1.7139,-1.5506,-1.4626,-1.4469,-1.4215,-1.4088,-1.4088,-1.4088,-1.4088,-1.4172,-1.4453,-1.4639,-1.3997,-1.4114,-1.4133,-1.3168,-1.3057,-1.3047,-1.2686,0.0,0.0,0.0,0.0,0.0,0.0,-1.292,-1.3135,-1.2788,-1.3324,-1.3968,-1.4572,-1.5225,-1.5723,-1.6065,-1.5871,-1.6158,-1.7178,-1.6722,-1.6763,-1.7621,-1.8918,-1.9517,-1.9304,-2.0755,-2.124,-2.0595,-2.1011,-2.1011,-2.0605,-2.0605,-2.0243,-1.9541,-1.9365,-1.9385,-1.9578,-1.9819,-2.0165,-2.0644,-2.1049,-2.0972,-2.0605,-2.0605,-2.1155,-2.1952,-2.1555,-2.1944,-2.2646,-2.2071,-2.2441,-2.3091,-2.3091,-2.3091,-2.3091,-2.3091,-2.3091,-2.3091,-2.3091,-2.3091,-2.3091,-2.3091,-2.3091,-2.3091,-2.3091,-2.3091,-2.3091,-2.3091,-2.3091,-2.3091,-2.3091,-2.3091,-2.3091,-2.3091,-2.3091,-2.3091,-2.3091,-2.3091,-2.3091,-2.3091,-2.3091,-2.3091,-2.3091,-2.3091,-2.3091,-2.3091,-2.3091,-2.3091,-2.3091,-2.3091,-2.2775,-2.2076,-2.0962,-1.9374,-1.7251,-1.6453,-1.563,-1.4776,-1.47,-1.4509,-1.4335,-1.4168,-1.4088,-1.4785,-1.499,-1.5127,-1.4299,-1.4202,-1.4114,-1.3486,-1.3281,-1.3193,-1.3101,-1.2988,0.0,0.0,0.0,-1.2554,-1.2554,0.0,-1.3115,-1.2467,-1.2842,-1.3246,-1.3549,-1.4092,-1.4803,-1.5654,-1.525,-1.5368,-1.6455,-1.6068,-1.6256,-1.7347,-1.8276,-1.8937,-1.9294,-1.9909,-2.038,-2.0595,-2.0605,-2.0605,-2.0605,-2.0488,-2.0038,-1.9287,-1.9287,-1.9287,-1.9297,-1.9404,-1.992,-2.0605,-2.0605,-2.0605,-2.0605,-2.0605,-2.1011,-2.1642,-2.1737,-2.2282,-2.2808,-2.2251,-2.2529,-2.3091,-2.3091,-2.3091,-2.3091,-2.3091,-2.3091,-2.3091,-2.3091,-2.3091,-2.3091,-2.3091,-2.3091,-2.3091,-2.3091,-2.3091,-2.3091,-2.3091,-2.3091,-2.3091,-2.3091,-2.3091,-2.3091,-2.3091,-2.3091,-2.3091,-2.3091,-2.3091,-2.3091,-2.3091,-2.3091,-2.3091,-2.3091,-2.3091,-2.3091,-2.3091,-2.3091,-2.3091,-2.3091,-2.3091,-2.2403,-2.089,-2.08,-1.9537,-1.6846,-1.6766,-1.6168,-1.5129,-1.5048,-1.485,-1.4636,-1.4342,-1.4162,-1.6153,-1.6328,-1.6229,-1.4533,-1.4453,-1.4434,-1.3208,-1.3516,-1.3948,-1.3574,-1.4131,-1.457,-1.4124,-1.3714,-1.3467,-1.3467,-1.3154,0.0,0.0,-1.252,-1.2252,-1.2262,-1.3012,-1.3887,-1.4774,-1.4109,-1.4343,-1.5988,-1.5378,-1.5657,-1.7298,-1.7425,-1.8012,-1.9248,-1.9323,-1.9734,-2.0595,-2.0605,-2.0605,-2.0595,-2.0137,-1.9707,-1.9287,-1.9287,-1.9287,-1.9307,-1.9717,-2.0146,-2.0605,-2.0605,-2.0605,-2.0605,-2.0605,-2.0605,-2.0693,-2.1085,-2.1535,-2.1985,-2.2353,-2.273,-2.3091,-2.3091,-2.3091,-2.3091,-2.3091,-2.3091,-2.3091,-2.3091,-2.3091,-2.3091,-2.3091,-2.3091,-2.3091,-2.3091,-2.3091,-2.3091,-2.3091,-2.3091,-2.3091,-2.3091,-2.3091,-2.3091,-2.3091,-2.3091,-2.3091,-2.3091,-2.3091,-2.3091,-2.3091,-2.3091,-2.3091,-2.3091,-2.3091,-2.3091,-2.3091,-2.3091,-2.3091,-2.3091,-2.3091,-2.2041,-1.967,-1.9534,-1.8395,-1.5906,-1.5584,-1.5437,-1.5384,-1.5149,-1.5001,-1.4988,-1.4643,-1.4355,-1.7014,-1.7451,-1.7545,-1.584,-1.5547,-1.5253,-1.3652,-1.3704,-1.3987,-1.3594,-1.4189,-1.4648,-1.4192,-1.3997,-1.3802,-1.3555,-1.3389,-1.2988,0.0,-1.1631,-1.1443,-1.178,-1.2559,-1.3203,-1.3522,-1.3298,-1.36,-1.4687,-1.4511,-1.502,-1.6457,-1.7103,-1.7832,-1.8828,-1.9141,-1.9734,-2.0595,-2.0605,-2.0605,-2.0595,-2.0117,-1.9844,-1.9697,-1.9414,-1.9443,-1.9707,-1.9853,-2.0166,-2.0605,-2.0605,-2.0605,-2.0605,-2.0605,-2.0752,-2.1025,-2.1142,-2.1514,-2.1992,-2.2685,-2.2974,-2.3091,-2.3091,-2.3091,-2.3091,-2.3091,-2.3091,-2.3091,-2.3091,-2.3091,-2.3091,-2.3091,-2.3091,-2.3091,-2.3091,-2.3091,-2.3091,-2.3091,-2.3091,-2.3091,-2.3091,-2.3091,-2.3091,-2.3091,-2.3091,-2.3091,-2.3091,-2.3091,-2.3091,-2.3091,-2.3091,-2.3091,-2.3091,-2.3091,-2.3091,-2.3091,-2.3091,-2.3091,-2.3091,-2.3091,-2.2359,-2.0755,-1.9898,-1.8718,-1.7084,-1.6148,-1.5678,-1.5678,-1.5585,-1.5438,-1.5251,-1.515,-1.4836,-1.7871,-1.8223,-1.8266,-1.6917,-1.6564,-1.6153,-1.4541,-1.4611,-1.4864,-1.4307,-1.4746,-1.5195,-1.505,-1.465,-1.425,-1.4004,-1.3701,-1.3047,0.0,-1.134,-1.1271,-1.1567,-1.223,-1.2715,-1.2886,-1.2621,-1.2856,-1.3812,-1.3743,-1.4316,-1.5782,-1.667,-1.7607,-1.8568,-1.9062,-1.9734,-2.0595,-2.0605,-2.0605,-2.0595,-2.0117,-1.9912,-1.9902,-1.9639,-1.9658,-1.9922,-2.0078,-2.0303,-2.0605,-2.0605,-2.0605,-2.0605,-2.0605,-2.084,-2.121,-2.1406,-2.1836,-2.2412,-2.2906,-2.3091,-2.3091,-2.3091,-2.3091,-2.3091,-2.3091,-2.3091,-2.3091,-2.3091,-2.3208,-2.3369,-2.3369,-2.3442,-2.3549,-2.3549,-2.3549,-2.3549,-2.3549,-2.3549,-2.3549,-2.3549,-2.3549,-2.3549,-2.3549,-2.3422,-2.3276,-2.312,-2.3091,-2.3091,-2.3091,-2.3091,-2.3091,-2.3091,-2.3091,-2.3091,-2.3091,-2.3091,-2.3091,-2.3091,-2.2677,-2.212,-2.1337,-1.9716,-1.8503,-1.7738,-1.6433,-1.5784,-1.5784,-1.5784,-1.5732,-1.5551,-1.5551,-1.5291]},{"header":{"parameterUnit":"m.s-1","parameterCategory":1,"la1":30.6,"la2":29.2853,"lo1":-89.7004,"lo2":-87.6739,"dy":0.0162,"dx":0.0183,"nx":112,"ny":82,"refTime":"2026-02-26T12:00:00:Z","depth":0,"parameterNumber":3,"parameterNumberName":"V-component_of_WINDS"},"data":[0.0,0.0,0.0,0.0,0.0,0.0,0.0,0.0,0.0,0.0,0.0,0.0,0.0,0.0,0.0,0.0,0.0,0.0,0.0,0.0,0.0,0.0,0.0,0.0,0.0,0.0,0.0,0.0,0.0,0.0,0.0,0.0,0.0,0.0,0.0,0.0,0.0,0.0,0.0,0.0,0.0,0.0,0.0,0.0,0.0,0.0,0.0,0.0,0.0,0.0,0.0,0.0,0.0,0.0,0.0,0.0,0.0,0.0,0.0,0.0,0.0,0.0,0.0,0.0,0.0,0.0,0.0,0.0,0.0,0.0,0.0,0.0,0.0,0.0,0.0,0.0,0.0,0.0,0.0,0.0,0.0,0.0,0.0,0.0,0.0,0.0,0.0,0.0,0.0,0.0,1.1078,1.1427,1.2743,1.3592,1.3592,1.3675,1.3063,1.1498,0.0,0.0,0.0,0.0,0.0,0.0,0.0,0.0,0.0,0.0,0.0,0.0,0.0,0.0,0.0,0.0,0.0,0.0,0.0,0.0,0.0,0.0,0.0,0.0,0.0,0.0,0.0,0.0,0.0,0.0,0.0,0.0,0.0,0.0,0.0,0.0,0.0,0.0,0.0,0.0,0.0,0.0,0.0,0.0,0.0,0.0,0.0,0.0,0.0,0.0,0.0,0.0,0.0,0.0,0.0,0.0,0.0,0.0,0.0,0.0,0.0,0.0,0.0,0.0,0.0,0.0,0.0,0.0,0.0,0.0,0.0,0.0,0.0,0.0,0.0,0.0,0.0,0.0,0.0,0.0,0.0,0.0,0.0,0.0,0.0,0.0,0.0,0.0,0.0,0.0,0.0,0.0,0.0,0.0,0.0,0.0,0.0,0.0,0.0,0.0,0.0,0.0,0.0,0.0,1.1581,1.2914,1.3371,1.3592,1.3592,1.3208,1.2512,1.1464,0.0,0.0,0.0,0.0,0.0,0.0,0.0,0.0,0.0,0.0,0.0,0.0,0.0,0.0,0.0,0.0,0.0,0.0,0.0,0.0,0.0,0.0,0.0,0.0,0.0,0.0,0.0,0.0,0.0,0.0,0.0,0.0,0.0,0.0,0.0,0.0,0.0,0.0,0.0,0.0,0.0,0.0,0.0,0.0,0.0,0.0,0.0,0.0,0.0,0.0,0.0,0.0,0.0,0.0,0.0,0.0,0.0,0.0,0.0,0.0,0.0,0.0,0.0,0.0,0.0,0.0,0.0,0.0,0.0,0.0,0.0,0.0,0.0,0.0,0.0,0.0,0.0,0.0,0.0,0.0,0.0,0.0,0.0,0.0,0.0,0.0,0.0,0.0,0.0,0.0,0.0,0.0,0.0,0.0,0.0,0.0,0.0,0.0,0.0,0.0,0.0,0.0,0.0,1.0951,1.1695,1.3244,1.3611,1.3714,1.3617,1.3676,1.3052,1.1494,1.1504,0.0,0.0,0.0,0.0,0.0,0.0,0.0,0.0,0.0,0.0,0.0,0.0,0.0,0.0,0.0,0.0,0.0,0.0,0.0,0.0,0.0,0.0,0.0,0.0,0.0,0.0,0.0,0.0,0.0,0.0,0.0,0.0,0.0,0.0,0.0,0.0,0.0,0.0,0.0,0.0,0.0,0.0,0.0,0.0,0.0,0.0,0.0,0.0,0.0,0.0,0.0,0.0,0.0,0.0,0.0,0.0,0.0,0.0,0.0,0.0,0.0,0.0,0.0,0.0,0.0,0.0,0.0,0.0,0.0,0.0,0.0,0.0,0.0,0.0,0.0,0.0,0.0,0.0,0.0,0.0,0.0,0.0,0.0,0.0,0.0,0.0,0.0,0.0,0.0,0.0,0.0,0.0,0.0,0.0,0.0,0.0,0.0,0.0,0.0,0.0,0.0,0.0,1.1664,1.1955,1.3318,1.3764,1.3913,1.3743,1.4039,1.3447,1.1635,1.1487,0.0,0.0,0.0,0.0,0.0,0.0,0.0,0.0,0.0,0.0,0.0,0.0,0.0,0.0,0.0,0.0,0.0,0.0,0.0,0.0,0.0,0.0,0.0,0.0,0.0,0.0,0.0,0.0,0.0,0.0,0.0,0.0,0.0,0.0,0.0,0.0,0.0,0.0,0.0,0.0,0.0,0.0,0.0,0.0,0.0,0.0,0.0,0.0,0.0,0.0,0.0,0.0,0.0,0.0,0.0,0.0,0.0,0.0,0.0,0.0,0.0,0.0,0.0,0.0,0.0,0.0,0.0,0.0,0.0,0.0,0.0,0.0,0.0,0.0,0.0,0.0,0.0,0.0,0.0,0.0,0.0,0.0,0.0,0.0,0.0,0.0,0.0,0.0,0.0,0.0,0.0,0.0,0.0,0.0,0.0,0.0,0.0,0.0,0.0,0.0,0.0,0.0,1.1905,1.2736,1.3592,1.3984,1.4169,1.4162,1.3682,1.2952,1.1936,1.1175,0.0,0.0,0.0,0.0,0.0,0.0,0.0,0.0,0.0,0.0,0.0,0.0,0.0,0.0,0.0,0.0,0.0,0.0,0.0,0.0,0.0,0.0,0.0,0.0,0.0,0.0,0.0,0.0,0.0,0.0,0.0,0.0,0.0,0.0,0.0,0.0,0.0,0.0,0.0,0.0,0.0,0.0,0.0,0.0,0.0,0.0,0.0,0.0,0.0,0.0,0.0,0.0,0.0,0.0,0.0,0.0,0.0,0.0,0.0,0.0,0.0,0.0,0.0,0.0,0.0,0.0,0.0,0.0,0.0,0.0,0.0,0.0,0.0,0.0,0.0,0.0,0.0,0.0,0.0,0.0,0.0,0.0,0.0,0.0,0.0,0.0,0.0,0.0,0.0,0.0,0.0,0.0,0.0,0.0,0.0,0.0,0.0,0.0,0.0,0.0,0.0,0.0,1.1846,1.2675,1.3435,1.3696,1.3834,1.3834,1.3842,1.3209,1.1671,0.0,0.0,0.0,0.0,0.0,0.0,0.0,0.0,0.0,0.0,0.0,0.0,0.0,0.0,0.0,0.0,0.0,0.0,0.0,0.0,0.0,0.0,0.0,0.0,0.0,0.0,0.0,0.0,0.0,0.0,0.0,0.0,0.0,0.0,0.0,0.0,0.0,0.0,0.0,0.0,0.0,0.0,0.0,0.0,0.0,0.0,0.0,0.0,0.0,0.0,0.0,0.0,0.0,0.0,0.0,0.0,0.0,0.0,0.0,0.0,0.0,0.0,0.0,0.0,0.0,0.0,0.0,0.0,0.0,0.0,0.0,0.0,0.0,0.0,0.0,0.0,0.0,0.0,0.0,0.0,0.0,0.0,0.0,0.0,0.0,0.0,0.0,0.0,0.0,0.0,0.0,0.0,0.0,0.0,0.0,0.0,0.0,0.0,0.0,0.0,0.0,0.0,1.1035,1.2035,1.2823,1.3078,1.3293,1.3317,1.3078,1.3129,1.2597,1.1253,0.0,0.0,0.0,0.0,0.0,0.0,0.0,0.0,0.0,0.0,0.0,0.0,0.0,0.0,0.0,0.0,0.0,0.0,0.0,0.0,0.0,0.0,0.0,0.0,0.0,0.0,0.0,0.0,0.0,0.0,0.0,0.0,0.0,0.0,0.0,0.0,0.0,0.0,0.0,0.0,0.0,0.0,0.0,0.0,0.0,0.0,0.0,0.0,0.0,0.0,0.0,0.0,0.0,0.0,0.0,0.0,0.0,0.0,0.0,0.0,0.0,0.0,0.0,0.0,0.0,0.0,0.0,0.0,0.0,0.0,0.0,0.0,0.0,0.0,0.0,0.0,0.0,0.0,0.0,0.0,0.0,0.0,0.0,0.0,0.0,0.0,0.0,0.0,0.0,0.0,0.0,0.0,0.0,0.0,0.0,0.0,0.0,0.0,0.0,0.0,0.0,0.0,1.1086,1.253,1.3298,1.256,1.279,1.2685,1.1965,1.1292,1.0845,0.0,0.0,0.0,0.0,0.0,0.0,0.0,0.0,0.0,0.0,0.0,0.0,0.0,0.0,0.0,0.0,0.0,0.0,0.0,0.0,0.0,0.0,0.0,0.0,0.0,0.0,0.0,0.0,0.0,0.0,0.0,0.0,0.0,0.0,0.0,0.0,0.0,0.0,0.0,0.0,0.0,0.0,0.0,0.0,0.0,0.0,0.0,0.0,0.0,0.0,0.0,0.0,0.0,0.0,0.0,0.0,0.0,0.0,0.0,0.0,0.0,0.0,0.0,0.0,0.0,0.0,0.0,0.0,0.0,0.0,0.0,0.0,0.0,0.0,0.0,0.0,0.0,0.0,0.0,0.0,0.0,0.0,0.0,0.0,0.0,0.0,0.0,0.0,0.0,0.0,0.0,0.0,0.0,0.0,0.0,0.0,0.0,0.0,0.0,0.0,0.0,0.0,0.0,1.0328,1.1219,1.1748,1.1544,1.1596,1.1636,1.1552,1.1457,1.1155,1.0586,0.0,0.0,0.0,0.0,0.0,0.0,0.0,0.0,0.0,0.0,0.0,0.0,0.0,0.0,0.0,0.0,0.0,0.0,0.0,0.0,0.0,0.0,0.0,0.0,0.0,0.0,0.0,0.0,0.0,0.0,0.0,0.0,0.0,0.0,0.0,0.0,0.0,0.0,0.0,0.0,0.0,0.0,0.0,0.0,0.0,0.0,0.0,0.0,0.0,0.0,0.0,0.0,0.0,0.0,0.0,0.0,0.0,0.0,0.0,0.0,0.0,0.0,0.0,0.0,0.0,0.0,0.0,0.0,0.0,0.0,0.0,0.0,0.0,0.0,0.0,0.0,0.0,0.0,0.0,0.0,0.0,0.0,0.0,0.0,0.0,0.0,0.0,0.0,0.0,0.0,0.0,0.0,0.0,0.0,0.0,0.0,0.0,0.0,0.0,0.0,0.0,0.0,1.0001,1.092,1.1458,1.113,1.1151,1.1103,1.0938,1.0772,1.049,1.0044,0.0,0.0,0.0,0.0,0.0,0.0,0.0,0.0,0.0,0.0,0.0,0.0,0.0,0.0,0.0,0.0,0.0,0.0,0.0,0.0,0.0,0.0,0.0,0.0,0.0,0.0,0.0,0.0,0.0,0.0,0.0,0.0,0.0,0.0,0.0,0.0,0.0,0.0,0.0,0.0,0.0,0.0,0.0,0.0,0.0,0.0,0.0,0.0,0.0,0.0,0.0,0.0,0.0,0.0,0.0,0.0,0.0,0.0,0.0,0.0,0.0,0.0,0.0,0.0,0.0,0.0,0.0,0.0,0.0,0.0,0.0,0.0,0.0,0.0,0.0,0.0,0.0,0.0,0.0,0.0,0.0,0.0,0.0,0.0,0.0,0.0,0.0,0.0,0.0,0.0,0.0,0.0,0.0,0.0,0.0,0.0,0.0,0.0,0.0,0.0,0.0,0.0,0.9984,1.1224,1.1823,1.1164,1.1202,1.099,1.0232,0.9704,0.9333,0.9187,0.0,0.0,0.0,0.0,0.0,0.0,0.0,0.0,0.0,0.0,0.0,0.0,0.0,0.0,0.0,0.0,0.0,0.0,0.0,0.0,0.0,0.0,0.0,0.0,0.0,0.0,0.0,0.0,0.0,0.0,0.0,0.0,0.0,0.0,0.0,0.0,0.0,0.0,0.0,0.0,0.0,0.0,0.0,0.0,0.0,0.0,0.0,0.0,0.0,0.0,0.0,0.0,0.0,0.0,0.0,0.0,0.0,0.0,0.0,0.0,1.1959,1.1316,0.0,0.0,0.0,0.0,0.0,0.0,0.0,0.0,0.0,0.0,0.0,0.0,0.0,0.0,0.0,0.0,0.0,0.0,0.0,0.0,0.0,0.0,0.0,0.0,0.0,0.0,0.0,0.0,0.0,0.0,0.0,0.0,0.0,0.0,0.0,0.0,0.0,0.0,0.0,0.0,0.9916,1.0294,1.0649,1.1069,1.1131,1.0839,1.0102,1.0117,0.9623,0.835,0.8901,0.0,0.0,0.0,0.0,0.0,0.0,0.0,0.0,0.0,0.0,0.0,0.0,0.0,0.0,0.0,0.0,0.0,0.0,0.0,0.0,0.0,0.0,0.0,0.0,0.0,0.0,0.0,0.0,0.0,0.0,0.0,0.0,0.0,0.0,0.0,0.0,0.0,0.0,0.0,0.0,0.0,0.0,0.0,0.0,0.0,0.0,0.0,0.0,0.0,0.0,0.0,0.0,0.0,0.0,0.0,0.0,0.0,0.0,0.0,1.4039,1.3176,0.0,0.0,0.0,0.0,0.0,0.0,0.0,0.0,0.0,0.0,0.0,0.0,0.0,0.0,0.0,0.0,0.0,0.0,0.0,0.0,0.0,0.0,0.0,0.0,0.0,0.0,0.0,0.0,0.0,0.0,0.0,0.0,0.0,0.0,0.0,0.0,0.0,0.0,0.0,0.0,0.9906,1.0311,1.0818,1.1586,1.1671,1.1519,1.114,1.0548,0.9898,0.9199,0.8814,0.0,0.0,0.0,0.0,0.0,0.0,0.0,0.0,0.0,0.0,0.0,0.0,0.0,0.0,0.0,0.0,0.0,0.0,0.0,0.0,0.0,0.0,0.0,0.0,0.0,0.0,0.0,0.0,0.0,0.0,0.0,0.0,0.0,0.0,0.0,0.0,0.0,0.0,0.0,0.0,0.0,0.0,0.0,0.0,0.0,0.0,0.0,0.0,0.0,0.0,0.0,0.0,0.0,1.6238,1.6988,1.8189,1.8189,1.8577,1.9147,1.6583,1.5653,1.5883,1.4522,0.0,0.0,0.0,0.0,0.0,0.0,0.0,0.0,0.0,0.0,0.0,0.0,0.0,0.0,0.0,0.0,0.0,0.0,0.0,0.0,0.0,0.0,1.1654,1.1526,1.1509,1.1171,0.9941,0.0,0.0,0.0,0.0,0.0,0.0,0.0,0.0,0.0,0.0,0.0,1.0092,1.0859,1.1603,1.2398,1.2483,1.2432,1.2314,1.1032,1.0206,1.0138,0.8853,0.7909,0.0,0.0,0.0,0.0,0.0,0.0,0.0,0.0,0.0,0.0,0.0,0.0,0.0,0.0,0.0,0.0,0.0,0.0,0.0,0.0,0.0,0.0,0.0,0.0,0.0,0.0,0.0,0.0,0.0,0.0,0.0,0.0,1.0269,1.1582,0.0,0.0,0.0,0.0,0.0,0.0,0.0,0.0,0.0,0.0,0.0,0.0,0.0,1.5781,1.7056,1.7811,1.7946,1.7529,1.8814,1.9512,1.9714,1.9714,2.0132,2.0835,1.9744,0.0,1.7445,1.6604,0.0,0.0,0.0,0.0,0.0,0.0,0.0,0.0,0.0,0.0,0.0,0.0,0.0,0.0,0.0,0.0,0.0,0.0,0.0,0.0,0.0,0.0,1.3895,1.3252,1.3108,1.3041,1.2854,1.1831,1.0741,0.999,0.9933,0.9967,0.0,0.0,0.0,0.0,0.0,0.0,1.0859,1.1654,1.244,1.3176,1.3261,1.2999,1.2348,1.1589,1.0545,0.9174,0.8991,0.8639,0.7931,0.7935,0.0,0.0,0.0,0.0,0.0,0.0,0.0,0.0,0.0,0.0,0.0,0.0,0.0,0.0,0.0,0.0,0.0,0.0,0.0,0.0,0.0,0.0,0.0,0.0,0.0,0.0,0.0,0.0,0.0,1.0996,1.2274,1.3294,1.3168,1.3109,0.0,0.0,0.0,0.0,0.0,0.0,0.0,0.0,0.0,1.6796,1.7236,1.7963,1.9034,1.9807,2.0463,2.0957,2.1586,2.2141,2.253,2.253,2.273,2.3035,2.2665,2.1921,2.0788,1.877,1.7365,1.6451,0.0,0.0,0.0,0.0,1.596,1.547,1.7056,1.6836,1.5798,1.5385,0.0,0.0,0.0,0.0,0.0,0.0,0.0,1.5037,1.4725,1.4885,1.5037,1.4708,1.464,1.464,1.464,1.4116,1.3159,1.1603,1.1637,1.1637,1.0775,1.0358,0.0,0.0,0.0,1.0893,1.1671,1.2077,1.2584,1.3328,1.3396,1.3278,1.2948,1.2273,1.1404,1.0315,0.9492,0.8744,0.8084,0.8079,0.7915,0.0,0.0,0.0,0.0,0.0,0.0,0.0,0.0,0.0,0.0,0.0,0.0,0.0,0.0,0.0,0.0,0.0,0.0,0.0,0.0,0.0,0.0,0.0,0.0,0.0,0.0,0.0,0.0,1.2521,1.3907,1.4799,1.5172,1.5197,0.0,0.0,0.0,0.0,0.0,0.0,1.6373,1.7134,1.798,1.8915,1.9672,2.0416,2.1147,2.1749,2.2595,2.3678,2.3678,2.4068,2.4778,2.4592,2.4609,2.4778,2.4575,2.4186,2.3492,2.1042,1.9705,1.913,1.8577,1.7794,1.7162,1.864,1.8488,1.7811,1.9659,1.9456,1.8273,1.7726,1.7061,1.6238,1.5131,0.0,0.0,0.0,0.0,1.6728,1.6728,1.6728,1.6728,1.6728,1.6576,1.6441,1.6441,1.6306,1.5511,1.3295,1.332,1.3252,1.1915,1.1526,0.0,1.1408,1.1577,1.1848,1.2246,1.2635,1.299,1.3362,1.3396,1.3396,1.3396,1.2728,1.2096,1.1596,1.0133,0.9104,0.8657,0.8321,0.7994,0.7666,0.0,0.0,0.0,0.0,0.0,0.0,0.0,0.0,0.0,0.0,0.0,0.0,0.0,0.0,0.0,0.0,0.0,0.0,0.0,0.0,0.0,0.0,0.0,0.0,0.0,0.0,0.0,0.0,0.0,1.5866,1.697,0.0,0.0,0.0,0.0,1.658,1.7185,1.7918,1.8691,1.9439,2.0521,2.2026,2.2784,2.3526,2.4271,2.4305,2.4372,2.444,2.444,2.4829,2.5524,2.4829,2.488,2.5507,2.4795,2.4474,2.4372,2.3526,2.189,1.9934,1.99,1.9017,1.7918,1.9406,1.99,1.9963,2.0852,2.0585,1.9883,1.9849,1.935,1.8724,1.8652,1.864,0.0,0.0,1.9237,1.9782,1.9782,1.9782,1.9782,1.9782,1.9237,1.8736,1.8736,1.8183,1.7039,1.4825,1.4419,1.4199,1.3422,0.0,1.2246,1.2246,1.2846,1.3057,1.2381,1.3523,1.4141,1.3481,1.3396,1.3396,1.3396,1.2728,1.2288,1.2254,1.0925,1.0135,1.0106,0.8939,0.8571,0.9175,0.8682,0.0,0.0,0.0,0.0,0.0,0.0,0.0,0.0,0.0,0.0,0.0,0.0,0.0,0.0,0.0,0.0,0.0,0.0,0.0,0.0,0.0,0.0,0.0,0.0,0.0,0.0,0.0,0.0,1.8051,1.8587,0.0,1.81,1.8329,1.8809,1.9532,1.9367,1.9963,2.1701,2.2057,2.2665,2.3678,2.3966,2.4474,2.5203,2.5203,2.5439,2.5929,2.5929,2.6065,2.6302,2.6048,2.6048,2.6285,2.6015,2.5929,2.5912,2.5625,2.4491,2.2902,2.2902,2.2276,2.1532,2.253,2.2598,2.231,2.3052,2.2513,2.1316,2.0322,1.9816,1.9693,2.0213,2.0378,2.0378,2.0378,2.0581,2.0653,2.012,2.0002,2.0002,2.0002,1.9811,1.9608,1.9608,1.9406,1.8848,1.7591,1.6559,1.569,1.4945,1.4606,1.4411,1.4411,1.4657,1.4725,1.4462,1.4885,1.5105,1.4843,1.4394,1.4107,1.4107,1.3439,1.2575,1.1586,1.106,1.0344,0.9407,0.9009,0.8688,0.8396,0.8388,0.82,0.0,0.0,0.0,0.0,0.0,0.0,0.0,0.0,0.0,0.0,0.0,0.0,0.0,0.0,0.0,0.0,0.0,0.0,0.0,0.0,0.0,0.0,0.0,0.0,0.0,1.6668,1.8276,1.9179,2.0214,2.0566,1.9815,2.0395,2.1106,2.1884,2.1499,2.1915,2.342,2.3738,2.409,2.4592,2.5258,2.5845,2.6336,2.6607,2.686,2.708,2.708,2.6945,2.6691,2.6691,2.6691,2.6691,2.6691,2.6691,2.6691,2.6691,2.6132,2.5218,2.4982,2.4423,2.3831,2.4321,2.4186,2.3848,2.4321,2.3864,2.2868,2.1854,2.1532,2.1617,2.2155,2.2307,2.2257,2.202,2.1935,2.1752,2.0978,2.0792,2.0792,2.0792,2.0589,2.0403,2.0403,2.02,1.9849,1.9372,1.8279,1.7128,1.6147,1.5977,1.5977,1.5977,1.5977,1.5977,1.5977,1.5977,1.5876,1.5629,1.5155,1.4774,1.452,1.4276,1.3489,1.1966,1.1664,1.0964,0.9687,0.9582,0.926,0.8688,0.8931,0.8945,0.8658,0.0,0.0,0.0,0.0,0.0,0.0,0.0,0.0,0.0,0.0,0.0,0.0,0.0,0.0,0.0,0.0,0.0,0.0,0.0,0.0,0.0,0.0,0.0,1.5071,1.7636,1.9384,1.9233,2.1856,2.2834,2.0692,2.2891,2.4174,2.3467,2.3618,2.3753,2.3802,2.4493,2.4905,2.4938,2.6821,2.7841,2.7841,2.8586,2.8569,2.7807,2.779,2.7384,2.6691,2.6691,2.6691,2.6691,2.6691,2.6691,2.6691,2.6691,2.6708,2.6657,2.593,2.5203,2.4558,2.4558,2.4558,2.4558,2.4541,2.4525,2.4525,2.4508,2.4491,2.4491,2.4491,2.4491,2.4355,2.3644,2.3427,2.3257,2.253,2.233,2.233,2.2296,2.1752,2.1224,2.1224,2.0606,2.0052,2.0035,1.9456,1.8499,1.701,1.6766,1.6766,1.6749,1.6733,0.0,1.6733,1.6733,1.6468,1.5781,1.568,1.5375,1.4656,1.5223,1.4979,1.3498,1.2743,1.1972,1.1137,1.0649,1.0336,1.0204,1.0456,1.0182,0.939,0.0,0.0,0.0,0.0,0.0,0.0,0.0,0.0,0.0,0.0,0.0,0.0,0.0,0.0,0.0,0.0,0.0,0.0,0.0,0.0,0.0,1.6397,1.7638,1.8115,1.9563,2.0924,2.1887,2.2751,2.3035,2.2421,2.299,2.3544,2.387,2.4406,2.5146,2.6107,2.6831,2.7396,2.7831,2.8379,2.867,2.867,2.8315,2.801,2.779,2.7249,2.6894,2.6691,2.6691,2.6691,2.6691,2.6691,2.6691,2.6691,2.6691,2.7012,2.7418,2.6691,2.6268,2.6099,2.6099,2.6099,2.6031,2.5473,2.5304,2.5203,2.4677,2.4491,2.4491,2.4491,2.4491,2.4457,2.4254,2.4203,2.4034,2.3291,2.3105,2.297,2.2431,2.2158,2.2006,2.2006,2.1823,2.1502,2.0974,2.0716,2.009,1.8567,1.8296,1.811,1.7574,1.7507,1.7507,1.7507,1.7507,1.7625,1.7963,1.7507,1.7107,1.6904,1.6103,1.4979,1.3498,1.219,1.1358,1.112,1.0457,1.0138,1.0204,1.0273,0.994,0.0,0.0,0.0,0.0,0.0,0.0,0.0,0.0,0.0,0.0,0.0,0.0,0.0,0.0,0.0,0.0,0.0,0.0,0.0,0.0,0.0,0.0,1.821,1.9602,2.0978,2.1479,2.2033,2.2845,2.361,2.4071,2.4071,2.449,2.4939,2.5376,2.5555,2.5986,2.6768,2.7169,2.766,2.8268,2.8815,2.9057,2.901,2.8839,2.8432,2.779,2.7385,2.6996,2.6691,2.6691,2.6691,2.6691,2.6691,2.6691,2.6691,2.6691,2.7131,2.7722,0.0,0.0,0.0,0.0,2.6691,2.664,2.6201,2.6065,2.5998,2.5557,2.5422,2.5422,2.5422,2.5422,2.5354,2.5049,2.4965,2.4795,2.4051,2.3864,2.3763,2.3325,2.2987,2.2767,2.2767,2.2516,2.2161,2.1735,2.1651,0.0,2.0073,1.957,1.9232,1.8797,1.8459,1.8268,1.8268,1.7986,1.7952,1.8386,1.8065,1.7665,1.7371,1.6847,0.0,0.0,0.0,1.2246,1.162,1.119,0.0,0.0,0.0,0.0,0.0,0.0,0.0,0.0,0.8869,0.9221,0.0,0.0,0.0,0.0,0.0,0.0,0.0,0.0,0.0,0.0,0.0,0.0,0.0,0.0,0.0,0.0,1.9723,2.1011,2.3475,2.3355,2.3053,2.3101,2.4539,2.5503,2.5503,2.6434,2.7031,2.7031,2.6638,2.6456,2.6507,2.6585,0.0,0.0,0.0,2.9049,2.8928,2.9433,2.8977,2.7631,2.7547,2.7161,2.6522,2.659,2.6624,2.6624,2.6674,2.6691,2.6691,2.6691,2.7097,2.7621,2.7148,2.73,2.7739,2.7165,2.6962,2.6962,2.6962,0.0,0.0,2.6826,2.6759,2.6691,2.6691,2.6691,2.6556,2.5913,2.5711,2.5558,2.4829,2.4626,2.4609,2.4508,2.4,2.3494,2.341,2.2885,2.2398,2.2313,2.2296,2.2076,2.1444,2.067,2.0086,2.0002,1.9439,1.9012,1.9012,1.8386,1.7952,1.8036,1.7969,0.0,1.6993,1.7473,1.6921,1.4875,1.4673,1.3996,1.2618,1.2551,1.2829,1.3396,1.3688,1.3364,1.2385,1.2851,1.2668,1.1854,1.1265,1.1384,0.0,0.0,0.0,0.0,0.0,0.0,0.0,0.0,0.0,0.0,0.0,0.0,0.0,0.0,0.0,2.1535,2.2428,2.34,2.5001,2.5121,2.5191,2.563,2.5978,2.6214,2.6214,2.6024,2.5909,2.5909,2.6316,2.6768,2.7256,2.7814,2.8365,2.8968,2.871,2.8532,2.8528,2.7539,2.6886,2.6575,2.5991,0.0,2.5489,2.5943,2.6138,2.6156,2.6539,2.6691,2.6691,2.6691,2.6776,2.7012,2.813,2.8247,2.7858,2.8366,2.8553,2.8553,2.8553,2.8129,2.7587,2.7587,2.7182,2.6691,2.6691,2.6691,0.0,2.6522,2.6488,2.6319,2.5575,2.5389,2.5236,2.4643,2.4389,2.4118,2.3528,2.3291,2.3004,2.2429,2.2296,2.2245,2.2124,2.1465,2.0737,2.0086,1.9879,1.9794,1.9794,1.9135,1.8927,1.9512,1.9034,1.8623,1.8499,1.8065,1.7371,1.6333,1.5723,1.4986,1.4115,1.4064,1.387,1.3413,1.3462,1.3112,1.2318,1.3106,1.3717,1.4125,1.2418,1.1716,0.0,0.0,0.0,0.0,0.0,0.0,0.0,0.0,0.0,0.0,0.0,1.6742,1.8401,0.0,2.159,2.2921,2.3969,2.4956,2.5959,2.6093,2.6092,2.6024,2.629,2.6488,2.6488,2.6561,2.6587,2.6587,2.6926,2.7238,2.7548,2.7564,2.7835,2.843,2.7804,2.7418,2.7341,2.6651,2.6102,2.575,2.5378,2.5202,2.5221,2.5484,2.5596,2.5615,2.5854,2.5946,2.5997,2.6644,2.6683,2.6517,2.8311,2.8501,2.7908,2.8687,2.8993,2.8993,2.8993,2.8756,2.8399,2.8399,2.8146,2.7859,2.7859,2.7571,2.7249,2.7249,2.6979,2.6607,2.6251,2.615,2.6065,2.5692,2.532,2.4949,2.4577,2.4205,2.3729,2.2987,2.2852,2.2719,2.2347,2.1989,2.1481,2.072,2.0602,2.0454,2.0052,1.9676,1.9592,1.9951,1.935,1.8894,1.8894,1.7879,1.7094,1.6733,1.6011,1.5426,1.5071,1.5054,1.4885,1.4505,1.4596,1.4425,1.3954,1.4487,1.4908,1.5171,1.4276,1.3906,0.0,0.0,0.0,0.0,0.0,0.0,0.0,1.4453,1.5262,1.7773,1.8805,1.966,2.0872,2.2577,2.3879,2.4133,2.5091,2.6033,2.6692,2.6782,2.6587,2.6048,2.6452,2.6782,2.6782,2.7285,2.76,2.76,2.76,2.76,2.76,2.6971,2.6823,2.7296,2.6656,2.6259,2.6176,2.6161,2.5876,2.5282,2.5282,2.5282,2.5266,2.5401,2.5425,2.5425,2.5416,2.531,2.5288,2.6419,2.6541,2.6181,2.7945,2.824,2.7784,2.882,2.9213,2.923,2.9382,2.9331,2.9213,2.9213,2.9128,2.8993,2.8993,2.8552,2.8027,2.8027,2.7604,2.7114,2.6945,2.6911,2.6877,2.6725,2.6251,2.5761,2.5626,2.5118,2.4508,2.3763,2.3613,2.3376,2.2634,2.2499,2.226,2.1529,2.141,2.1177,2.0538,2.0318,2.0234,2.0234,1.9558,1.9113,1.9113,1.789,1.7128,1.7128,1.6451,1.6035,1.6035,1.5883,1.5798,1.5798,1.5974,1.5984,1.5808,1.6111,1.6197,1.6018,1.6179,1.6224,1.7758,1.6129,1.5022,1.592,1.5352,1.55,0.0,1.8491,1.7848,1.9941,2.0902,2.1575,2.2343,2.358,2.4874,2.6063,2.6378,2.6707,2.739,2.748,2.7465,2.739,2.7435,2.748,2.748,2.7555,2.76,2.76,2.76,2.76,2.76,2.6971,2.6636,2.6708,2.6062,2.5694,2.5689,2.5689,2.5635,2.556,2.556,2.556,2.5568,2.605,2.6255,2.6268,2.6129,2.5751,2.524,2.5879,2.6061,2.6096,2.6976,2.7259,2.7415,2.9299,2.9989,3.0074,3.0717,3.0531,2.9989,2.9989,2.9533,2.8993,2.8993,2.8942,2.8874,2.8874,2.8807,2.8587,2.7858,2.7672,2.7503,2.686,2.664,2.6404,2.5728,2.5541,2.527,2.4525,2.4372,2.4135,2.3393,2.3274,2.3021,2.2293,2.2192,2.2144,2.2043,2.1465,2.1072,2.1072,2.0352,1.9879,1.9879,1.913,1.8652,1.8652,1.7963,1.7546,1.7546,1.6925,1.658,1.658,1.6601,1.6601,1.658,1.7258,1.7579,1.7546,1.7579,1.6993,1.9702,1.8568,1.7685,1.7833,1.776,1.809,1.9735,2.0079,2.0483,2.2069,2.2921,2.3588,2.4268,2.5136,2.5959,2.6497,2.6941,2.7285,2.7555,2.76,2.745,2.7061,2.736,2.76,2.76,2.76,2.76,2.76,2.76,2.76,2.76,2.6971,2.6587,2.6587,2.5959,2.5615,2.5615,2.5615,2.5615,2.5615,2.5615,2.5615,2.5615,2.5817,2.5932,2.594,2.5877,2.5681,2.5469,2.6005,2.6232,2.6284,2.6929,2.692,2.6776,2.8409,2.8793,2.8679,2.9683,2.9865,2.9699,3.0096,3.0244,3.0296,3.0296,2.9973,2.9634,2.9634,2.9331,2.8925,2.8586,2.8501,2.8298,2.7519,2.7334,2.7131,2.6404,2.6234,2.6015,2.527,2.5135,2.4898,2.4169,2.4051,2.3797,2.3054,2.2567,2.2296,2.2296,2.204,2.1681,2.1241,2.0903,2.0517,2.0035,1.9727,1.9541,1.9541,1.9253,1.9072,1.9072,1.878,1.8623,1.8623,1.82,1.8183,1.8623,1.8504,1.8662,1.9072,1.9072,1.8794,2.0557,1.9929,1.9435,1.951,1.9884,2.0397,2.0917,2.1799,2.2772,2.3699,2.4395,2.4963,2.5262,2.6019,2.6587,2.6587,2.7165,2.76,2.76,2.7435,2.7151,2.6647,2.6881,2.7121,2.73,2.748,2.76,2.76,2.76,2.76,2.76,2.6971,2.6587,2.6587,2.6123,2.5884,2.5884,2.6063,2.6153,2.6153,2.6153,2.6153,2.6153,2.6153,2.6048,2.5884,2.5884,2.5779,2.5646,2.619,2.6399,2.6444,2.6838,2.6672,2.6376,2.7365,2.7685,2.7802,2.9019,2.9596,2.9902,3.0393,3.0838,3.119,3.119,3.0835,3.0412,3.0412,3.0006,2.9568,2.9365,2.9314,2.911,2.8332,2.8128,2.7908,2.7165,2.6996,2.6793,2.6048,2.5913,2.5676,2.4931,2.4795,2.4558,2.3799,2.3241,2.2767,2.2347,2.2296,2.2107,2.1563,2.1512,2.1262,2.069,2.0454,2.0335,2.0335,2.0132,2.0002,2.0002,2.0002,2.0002,2.0002,1.9473,1.9473,2.0002,1.9456,1.9473,2.0002,2.0002,2.0002,1.9738,1.9226,1.9196,2.1126,2.162,2.2128,2.4022,2.4485,2.453,2.4575,2.5098,2.5367,2.4754,2.5719,2.6587,2.6587,2.7165,2.76,2.76,2.7046,2.6617,2.6587,2.6048,2.5914,2.6581,2.7225,2.76,2.76,2.76,2.76,2.76,2.6971,2.6587,2.6587,2.6572,2.6557,2.6557,2.721,2.754,2.754,2.754,2.754,2.754,2.754,2.718,2.6557,2.6557,2.6198,2.5646,2.619,2.6399,2.6399,2.6421,2.6406,2.639,2.6444,2.719,2.8351,2.9631,3.0545,3.1154,3.1171,3.119,3.119,3.119,3.1173,3.1157,3.1157,3.114,3.097,3.026,3.0074,2.9888,2.9145,2.8959,2.8756,2.7942,2.7773,2.7553,2.681,2.6657,2.642,2.5693,2.5575,2.5321,2.4575,2.444,2.3915,2.2482,2.2296,2.2279,2.2262,2.2262,2.2245,2.2229,2.1566,2.1156,2.1156,2.042,2.0002,2.0002,2.0002,2.0002,2.0002,1.9985,1.9985,2.0002,1.9985,1.9985,2.0002,2.0002,2.0002,2.0902,2.1205,2.171,2.3229,2.3618,2.3902,2.5008,2.5247,2.5247,2.5247,2.545,2.554,2.5315,2.5621,2.6078,2.6512,2.6806,2.7091,2.754,2.7405,2.6941,2.6033,2.6512,2.6686,2.6004,2.6527,2.7121,2.757,2.76,2.76,2.76,2.739,2.727,2.727,2.727,2.727,2.727,2.748,2.76,2.76,2.76,2.76,2.76,2.76,2.748,2.727,2.727,2.7151,2.6926,2.7106,2.7204,2.7204,2.7204,2.6931,2.6576,2.6942,2.7342,2.7799,2.8184,2.8494,2.8832,2.9269,2.9951,3.0601,3.0601,3.0878,3.119,3.119,3.119,3.114,3.0886,3.0835,3.0632,2.9905,2.9736,2.9516,2.8755,2.8602,2.8366,2.757,2.7418,2.7199,2.6454,2.6336,2.6082,2.5338,2.4812,2.4135,2.3156,2.3038,2.2852,2.2347,2.2296,2.2296,2.2296,2.206,2.1921,2.1921,2.1671,2.1536,2.1536,2.1536,2.1536,2.1536,2.1059,2.1042,2.1519,2.1042,2.1059,2.1536,2.1536,2.1536,2.2069,2.2682,2.3385,2.4941,2.5307,2.5495,2.6153,2.6123,2.5824,2.5337,2.5061,2.4762,2.4298,2.4403,2.4852,2.5749,2.6093,2.6557,2.7465,2.739,2.6926,2.6063,2.6497,2.6632,2.6019,2.6348,2.6881,2.754,2.76,2.76,2.76,2.76,2.76,2.76,2.76,2.76,2.76,2.76,2.76,2.76,2.76,2.76,2.76,2.76,2.76,2.76,2.76,2.76,2.76,2.76,2.76,2.76,2.76,2.7345,2.7005,2.7339,2.7491,2.754,2.7688,2.8068,2.8561,2.8998,2.9805,3.0617,3.0617,3.0898,3.119,3.119,3.119,3.119,3.119,3.119,3.1072,3.0615,3.0497,3.0294,2.955,2.9381,2.9161,2.8383,2.823,2.7994,2.7232,2.686,2.6539,2.6065,2.5592,2.4931,2.3932,2.3797,2.3613,2.3139,2.2852,2.2699,2.2699,2.2448,2.2296,2.2296,2.2296,2.2296,2.2296,2.2296,2.2296,2.2296,2.1837,2.1837,2.2296,2.182,2.1837,2.2296,2.2296,2.2296,2.3191,2.3729,2.4223,2.6153,2.6632,2.6821,2.7405,2.7001,2.6123,2.4769,2.3962,2.3116,2.1874,2.2224,2.3122,2.4395,2.5158,2.6063,2.7405,2.7061,2.6632,2.6632,2.6123,2.6004,2.6632,2.6722,2.7016,2.76,2.7615,2.76,2.76,2.76,2.76,2.76,2.76,2.76,2.76,2.76,2.76,2.76,2.76,2.76,2.76,2.76,2.76,2.76,2.76,2.76,2.76,2.76,2.76,2.76,2.76,2.76,2.76,2.76,2.76,2.767,2.811,2.9092,3.0166,3.0166,3.0559,3.1055,3.1112,3.1131,3.1151,3.119,3.119,3.119,3.119,3.119,3.119,3.119,3.119,3.1004,3.0311,3.0176,2.9939,2.9213,2.9027,2.8773,2.7993,2.7249,2.6759,2.6759,2.6725,2.6183,2.4745,2.4558,2.4541,2.4491,2.3881,2.346,2.346,2.2818,2.2398,2.2398,2.2398,2.2398,2.2347,2.2347,2.233,2.2296,2.2296,2.2296,2.2296,2.2296,2.2296,2.2296,2.2296,2.2296,2.4687,2.545,2.6063,2.7091,2.7345,2.727,2.6941,2.5959,2.4739,2.3445,2.2637,2.1934,2.1111,2.1904,2.3122,2.4395,2.5158,2.6063,2.7405,2.745,2.7345,2.7345,2.7634,2.7904,2.8068,2.8532,2.8708,2.8368,2.7884,2.76,2.76,2.76,2.76,2.76,2.76,2.76,2.76,2.76,2.76,2.76,2.76,2.76,2.76,2.76,2.76,2.76,2.76,2.76,2.76,2.76,2.76,2.76,2.76,2.76,2.76,2.76,2.76,2.762,2.7746,2.7996,2.828,2.828,2.8693,2.9271,2.9717,3.0166,3.0621,3.1075,3.119,3.119,3.119,3.119,3.119,3.119,3.119,3.114,3.0954,3.092,3.07,2.9956,2.9382,2.8942,2.8739,2.8044,2.7519,2.7519,2.7046,2.637,2.5439,2.5321,2.5101,2.4558,2.4321,2.422,2.422,2.4051,2.3949,2.3949,2.3949,2.3695,2.3139,2.3122,2.2868,2.2313,2.2296,2.2296,2.2296,2.2296,2.2296,2.2296,2.2296,2.2296,2.5749,2.6512,2.7136,2.751,2.7375,2.7001,2.6303,2.5136,2.3804,2.2517,2.1724,2.0976,2.0004,2.0917,2.2143,2.3155,2.435,2.563,2.6986,2.7675,2.8049,2.8049,2.8622,2.9026,2.9026,2.9101,2.8996,2.8622,2.8248,2.7914,2.7615,2.76,2.76,2.76,2.76,2.76,2.76,2.76,2.76,2.76,2.76,2.76,2.76,2.76,2.76,2.76,2.76,2.76,2.76,2.76,2.76,2.76,2.76,2.76,2.76,2.76,2.76,2.76,2.76,2.76,2.7635,2.791,2.8415,2.8966,2.9293,2.9629,2.9995,3.0314,3.0597,3.0818,3.0818,3.0995,3.119,3.119,3.119,3.119,3.119,3.119,3.1072,3.0666,2.9989,2.9482,2.9482,2.8839,2.8332,2.8332,2.7672,2.7029,2.6624,2.6285,2.5913,2.5506,2.5185,2.4983,2.4983,2.4694,2.4491,2.4491,2.4491,2.4305,2.3898,2.3881,2.3695,2.3274,2.3274,2.3105,2.2784,2.2784,2.2632,2.2296,2.2296,2.2296,2.6542,2.7165,2.76,2.76,2.7106,2.6393,2.5644,2.4448,2.3071,2.1605,2.0842,2.0015,1.867,1.9597,2.0857,2.168,2.3379,2.5098,2.6527,2.7814,2.8637,2.8727,2.931,2.9726,2.9726,2.919,2.8786,2.8607,2.8607,2.8308,2.763,2.76,2.76,2.76,2.76,2.76,2.76,2.76,2.76,2.76,2.76,2.76,2.76,2.76,2.76,2.76,2.76,2.76,2.76,2.76,2.76,2.76,2.76,2.76,2.76,2.76,2.76,2.76,2.76,2.76,2.7685,2.8213,2.8732,2.918,2.9248,2.9271,2.9293,2.9384,2.9783,3.0187,3.0272,3.0679,3.1095,3.1171,3.119,3.119,3.119,3.119,3.119,3.119,3.0683,3.026,3.026,2.9634,2.9145,2.9145,2.8467,2.7959,2.7959,2.7215,2.6691,2.6691,2.6133,2.5761,2.5761,2.5152,2.4795,2.4795,2.4795,2.4745,2.466,2.4643,2.4592,2.4491,2.4491,2.4186,2.3545,2.3545,2.3224,2.2584,2.2584,2.2584,2.724,2.751,2.76,2.76,2.7106,2.6273,2.5053,2.3789,2.2164,1.972,1.9136,1.8625,1.7294,1.8595,2.0471,2.2239,2.3699,2.5247,2.7165,2.8098,2.8801,2.934,2.9968,3.0342,3.0342,3.0238,2.9729,2.8682,2.8607,2.8308,2.763,2.76,2.76,2.76,2.76,2.76,2.76,2.76,2.76,2.76,2.76,2.76,2.76,2.76,2.76,2.76,2.76,2.76,2.76,2.76,2.76,2.76,2.76,2.76,2.76,2.76,2.76,2.76,2.76,2.76,2.7625,2.771,2.7835,2.8018,2.8511,2.8677,2.8756,2.9248,2.9473,2.9673,3.0166,3.0393,3.058,3.1075,3.119,3.119,3.119,3.119,3.119,3.119,3.1089,3.1004,3.1004,3.0395,2.9922,2.9922,2.9262,2.8807,2.8807,2.7571,2.6691,2.6691,2.659,2.6505,2.6505,2.6387,2.6319,2.6319,2.6319,2.6048,2.5439,2.5423,2.5118,2.4508,2.4491,2.444,2.4305,2.4305,2.4237,2.4118,2.4118,2.4118,2.742,2.76,2.76,2.76,2.6557,2.5315,2.4328,2.2547,2.0681,1.9046,1.8416,1.7983,1.7339,1.8583,2.0022,2.0981,2.2517,2.4178,2.5809,2.7215,2.8468,2.9487,3.0447,3.0896,3.0537,3.0223,2.9624,2.8667,2.8263,2.7944,2.7615,2.76,2.76,2.76,2.76,2.76,2.76,2.76,2.76,2.76,2.76,2.76,2.76,2.76,2.76,2.76,2.76,2.76,2.76,2.76,2.76,2.76,2.76,2.76,2.76,2.76,2.76,2.76,2.76,2.76,2.76,2.76,2.76,2.7635,2.7944,2.8042,2.8091,2.8376,2.8927,2.9473,2.9761,3.0293,3.0838,3.1131,3.119,3.119,3.119,3.119,3.119,3.119,3.119,3.119,3.119,3.0903,3.0666,3.0666,3.004,2.9567,2.9567,2.8586,2.774,2.7334,2.7283,2.7131,2.6725,2.6691,2.6691,2.6691,2.6691,2.6539,2.6184,2.6167,2.6015,2.5659,2.5642,2.5455,2.5067,2.5067,2.488,2.4491,2.4491,2.4491,2.742,2.76,2.757,2.742,2.5989,2.4395,2.3595,2.147,1.9465,1.8657,1.7953,1.7488,1.7488,1.8446,1.9405,1.9824,2.137,2.3026,2.459,2.6303,2.7944,2.9427,3.0612,3.1017,3.0372,2.9864,2.9277,2.8442,2.7899,2.76,2.76,2.76,2.76,2.76,2.76,2.76,2.76,2.76,2.76,2.76,2.76,2.76,2.76,2.76,2.76,2.76,2.76,2.76,2.76,2.76,2.76,2.76,2.76,2.76,2.76,2.76,2.76,2.76,2.76,2.76,2.76,2.76,2.76,2.76,2.76,2.76,2.76,2.76,2.828,2.9065,2.9339,3.0016,3.0679,3.0955,3.1112,3.119,3.119,3.119,3.119,3.119,3.119,3.119,3.119,3.119,3.119,3.119,3.0717,3.0345,3.0345,2.982,2.9179,2.8382,2.8145,2.7824,2.7232,2.7029,2.6945,2.6945,2.6793,2.6691,2.6691,2.6691,2.6691,2.6691,2.6691,2.6404,2.5845,2.5845,2.5541,2.4965,2.4965,2.4965,2.742,2.76,2.745,2.6826,2.5644,2.4276,2.3062,2.119,1.9348,1.8057,1.7264,1.6786,1.6786,1.7384,1.8491,2.0299,2.1276,2.2652,2.5166,2.6183,2.7435,2.9382,3.0178,3.0357,2.9729,2.9636,2.9082,2.7779,2.763,2.76,2.76,2.76,2.76,2.76,2.76,2.76,2.76,2.76,2.76,2.76,2.76,2.76,2.76,2.76,2.76,2.76,2.76,2.76,2.76,2.76,2.76,2.76,2.76,2.76,2.76,2.76,2.76,2.76,2.76,2.76,2.76,2.76,2.76,2.76,2.76,2.76,2.76,2.76,2.7685,2.8018,2.9111,2.9081,2.9019,3.0123,3.0797,3.119,3.119,3.119,3.119,3.119,3.119,3.119,3.119,3.119,3.119,3.119,3.114,3.1089,3.1089,3.1038,3.0717,2.9973,2.9279,2.8857,2.879,2.8129,2.7705,2.7705,2.708,2.6691,2.6691,2.6691,2.6691,2.6691,2.6691,2.6657,2.659,2.659,2.6556,2.6505,2.6505,2.6505,2.6692,2.7285,2.7435,2.6776,2.5285,2.3774,2.2897,2.0513,1.8341,1.7818,1.6876,1.6383,1.716,1.7189,1.7773,1.9765,1.9989,2.0677,2.2936,2.4133,2.5674,2.8109,2.9337,2.9849,2.9636,2.9606,2.9052,2.7705,2.76,2.76,2.76,2.76,2.76,2.76,2.76,2.76,2.76,2.8004,2.8188,2.8188,2.8188,2.8188,2.8173,2.7779,2.76,2.76,2.76,2.76,2.76,2.76,2.76,2.76,2.76,2.7854,2.8188,2.8188,2.8468,2.8798,2.8798,2.8798,2.8798,2.8798,2.8798,2.8663,2.7839,2.7884,2.8113,2.7705,2.786,2.8247,2.8732,2.9225,2.9783,3.0638,3.1035,3.119,3.119,3.119,3.119,3.119,3.119,3.119,3.119,3.119,3.119,3.119,3.119,3.119,3.119,3.119,3.1089,3.0784,3.0108,2.9482,2.9044,2.8722,2.8518,2.8518,2.7791,2.735,2.735,2.6945,2.6691,2.6691,2.6691,2.6691,2.6691,2.6691,2.6691,2.6691,2.6691,2.6691,2.5704,2.6497,2.6866,2.6183,2.4657,2.3182,2.2553,1.9959,1.7713,1.7713,1.6682,1.6188,1.7474,1.7309,1.7578,1.9408,1.9286,1.969,2.1695,2.2757,2.4335,2.6986,2.8139,2.8798,2.8992,2.9022,2.8708,2.7959,2.7705,2.76,2.76,2.76,2.76,2.76,2.76,2.76,2.76,2.8248,2.8607,2.8607,2.8801,2.8891,2.8876,2.8423,2.8079,2.7899,2.7899,2.7779,2.76,2.76,2.76,2.7615,2.7824,2.8173,2.8622,2.8816,2.919,2.9606,2.9606,2.9606,2.9606,2.9606,2.9726,2.9666,2.8528,2.8528,2.8786,2.8319,2.8474,2.875,2.8549,2.9406,3.0414,3.0838,3.1055,3.119,3.119,3.119,3.119,3.119,3.119,3.119,3.119,3.119,3.119,3.119,3.119,3.119,3.119,3.119,3.119,3.119,3.0734,3.0209,2.9687,2.9467,2.9331,2.9331,2.8383,2.7807,2.7807,2.7097,2.6793,2.7012,2.681,2.681,2.7029,2.681,2.6691,2.6691,2.6691,2.6691,2.444,2.5113,2.5457,2.4784,2.367,2.2538,2.1859,1.9627,1.7713,1.7713,1.6682,1.6188,1.7474,1.7682,1.8132,1.9483,1.9693,2.0397,2.2403,2.2703,2.3676,2.6288,2.6617,2.6896,2.7555,2.7615,2.7899,2.8547,2.7974,2.76,2.76,2.76,2.76,2.76,2.76,2.76,2.76,2.8248,2.8607,2.8607,2.9265,2.9592,2.9592,2.9592,2.9232,2.8592,2.8592,2.8203,2.76,2.76,2.76,2.766,2.8323,2.8592,2.8682,2.9325,2.9606,2.9606,2.9606,2.9606,2.9606,2.9606,2.9998,3.0372,2.9744,2.9592,2.9592,2.9592,2.954,2.9339,2.8673,2.9406,3.0293,3.0293,3.0777,3.119,3.119,3.119,3.119,3.119,3.119,3.119,3.119,3.119,3.119,3.119,3.119,3.119,3.119,3.119,3.119,3.119,3.119,3.119,3.1173,3.0514,3.0091,3.0091,2.8652,2.7807,2.7807,2.7097,2.7046,2.7773,2.708,2.7063,2.779,2.7063,2.6691,2.6691,2.6691,2.6691,2.3116,2.3759,2.4088,2.3445,2.2637,2.1829,2.1171,1.9298,1.7713,1.7713,1.6682,1.6054,1.6861,1.7025,1.7609,1.9405,1.9708,2.0247,2.1804,2.2778,2.4118,2.6333,2.8173,2.9011,2.8338,2.8278,2.8173,2.7944,2.772,2.76,2.76,2.76,2.76,2.76,2.76,2.7824,2.8263,2.8936,2.949,2.9909,3.0118,3.0223,3.0178,2.931,2.8801,2.8607,2.8607,2.8472,2.8308,2.8783,2.8978,2.8992,2.9217,2.9535,2.9924,3.0133,3.0507,3.0883,3.0883,3.0883,3.0883,3.0883,3.1017,3.1137,3.0943,3.0582,3.0118,2.9726,2.9576,2.9518,2.9246,2.9777,3.036,3.0302,3.076,3.119,3.119,3.119,3.119,3.119,3.119,3.119,3.119,3.119,3.119,3.119,3.119,3.119,3.119,3.119,3.119,3.119,3.119,3.119,3.119,3.0987,3.0852,3.0852,2.9922,2.9362,2.9362,2.8653,2.8383,2.8619,2.84,2.84,2.8619,2.84,2.7994,2.7452,2.7452,2.7182,2.162,2.2398,2.2787,2.2418,2.1814,2.1156,2.0483,1.8954,1.7639,1.7369,1.6503,1.5979,1.6592,1.6696,1.7279,1.9031,1.9316,1.9869,2.147,2.2592,2.4088,2.6318,2.8487,2.9475,2.8682,2.8607,2.8427,2.8019,2.775,2.76,2.76,2.76,2.76,2.76,2.76,2.7929,2.8592,2.925,2.9894,3.0507,3.0776,3.0896,3.0823,2.9804,2.9325,2.9295,2.9071,2.8966,0.0,2.9442,2.9606,2.9636,2.9834,3.0163,3.0537,3.0763,3.1137,3.1511,3.1511,3.1511,3.1511,3.1511,3.1511,3.1511,3.1511,3.1212,3.0761,3.0118,3.0142,3.0334,3.0276,3.0497,3.0813,3.1011,3.112,3.119,3.119,3.119,3.119,3.119,3.119,3.119,3.119,3.119,3.119,3.119,3.119,3.119,3.119,3.119,3.119,3.119,3.119,3.119,3.119,3.119,3.119,3.119,3.0514,3.0108,3.0108,2.9381,2.9128,2.9397,2.9145,2.9145,2.9397,2.9145,2.8756,2.8264,2.8264,2.801,0.0,2.0946,2.1425,2.1425,2.0961,2.0314,1.9708,1.8568,0.0,1.6831,1.6219,1.5979,1.6592,1.6741,1.7219,1.8553,1.8852,1.9585,2.15,2.2508,2.3991,2.6497,2.7993,2.8757,2.8607,2.8637,2.8652,2.8607,2.7989,2.7615,2.766,2.763,2.76,2.76,2.76,2.7944,2.8667,2.9307,2.9924,3.0582,3.1197,3.1511,3.1481,3.0748,3.0462,3.0477,2.9849,2.9636,2.9681,2.9726,2.9756,2.9774,3.0357,3.0567,3.0657,3.1271,3.1511,3.1511,3.1511,3.1511,3.1511,3.1511,3.1511,3.1511,3.1511,3.1511,3.1376,3.0761,3.1104,3.167,3.1547,3.1537,3.1669,3.2176,3.1813,3.1326,3.1275,3.1275,3.1258,3.1207,3.119,3.119,3.119,3.119,3.119,3.119,3.119,3.119,3.119,3.119,3.119,3.119,3.119,3.119,3.119,3.119,3.119,3.119,3.0565,3.0192,3.0192,2.9534,2.9465,3.0176,2.9517,2.9482,3.0192,2.9482,2.9128,2.9077,2.9077,2.9044,1.8147,0.0,1.864,1.864,1.8521,1.8371,0.0,1.7518,1.6891,1.6726,1.6219,1.5979,1.6592,1.713,1.7908,1.9241,2.0337,2.1335,2.2328,2.4754,2.7061,2.8708,3.0043,3.0225,2.8742,2.9056,2.9146,2.8637,2.7989,2.7824,2.8323,2.7884,2.76,2.76,2.76,2.8169,2.9367,2.9532,3.0163,3.1271,3.1421,3.1511,3.1466,3.0328,3.0058,3.0477,2.9849,2.9849,3.0328,3.0823,3.1047,3.1062,3.1212,3.1256,3.1286,3.1451,3.1511,3.1511,3.1511,3.1511,3.1511,3.1511,3.1511,3.1511,3.1511,3.1511,3.1466,3.1316,3.1807,3.2253,3.1696,3.2296,3.2925,3.2536,3.2672,3.273,3.2175,3.2039,3.187,3.1309,3.119,3.119,3.119,3.119,3.119,3.119,3.119,3.119,3.119,3.119,3.119,3.119,3.119,3.119,3.119,3.119,3.119,3.119,3.1038,3.0937,3.0937,3.0768,3.0751,3.0937,3.0768,3.0768,3.0937,3.0768,3.0395,2.9837,2.9837,2.9533,1.6727,1.749,1.8162,1.8162,1.8162,1.8072,1.7773,1.7189,1.6622,1.6338,1.6039,1.5979,1.6592,1.701,1.7788,1.942,2.0322,2.153,2.3714,2.6372,2.8558,2.9849,3.0627,3.0537,2.919,2.9101,2.8981,2.8622,2.8248,2.8203,2.8577,2.8248,2.7929,2.76,2.76,2.8244,2.9592,2.9606,3.0238,3.1511,3.1511,3.1511,3.1466,3.0477,3.0357,3.0913,3.0283,3.0372,3.0972,3.1346,3.1511,3.1511,3.1511,3.1511,3.1511,3.1511,3.1511,3.1511,3.1511,3.1511,3.1511,3.1511,3.1511,3.1511,3.1511,3.1511,3.1511,3.1511,3.2256,3.2987,3.261,3.3226,3.3868,3.3512,3.3412,3.3288,3.2882,3.2797,3.2598,3.1853,3.1698,3.1616,3.1258,3.119,3.119,3.119,3.119,3.119,3.119,3.119,3.119,3.119,3.119,3.119,3.119,3.119,3.119,3.119,3.119,3.119,3.119,3.119,3.119,3.119,3.119,3.119,3.119,3.1389,3.1185,3.0598,3.0776,3.0571,1.5904,1.7206,1.8506,1.8416,1.8461,1.8386,1.7833,1.7264,1.6712,1.6203,1.6084,1.6278,1.6891,1.71,1.7772,1.9708,2.0262,2.1754,2.554,2.753,2.9116,3.0492,3.0567,3.0253,2.9666,2.8981,2.8637,2.8742,2.8667,2.8682,2.8876,2.8712,2.8338,2.7764,2.7645,2.8199,2.9457,2.9457,3.0088,3.1346,3.1256,3.1316,3.1481,3.0717,3.0791,3.1466,3.0806,3.0896,3.1511,3.1511,3.1511,3.1511,3.1511,3.1511,3.1511,3.1511,3.1511,3.1511,3.1511,3.1511,3.1511,3.1511,3.1511,3.1511,3.1511,3.1511,3.1511,3.1511,3.2501,3.3582,3.3582,3.4131,3.4675,3.4675,3.4201,3.3711,3.3592,3.3575,3.3355,3.2615,3.2479,3.2276,3.163,3.1529,3.1495,3.1376,3.136,3.1326,3.1207,3.119,3.119,3.119,3.119,3.119,3.119,3.119,3.119,3.119,3.119,3.119,3.119,3.119,3.119,3.119,3.119,3.119,3.119,3.1603,3.1623,3.131,3.1538,3.1501,1.6428,1.7189,1.7728,1.716,1.7428,1.7833,1.7712,1.7608,1.7518,1.7429,1.7414,1.7609,1.8267,1.8867,1.9705,2.1156,2.2766,2.4844,2.7739,2.8412,2.9295,3.1122,3.0866,3.0253,2.9666,2.8981,2.8831,2.9412,2.8921,2.9071,3.0148,2.919,2.8547,2.8442,2.7899,2.7974,2.8742,2.8742,2.94,3.0657,3.0133,3.0462,3.1466,3.0283,3.0387,3.1466,3.0806,3.0896,3.1511,3.1511,3.1511,3.1511,3.1511,3.1511,3.1511,3.1511,3.1511,3.1511,3.1511,3.1511,3.1511,3.1511,3.1511,3.1511,3.1511,3.1511,3.1511,3.1511,3.2501,3.3582,3.3582,3.451,3.543,3.543,3.5346,3.5076,3.4472,3.432,3.4117,3.3372,3.3237,3.3203,3.3085,3.3068,3.2848,3.2226,3.2141,3.1904,3.1275,3.119,3.119,3.119,3.119,3.119,3.119,3.119,3.119,3.119,3.119,3.119,3.119,3.119,3.119,3.119,3.119,3.119,3.119,3.1603,3.1771,3.168,3.1132,3.1166,1.6144,1.6936,1.7639,1.7309,1.7727,1.8237,1.8237,1.7968,1.7713,1.7713,1.7713,1.8012,1.9046,1.9794,2.1021,2.343,2.5166,2.6901,2.8861,2.9415,3.0103,3.1346,3.0627,2.9894,2.9636,2.8678,2.8349,2.8996,2.9101,2.9235,2.946,2.925,2.8801,2.8094,2.7764,2.775,2.8064,2.8064,2.8738,2.9998,3.0058,3.0223,3.0477,3.0597,3.0761,3.0957,3.1017,3.1212,3.1511,3.1511,3.1511,3.1511,3.1511,3.1511,3.1511,3.1511,3.1511,3.1511,3.1511,3.1511,3.1511,3.1511,3.1511,3.1511,3.1511,3.1511,3.1511,3.1511,3.2256,3.3145,3.3521,3.4325,3.5144,3.5515,3.56,3.5498,3.5182,3.5098,3.4878,3.4134,3.3981,3.388,3.3474,3.3406,3.3288,3.2949,3.2882,3.2628,3.1904,3.1802,3.165,3.1241,3.119,3.119,3.119,3.119,3.119,3.119,3.119,3.119,3.119,3.119,3.131,3.1526,3.131,3.131,3.1526,3.1968,3.2039,3.1808,3.1979,3.185,1.6203,1.6967,1.7743,1.7893,1.8448,1.8972,1.9119,1.8775,1.8446,1.861,1.864,1.8939,1.9974,2.0961,2.2587,2.5585,2.7076,2.8304,2.9609,3.0208,3.0761,3.1421,3.0507,2.9804,2.9804,2.8753,2.8349,2.8996,2.9385,2.943,2.9056,2.925,2.8903,2.7869,2.7675,2.76,2.76,2.76,2.8199,2.9355,2.9834,2.9968,2.9834,3.0808,3.1062,3.0748,3.1271,3.1511,3.1511,3.1511,3.1511,3.1511,3.1511,3.1511,3.1511,3.1511,3.1511,3.1511,3.1511,3.1511,3.1511,3.1511,3.1511,3.1511,3.1511,3.1511,3.1511,3.1511,3.191,3.2532,3.3391,3.4112,3.4759,3.543,3.56,3.56,3.56,3.56,3.543,3.4861,3.4759,3.459,3.4015,3.3931,3.3863,3.3694,3.366,3.3389,3.2666,3.2564,3.2276,3.1529,3.1464,3.1396,3.1207,3.119,3.119,3.119,3.119,3.119,3.119,3.119,3.1389,3.1789,3.1391,3.1408,3.1807,3.2264,3.2316,3.1969,3.2646,3.2511,1.74,1.7639,1.7848,1.8461,1.9136,1.9779,2.0404,2.0524,2.0658,2.1276,2.141,2.144,2.153,2.3065,2.5008,2.7121,2.8053,2.8966,3.0253,3.0477,3.0761,3.1421,3.0881,3.0432,3.0432,2.9834,2.9726,3.0313,2.9879,2.9804,3.0342,2.9295,2.8622,2.8532,2.7929,2.76,2.76,2.76,2.7959,2.8667,2.8727,2.934,3.0447,3.0537,3.0883,3.1436,3.1481,3.1511,3.1511,3.1511,3.1511,3.1511,3.1511,3.1511,3.1511,3.1511,3.1511,3.1511,3.1511,3.1511,3.1511,3.1511,3.1511,3.1511,3.1511,3.1511,3.1511,3.1511,3.1539,3.1894,3.3261,3.4112,3.4759,3.543,3.56,3.56,3.56,3.56,3.5583,3.5532,3.5515,3.5498,3.5447,3.543,3.5194,3.4523,3.4421,3.415,3.3423,3.3322,3.3034,3.231,3.2226,3.1955,3.1258,3.119,3.119,3.119,3.119,3.119,3.119,3.119,3.1389,3.1789,3.1391,3.1408,3.1807,3.2264,3.2484,3.245,3.2262,3.2491,1.701,1.7384,1.7773,1.8012,1.9208,2.0498,2.1171,2.1321,2.162,2.2667,2.2877,2.3011,2.3424,2.444,2.5875,2.7889,2.8771,2.9669,3.0928,3.1122,3.1212,3.1466,3.0898,3.0507,3.0507,2.9939,2.9696,2.9909,3.0073,3.0088,2.9939,2.9834,2.9609,2.922,2.8562,2.8203,2.8203,2.7809,2.772,2.7989,2.8397,2.8846,2.9355,3.0148,3.0642,3.0883,3.1316,3.1511,3.1511,3.1511,3.1511,3.1511,3.1511,3.1511,3.1511,3.1511,3.1511,3.1511,3.1511,3.1511,3.1511,3.1511,3.1511,3.1511,3.1511,3.1511,3.1511,3.1511,3.1511,3.1739,3.2734,3.3469,3.4137,3.4823,3.5316,3.56,3.56,3.56,3.56,3.56,3.56,3.56,3.56,3.56,3.5498,3.5233,3.5177,3.4928,3.4184,3.4083,3.3795,3.3051,3.2581,3.2192,3.1921,3.1464,3.119,3.119,3.119,3.119,3.119,3.119,3.1524,3.2213,3.1806,3.1933,3.2663,3.284,3.2937,3.2934,3.3099,3.3031,1.707,1.7519,1.8012,1.8012,1.9373,2.0972,2.2054,2.2293,2.2667,2.3969,2.4059,2.4193,2.5068,2.5427,2.6333,2.8547,2.928,3.0043,3.1316,3.1511,3.1511,3.1511,3.1092,3.0836,3.0836,3.0447,3.0193,3.0193,3.0387,3.0313,2.9894,3.0088,2.9924,2.928,2.8831,2.8502,2.8278,2.7839,2.7705,2.7929,2.8368,2.8712,2.8951,3.0238,3.0836,3.0823,3.1301,3.1511,3.1511,3.1511,3.1511,3.1511,3.1511,3.1511,3.1511,3.1511,3.1511,3.1511,3.1511,3.1511,3.1511,3.1511,3.1511,3.1511,3.1511,3.1511,3.1511,3.1511,3.1511,3.1611,3.212,3.2933,3.3761,3.4431,3.5098,3.56,3.56,3.56,3.56,3.56,3.56,3.56,3.56,3.56,3.56,3.56,3.56,3.5414,3.4912,3.4844,3.4556,3.3829,3.3085,3.2564,3.2327,3.1853,3.1444,3.1207,3.1312,3.1332,3.121,3.119,3.1618,3.2484,3.2039,3.2264,3.3199,3.3199,3.3199,3.3214,3.3606,3.3513,1.7878,1.8177,1.8687,1.8717,1.9717,2.1226,2.3176,2.361,2.3984,2.536,2.5098,2.5038,2.6363,2.6078,2.6497,2.9172,2.9606,3.0043,3.1316,3.1511,3.1511,3.1511,3.1511,3.1511,3.1511,3.1511,3.1511,3.1511,3.0868,3.0507,3.0507,2.9924,2.9295,2.8637,2.8607,2.8278,2.7615,2.76,2.7944,2.8607,2.8607,2.8966,2.9666,3.0913,3.1496,3.1511,3.1511,3.1511,3.1511,3.1511,3.1511,3.1511,3.1511,3.1511,3.1511,3.1511,3.1511,3.1511,3.1511,3.1511,3.1511,3.1511,3.1511,3.1511,3.1511,3.1511,3.1511,3.1511,3.1511,3.1525,3.1525,3.2544,3.3777,3.4431,3.5098,3.56,3.56,3.56,3.56,3.56,3.56,3.56,3.56,3.56,3.56,3.56,3.56,3.56,3.56,3.56,3.5312,3.459,3.3846,3.3119,3.2378,3.231,3.2005,3.1258,3.1582,3.1621,3.121,3.121,3.1601,3.2484,3.2039,3.2281,3.3214,3.3214,3.3214,3.3214,3.3606,3.3807,1.7758,1.7848,1.8222,1.9166,2.0771,2.2488,2.3962,2.4291,2.4948,2.7245,2.756,2.7395,2.733,2.7515,2.7964,2.8771,2.9639,3.0537,3.1376,3.1511,3.1511,3.1511,3.1511,3.1511,3.1511,3.1511,3.1511,3.1511,3.1316,3.1197,3.1197,3.1017,3.0642,2.9953,2.952,2.8966,2.8308,2.8293,2.8397,2.8607,2.9505,3.0043,3.0238,3.0627,3.1047,3.1511,3.1511,3.1511,3.1511,3.1511,3.1511,3.1511,3.1511,3.1511,3.1511,3.1511,3.1511,3.1511,3.1511,3.1511,3.1511,3.1511,3.1511,3.1511,3.1511,3.1824,3.2183,3.2183,3.2557,3.3021,3.3582,3.364,3.3606,3.3848,3.4776,3.56,3.56,3.56,3.56,3.56,3.56,3.56,3.56,3.56,3.56,3.56,3.56,3.56,3.56,3.56,3.5515,3.5295,3.4607,3.4083,3.3884,3.3372,3.2983,3.2763,3.2683,3.2207,3.1227,3.147,3.1897,3.2484,3.2349,3.2727,3.3606,3.3606,3.3606,3.362,3.3734,3.3807,1.7953,1.8281,1.8762,1.9824,2.1575,2.3482,2.5046,2.5615,2.6333,2.8218,2.8382,2.8233,2.8378,2.8502,2.8771,2.928,2.9998,3.0746,3.1406,3.1511,3.1511,3.1511,3.1511,3.1511,3.1511,3.1511,3.1511,3.1511,3.1511,3.1511,3.1511,3.1511,3.1182,3.0522,3.0148,2.9639,2.8996,2.8996,2.9116,2.9355,3.0133,3.0657,3.0883,3.0883,3.1122,3.1511,3.1511,3.1511,3.1511,3.1511,3.1511,3.1511,3.1511,3.1511,3.1511,3.1511,3.1511,3.1511,3.1511,3.1511,3.1511,3.1511,3.1511,3.1555,3.1809,3.2168,3.2572,3.2826,3.3185,3.3607,3.4104,3.4291,3.4376,3.4417,3.483,3.5276,3.5538,3.56,3.56,3.56,3.56,3.56,3.56,3.56,3.56,3.56,3.56,3.56,3.56,3.56,3.56,3.56,3.5194,3.481,3.4523,3.4083,3.3711,3.3423,3.3419,3.311,3.241,3.219,3.2298,3.2761,3.2777,3.3121,3.3807,3.3807,3.3807,3.3807,3.3807,3.3807,1.8287,1.9126,1.9809,2.0677,2.2398,2.4373,2.6267,2.7165,2.7794,2.8457,2.8214,2.8229,2.9397,2.919,2.922,3.0328,3.0552,3.0806,3.1406,3.1511,3.1511,3.1511,3.1511,3.1511,3.1511,3.1511,3.1511,3.1511,3.1511,3.1511,3.1511,3.1511,3.1182,3.0522,3.0507,3.0208,2.9621,2.9666,2.9953,3.0507,3.0567,3.0898,3.1511,3.1511,3.1511,3.1511,3.1511,3.1511,3.1511,3.1511,3.1511,3.1511,3.1511,3.1511,3.1511,3.1511,3.1511,3.1511,3.1511,3.1511,3.1511,3.1511,3.154,3.1705,3.2303,3.2602,3.2826,3.3425,3.3634,3.371,3.3756,3.474,3.5711,3.5849,3.5341,3.4954,3.547,3.56,3.56,3.56,3.56,3.56,3.56,3.56,3.56,3.56,3.56,3.56,3.56,3.56,3.56,3.56,3.56,3.5329,3.4658,3.459,3.4303,3.3643,3.3982,3.4229,3.4287,3.3266,3.2891,3.3307,3.3307,3.3462,3.3807,3.3807,3.3807,3.3807,3.3807,3.3807,1.793,1.8606,1.945,2.1714,2.414,2.6198,2.7165,2.7495,2.7794,2.8457,2.928,2.9819,2.9636,3.0313,3.0778,3.0552,3.0928,3.1331,3.1481,3.1511,3.1511,3.1511,3.1511,3.1511,3.1511,3.1511,3.1511,3.1511,3.1511,3.1511,3.1511,3.1511,3.1182,3.0522,3.0507,3.0208,2.9621,3.0058,3.0372,3.0507,3.1017,3.1361,3.1511,3.1511,3.1511,3.1511,3.1511,3.1511,3.1511,3.1511,3.1511,3.1511,3.1511,3.1511,3.1511,3.1511,3.1511,3.1511,3.1511,3.1511,3.1511,3.1511,3.1854,3.2303,3.2452,3.3245,3.4114,3.4218,3.4651,3.5215,3.5784,3.5778,3.5896,3.7067,3.6837,3.6194,3.5712,3.56,3.56,3.56,3.56,3.56,3.56,3.56,3.56,3.56,3.56,3.56,3.56,3.56,3.56,3.56,3.56,3.5532,3.538,3.5346,3.5295,3.5143,3.5008,3.497,3.499,3.4548,3.4261,3.414,3.4138,3.4025,3.3807,3.3807,3.3807,3.3807,3.3807,3.3807,1.8176,1.9293,2.0594,2.3389,2.5296,2.6706,2.7425,2.76,2.7705,2.8064,2.8891,2.9594,2.9606,3.0387,3.0898,3.0567,3.1062,3.1511,3.1511,3.1511,3.1511,3.1511,3.1511,3.1511,3.1511,3.1511,3.1511,3.1511,3.1511,3.1511,3.1511,3.1511,3.1346,3.0972,3.0972,3.0823,3.0522,3.0808,3.0972,3.0972,3.1331,3.1511,3.1511,3.1511,3.1511,3.1511,3.1511,3.1511,3.1511,3.1511,3.1511,3.1511,3.1511,3.1511,3.1511,3.1511,3.1511,3.1511,3.1511,3.1511,3.1511,3.1511,3.1944,3.2572,3.2886,3.3679,3.4578,3.4876,3.5463,3.6117,3.6492,3.689,3.7275,3.7707,3.7285,3.6772,3.6719,3.6698,3.6597,3.6248,3.618,3.6062,3.5667,3.56,3.56,3.56,3.56,3.56,3.56,3.56,3.56,3.56,3.56,3.56,3.56,3.56,3.56,3.56,3.5474,3.5513,3.5766,3.5883,3.5633,3.4936,3.5172,3.5217,3.5,3.4578,3.4362,3.4362,3.3972,3.3807,1.8124,1.9992,2.2003,2.4611,2.5933,2.6719,2.7289,2.751,2.76,2.76,2.8113,2.8771,2.9337,2.9924,3.0342,3.0342,3.0883,3.1331,3.1331,3.1436,3.1511,3.1511,3.1511,3.1511,3.1511,3.1511,3.1511,3.1511,3.1511,3.1511,3.1511,3.1511,3.1511,3.1511,3.1511,3.1511,3.1511,3.1511,3.1511,3.1511,3.1511,3.1511,3.1511,3.1511,3.1436,3.1331,3.1451,3.1436,3.1331,3.1451,3.1511,3.1511,3.1511,3.1511,3.1511,3.1511,3.1511,3.1511,3.1511,3.1511,3.1525,3.163,3.2123,3.2811,3.3469,3.4128,3.4771,3.534,3.5943,3.6446,3.6584,3.7642,3.8597,3.8087,3.7678,3.7461,3.7819,3.7905,3.7719,3.7094,3.6897,3.6592,3.5926,3.5684,3.56,3.56,3.56,3.56,3.56,3.56,3.56,3.56,3.56,3.56,3.56,3.56,3.56,3.56,3.56,3.5805,3.6228,3.6882,3.6755,3.5815,3.6267,3.6431,3.6303,3.5573,3.5224,3.5206,3.4541,3.4229,1.6269,1.9075,2.2066,2.3501,2.5567,2.7164,2.6823,2.718,2.76,2.76,2.8113,2.8622,2.8712,2.9265,2.9726,2.9726,3.0223,3.0642,3.0642,3.1122,3.1511,3.1511,3.1511,3.1511,3.1511,3.1511,3.1511,3.1511,3.1511,3.1511,3.1511,3.1511,3.1511,3.1511,3.1511,3.1511,3.1511,3.1511,3.1511,3.1511,3.1511,3.1511,3.1511,3.1511,3.1182,3.0672,3.1241,3.1167,3.0687,3.1256,3.1511,3.1511,3.1511,3.1511,3.1511,3.1511,3.1511,3.1511,3.1511,3.1511,3.16,3.2168,3.2826,3.3484,3.4174,3.4816,3.5385,3.5474,3.5554,3.5782,3.6446,3.7263,3.8088,3.863,3.922,3.9353,3.8152,3.7905,3.7872,3.777,3.7229,3.6778,3.666,3.6062,3.56,3.56,3.56,3.56,3.56,3.56,3.56,3.56,3.56,3.56,3.56,3.56,3.56,3.56,3.56,3.5644,3.5694,3.6684,3.7141,3.6984,3.7219,3.6997,3.6303,3.6174,3.6138,3.6119,3.6009,3.5973,1.7945,2.0069,2.2131,2.3983,2.5274,2.6279,2.6918,2.704,2.7151,2.7525,2.7839,2.8049,2.8049,2.8603,2.9026,2.9026,2.9564,2.9983,2.9983,3.0253,3.0567,3.0883,3.0928,3.1077,3.1466,3.1511,3.1511,3.1511,3.1511,3.1511,3.1511,3.1511,3.1511,3.1511,3.1511,3.1511,3.1511,3.1511,3.1511,3.1511,3.1511,3.1511,3.1511,3.1511,3.1122,3.0537,3.1212,3.1122,3.0552,3.1212,3.1511,3.1511,3.1511,3.1511,3.1511,3.1511,3.1511,3.1511,3.1511,3.175,3.2108,3.2392,3.3215,3.4129,3.4414,3.4966,3.5504,3.5504,3.5814,3.6275,3.707,3.7847,3.8608,3.9385,3.9833,3.9926,3.9259,3.9123,3.9005,3.8599,3.7922,3.7415,3.7415,3.7127,3.6755,3.6332,3.6265,3.6113,3.565,3.56,3.56,3.56,3.56,3.56,3.56,3.56,3.56,3.56,3.56,3.56,3.56,3.6643,3.7209,3.7209,3.784,3.7991,3.7643,3.7184,3.6978,3.696,3.6505,3.6303,1.8769,2.0231,2.1417,2.3506,2.4652,2.554,2.6582,2.6796,2.695,2.7448,2.7565,2.76,2.76,2.8019,2.8338,2.8338,2.8906,2.9367,2.9367,2.9502,2.9786,3.0223,3.0417,3.0717,3.1197,3.1406,3.1511,3.1511,3.1511,3.1511,3.1511,3.1511,3.1511,3.1511,3.1511,3.1511,3.1511,3.1511,3.1511,3.1511,3.1511,3.1511,3.1511,3.1511,3.1047,3.0313,3.1137,3.1017,3.0342,3.1152,3.1511,3.1511,3.1511,3.1511,3.1511,3.1511,3.1511,3.1511,3.1511,3.1929,3.2542,3.2706,3.3544,3.4533,3.4713,3.51,3.5504,3.5504,3.6023,3.6783,3.7602,3.8358,3.9113,3.9901,4.0096,4.0096,4.0096,4.0096,3.9943,3.9402,3.8684,3.8176,3.8176,3.8024,3.7719,3.7144,3.7083,3.6857,3.6259,3.6005,3.591,3.591,3.5718,3.56,3.56,3.56,3.56,3.56,3.56,3.56,3.56,3.6501,3.7076,3.7209,3.805,3.8562,3.8707,3.8102,3.7804,3.7786,3.7184,3.6909,1.6663,1.819,1.9361,2.0765,2.346,2.5687,2.5304,2.6338,2.7365,2.7396,2.7504,2.76,2.76,2.763,2.7645,2.7645,2.8203,2.8652,2.8652,2.919,2.9621,2.9651,3.0148,3.0507,3.0552,3.1122,3.1511,3.1511,3.1511,3.1511,3.1511,3.1511,3.1511,3.1511,3.1511,3.1511,3.1511,3.1511,3.1511,3.1511,3.1511,3.1511,3.1511,3.1511,3.0808,2.9726,3.0957,3.0778,2.9729,3.0972,3.1511,3.1511,3.1511,3.1511,3.1511,3.1511,3.1511,3.1511,3.1511,3.1929,3.2617,3.3245,3.3918,3.4638,3.525,3.5474,3.5504,3.5504,3.6023,3.6783,3.7602,3.8358,3.9113,3.9901,4.0096,4.0096,4.0096,4.0096,4.0096,4.0045,3.9453,3.8937,3.8937,3.8362,3.7889,3.7855,3.7838,3.7838,3.7804,3.7161,3.6745,3.6745,3.6062,3.56,3.56,3.56,3.56,3.56,3.56,3.56,3.56,3.6139,3.6684,3.7173,3.7685,3.8183,3.8707,3.867,3.8634,3.8634,3.8597,3.8579,1.6049,1.7861,1.985,2.0841,2.2435,2.4062,2.5271,2.6106,2.6751,2.717,2.7364,2.7602,2.7992,2.781,2.76,2.76,2.7809,2.7959,2.7959,2.8169,2.8483,2.8906,2.9146,2.9594,3.0417,3.0731,3.1032,3.1466,3.1511,3.1511,3.1511,3.1511,3.1511,3.1511,3.1511,3.1511,3.1511,3.1511,3.1511,3.1511,3.1511,3.1511,3.1511,3.1511,3.1016,3.0261,3.1607,3.1207,2.9681,3.0507,3.1107,3.1511,3.1511,3.1511,3.1511,3.1511,3.1511,3.157,3.1989,3.2587,3.3245,3.3903,3.4592,3.519,3.5429,3.5504,3.5504,3.5504,3.6023,3.6783,3.7602,3.8358,3.9113,3.9901,4.0096,4.0096,4.0096,4.0096,4.0096,4.0096,3.9893,3.9723,3.9723,3.9503,3.914,3.8667,3.8616,3.8447,3.7973,3.7669,3.7499,3.7499,3.6823,3.6366,3.6366,3.591,3.56,3.56,3.56,3.5761,3.6097,3.6308,3.6786,3.7632,3.7807,3.8167,3.8707,3.8707,3.8707,3.8707,3.8707,3.8707,1.5731,1.7563,1.9879,2.0936,2.1678,2.2707,2.4879,2.5544,2.5895,2.6603,2.7047,2.7532,2.8194,2.8061,2.7865,2.7889,2.791,2.7835,2.7625,2.76,2.7764,2.8203,2.8457,2.8936,2.9774,3.0073,3.0387,3.0823,3.1047,3.1152,3.1152,3.1376,3.1511,3.1511,3.1511,3.1511,3.1511,3.1511,3.1511,3.1511,3.1511,3.1511,3.1496,3.147,3.1116,3.0562,3.1722,3.1467,3.0324,3.1171,3.1799,3.2201,3.2201,3.2201,3.2173,3.1951,3.1881,3.1915,3.2332,3.2946,3.3604,3.4294,3.4936,3.5504,3.5504,3.5504,3.5504,3.5504,3.6023,3.6783,3.7602,3.8541,3.9437,3.9978,4.0096,4.0096,4.0096,4.0096,4.0096,4.0096,4.0096,4.0096,4.0096,4.0096,3.9943,3.9453,3.9385,3.9174,3.87,3.8413,3.8278,3.8278,3.7601,3.7185,3.7185,3.6688,3.6259,3.6028,3.6011,3.6033,3.6135,3.6291,3.6786,3.7649,3.7825,3.8167,3.8707,3.8707,3.8707,3.8707,3.8707,3.8707,0.0,0.0,0.0,2.075,2.114,2.1732,2.3932,2.453,2.4849,2.5622,2.6496,2.7354,2.8142,2.8302,2.8345,2.8513,2.8496,2.831,2.771,2.7625,2.76,2.76,2.8158,2.8577,2.8607,2.9202,2.9592,2.9606,3.0188,3.0533,3.0535,3.115,3.1524,3.1511,3.1524,3.1524,3.1511,3.1524,3.1524,3.1524,3.1524,3.1524,3.1552,3.1481,3.1135,3.0592,3.1267,3.1566,3.163,3.3015,3.3566,3.3582,3.3582,3.3582,3.3521,3.2868,3.2614,3.264,3.2595,3.3006,3.3635,3.434,3.4998,3.5504,3.5537,3.5537,3.5537,3.5537,3.6054,3.6813,3.7632,3.8941,4.007,4.0096,4.0096,4.0096,4.0096,4.0096,4.0096,4.0096,4.0096,4.0096,4.0096,4.0096,4.0096,4.0096,4.0096,4.0096,4.0096,3.9486,3.9022,3.9022,3.8379,3.7939,3.7939,3.7922,3.7584,3.6846,3.6795,3.6457,3.5656,3.6118,3.6664,3.7209,3.7667,3.8167,3.8707,3.8707,3.8707,3.8707,3.8707,3.8707,1.6688,0.0,0.0,0.0,0.0,0.0,2.2513,2.2937,2.3487,2.5279,2.5501,2.5903,2.7618,2.805,2.8339,2.8913,2.8711,2.8439,2.8271,2.7885,2.76,2.76,2.7764,2.8079,2.8547,2.9153,2.9535,2.9604,3.0556,3.1187,3.1282,3.1931,3.2064,3.1511,3.2007,3.2035,3.1511,3.2035,3.2299,3.2299,3.2299,3.2544,3.3024,3.2987,3.2588,3.1923,3.2698,3.2676,3.2196,3.2684,3.3159,3.3582,3.3582,3.3582,3.3582,3.3391,3.3313,3.3461,3.4475,3.4574,3.4434,3.5631,3.5791,3.5587,3.6134,3.6306,3.6306,3.6306,3.6859,3.7645,3.8414,3.8908,3.9368,3.9952,4.0096,4.0096,4.0096,4.0096,4.0096,4.0096,4.0096,4.0096,4.0096,4.0096,4.0096,4.0096,4.0096,4.0096,4.0096,3.9926,3.9808,3.9808,3.9123,3.87,3.87,3.821,3.7584,3.6846,3.6795,3.6622,3.6195,3.6312,3.6805,3.7685,3.7825,3.8167,3.8707,3.8707,3.8707,3.8707,3.8707,3.8707,1.7924,1.9029,2.0399,1.9972,0.0,0.0,2.1874,2.2073,2.2378,2.4289,2.4644,2.5163,2.6995,2.7442,2.7859,2.8946,2.8939,2.8801,2.8872,2.8367,2.7984,2.7984,2.776,2.7851,2.8495,2.8636,2.8939,2.9489,3.0185,3.0864,3.1486,3.1893,3.2074,3.1979,3.2092,3.2092,3.1951,3.2382,3.2586,3.2586,3.2895,3.3209,3.3608,3.3555,3.312,3.2442,3.3226,3.327,3.2857,3.3255,3.3664,3.4037,3.4325,3.4423,3.4399,3.4112,3.4207,3.4586,3.5417,3.5594,3.5637,3.6723,3.6814,3.6477,3.6554,3.6813,3.7024,3.6691,3.7395,3.8358,3.8799,3.9139,3.9516,3.9995,4.0096,4.0096,4.0096,4.0096,4.0096,4.0096,4.0096,4.0096,4.0096,4.0096,4.0096,4.0096,4.0096,4.0096,4.0096,4.0096,4.0096,4.0096,3.9723,3.9469,3.9469,3.9056,3.8497,3.7777,3.7726,3.7375,3.6602,3.6984,3.7316,3.7596,3.8015,3.8382,3.8707,3.8707,3.8707,3.8707,3.8707,3.8707,1.9333,2.0158,2.119,2.119,2.0175,0.0,2.1586,2.16,2.1597,2.2987,2.3814,2.4711,2.6167,2.6454,2.6928,2.8383,2.8786,2.9018,2.9343,2.8926,2.8606,2.8606,2.814,2.8018,2.8559,2.8189,2.8328,2.9316,2.9596,3.0205,3.1337,3.1461,3.1849,3.2555,3.1977,3.1979,3.2695,3.2722,3.2749,3.2815,3.3443,3.3735,3.382,3.3685,3.3261,3.2677,3.3188,3.3404,3.3477,3.4197,3.4528,3.4664,3.5339,3.5538,3.5447,3.4894,3.5175,3.5844,3.5908,3.6377,3.7014,3.7709,3.7879,3.769,3.7054,3.7352,3.7777,3.7054,3.7787,3.8799,3.8881,3.9437,3.9995,4.007,4.0096,4.0096,4.0096,4.0096,4.0096,4.0096,4.0096,4.0096,4.0096,4.0096,4.0096,4.0096,4.0096,4.0096,4.0096,4.0096,4.0096,4.0096,4.0096,4.0096,4.0096,4.0096,3.9791,3.9039,3.8988,3.8386,3.6981,3.7829,3.8013,3.7332,3.8239,3.8707,3.8707,3.8707,3.8707,3.8707,3.8707,3.8707,2.0784,2.097,2.119,2.119,2.097,0.0,2.0487,2.0839,2.1461,2.2327,2.2632,2.3173,2.466,2.4931,2.5218,2.6116,2.6775,2.7671,2.9038,2.9215,2.9225,2.9225,2.9111,2.9088,2.9203,2.9563,2.9673,2.9429,3.0409,3.1108,3.1294,3.1934,3.2346,3.2514,3.2427,3.2707,3.3391,3.3417,3.3684,3.4211,3.4333,3.4688,3.5191,3.4589,3.4229,3.4051,3.3102,3.299,3.3505,3.3721,3.4112,3.4664,3.5339,3.5276,3.483,3.5253,3.5912,3.667,3.7248,3.7525,3.7713,3.8461,3.8274,3.7892,3.8314,3.8564,3.8663,3.8509,3.8246,3.8149,3.8745,3.9032,3.9289,3.9952,4.0096,4.0096,4.0096,4.0096,4.0096,4.0096,4.0096,4.0096,4.0096,4.0096,4.0096,4.0096,4.0096,4.0096,4.0096,4.0096,4.0096,4.0096,4.0096,4.0096,4.0096,4.0096,3.9791,3.9039,3.8988,3.8599,3.7719,3.8234,3.8402,3.8088,3.8478,3.8707,3.8707,3.8707,3.8707,3.8707,3.8707,3.8707,2.1837,2.1752,2.1752,2.1752,2.1478,0.0,0.0,2.1177,2.141,2.2158,2.2006,2.209,2.319,2.3393,2.363,2.4374,2.5727,2.686,2.7334,2.8181,2.8751,2.8751,2.8823,2.8966,2.927,2.9637,2.9848,2.9848,3.0766,3.1299,3.1303,3.1417,3.1935,3.2983,3.2425,3.2746,3.4087,3.4112,3.426,3.46,3.4941,3.5075,3.5047,3.4675,3.4303,3.3921,3.328,3.3381,3.3995,3.4063,3.4309,3.4624,3.4965,3.4894,3.4624,3.4965,3.5823,3.6908,3.7634,3.8361,3.9005,3.9373,3.9252,3.8941,3.8908,3.8908,3.8989,3.9385,3.9236,3.9022,3.9411,3.9489,3.961,3.9995,4.0096,4.0096,4.0096,4.0096,4.0096,4.0096,4.0096,4.0096,4.0096,4.0096,4.0096,4.0096,4.0096,4.0096,4.0096,4.0096,4.0096,4.0096,4.0096,4.0096,4.0096,4.0096,3.9943,3.9571,3.9554,3.9208,3.8481,3.8912,3.8992,3.8647,3.8775,3.88,3.8707,3.8707,3.8707,3.8707,3.8707,3.8707,2.2885,2.282,2.2871,2.2584,2.2276,2.2053,0.0,0.0,0.0,2.2023,2.1735,2.1583,2.2178,2.2178,2.2327,2.3071,2.4695,2.5693,2.5236,2.6465,2.7505,2.7786,2.8184,2.8558,2.8893,2.8844,2.9264,3.0385,3.0456,3.0677,3.1246,3.0839,3.1482,3.3429,3.2369,3.2743,3.4783,3.4648,3.4648,3.4783,3.5339,3.5216,3.4489,3.4336,3.4032,3.3601,3.3371,3.3827,3.4715,3.4622,3.4688,3.4783,3.4783,3.4712,3.4616,3.4736,3.5735,3.7112,3.7704,3.887,4.0096,4.0096,4.0096,3.9978,3.9342,3.9139,3.9262,3.9927,4.0096,4.0096,4.0096,4.0096,4.0096,4.0096,4.0096,4.0096,4.0096,4.0096,4.0096,4.0096,4.0096,4.0096,4.0096,4.0096,4.0096,4.0096,4.0096,4.0096,4.0096,4.0096,4.0096,4.0096,4.0096,4.0096,4.0096,4.0096,4.0096,4.0096,4.0096,3.9842,3.9225,3.964,3.9733,3.9464,3.9282,3.9105,3.8927,3.8781,3.8707,3.8707,3.8707,3.8707,2.4271,2.4729,2.4899,2.3596,2.4205,2.4441,2.1901,0.0,2.2801,2.158,0.0,2.2195,2.2279,0.0,0.0,2.231,2.2634,2.3004,2.3562,2.4394,2.5376,2.6691,2.8088,2.8659,2.8022,2.7113,2.7825,3.0873,2.9015,2.876,3.1092,3.1184,3.1891,3.3363,3.2747,3.3389,3.547,3.4894,3.4894,3.5492,3.556,3.5216,3.4472,3.3829,3.3846,3.4315,3.3072,3.3661,3.5419,3.4837,3.4941,3.5492,3.5492,3.5121,3.4688,3.527,3.6453,3.7793,3.7882,3.887,4.0096,4.0096,4.0096,4.007,3.9978,3.9952,3.9978,4.007,4.0096,4.0096,4.0096,4.0096,4.0096,4.0096,4.0096,4.0096,4.0096,4.0096,4.0096,4.0096,4.0096,4.0096,4.0096,4.0096,4.0096,4.0096,4.0096,4.0096,4.0096,4.0096,4.0096,4.0096,4.0096,4.0096,4.0096,4.0096,4.0096,4.0096,4.0096,4.0062,3.9977,4.0294,4.0697,4.1122,4.0262,3.9779,3.9753,3.9056,3.8707,3.8707,3.8707,3.8707,2.4609,2.5033,2.5355,2.4305,2.4508,2.4541,2.2866,2.2615,2.2598,2.1972,0.0,0.0,0.0,0.0,0.0,0.0,2.2378,2.275,2.2206,2.3137,2.4254,2.5303,2.637,2.7232,2.7756,2.701,2.7431,2.9753,2.8459,2.8457,3.0444,3.0647,3.1539,3.3351,3.2815,3.3502,3.5583,3.5316,3.5316,3.56,3.56,3.4974,3.3846,3.3541,3.3575,3.3825,3.323,3.3979,3.5577,3.5293,3.5339,3.56,3.56,3.5207,3.4624,3.4918,3.5985,3.7319,3.7752,3.887,4.0096,4.0096,4.0096,4.0096,4.0096,4.0096,4.0096,4.0096,4.0096,4.0096,4.0096,4.0096,4.0096,4.0096,4.0096,4.0096,4.0096,4.0096,4.0096,4.0096,4.0096,4.0096,4.0096,4.0096,4.0096,4.0096,4.0096,4.0096,4.0096,4.0096,4.0096,4.0096,4.0096,4.0096,4.0096,4.0096,4.0096,4.0096,4.0096,4.0254,4.0552,4.07,4.0962,4.1393,4.098,4.0716,4.0598,4.0251,3.9863,3.9386,3.8927,3.8707,2.5609,2.5964,2.6201,2.4829,2.466,2.4508,2.3359,2.3004,2.2852,2.2634,2.2496,0.0,0.0,0.0,2.18,2.18,0.0,2.2716,2.1647,2.2243,2.3001,2.3526,2.4408,2.5576,2.7046,2.6084,2.6286,2.8501,2.7483,2.7735,2.9971,3.0192,3.1208,3.3334,3.2971,3.3668,3.5583,3.56,3.56,3.56,3.5397,3.4619,3.3406,3.3406,3.3406,3.3423,3.3609,3.4416,3.56,3.56,3.56,3.56,3.56,3.5316,3.4887,3.5127,3.6007,3.722,3.7964,3.9022,4.0096,4.0096,4.0096,4.0096,4.0096,4.0096,4.0096,4.0096,4.0096,4.0096,4.0096,4.0096,4.0096,4.0096,4.0096,4.0096,4.0096,4.0096,4.0096,4.0096,4.0096,4.0096,4.0096,4.0096,4.0096,4.0096,4.0096,4.0096,4.0096,4.0096,4.0096,4.0096,4.0096,4.0096,4.0096,4.0096,4.0096,4.0096,4.0096,4.0417,4.111,4.1155,4.1425,4.1959,4.176,4.1576,4.1425,4.1205,4.0799,4.0212,3.9405,3.8909,2.7908,2.8281,2.818,2.5235,2.5033,2.5,2.282,2.341,2.422,2.3511,2.4475,2.5236,2.4525,2.3814,2.3325,2.3325,2.2784,0.0,0.0,2.1684,2.1275,2.1292,2.2595,2.4052,2.5525,2.3423,2.3578,2.7553,2.5531,2.5865,2.9886,3.0106,3.112,3.3339,3.3385,3.4095,3.5583,3.56,3.56,3.5583,3.4878,3.4134,3.3406,3.3406,3.3406,3.344,3.415,3.4895,3.56,3.56,3.56,3.56,3.56,3.56,3.5661,3.6428,3.7205,3.7983,3.8717,3.9469,4.0096,4.0096,4.0096,4.0096,4.0096,4.0096,4.0096,4.0096,4.0096,4.0096,4.0096,4.0096,4.0096,4.0096,4.0096,4.0096,4.0096,4.0096,4.0096,4.0096,4.0096,4.0096,4.0096,4.0096,4.0096,4.0096,4.0096,4.0096,4.0096,4.0096,4.0096,4.0096,4.0096,4.0096,4.0096,4.0096,4.0096,4.0096,4.0096,4.0594,4.1707,4.1771,4.2306,4.3408,4.2673,4.2269,4.2268,4.148,4.1077,4.104,4.023,3.9441,2.9396,3.0226,3.0465,2.7435,2.686,2.6353,2.3646,2.3797,2.4288,2.3545,2.4577,2.5372,2.4643,2.4305,2.3966,2.3477,2.319,2.2496,0.0,2.0145,1.987,2.0352,2.1752,2.2868,2.3361,2.2632,2.3089,2.5439,2.4819,2.5562,2.8432,2.9548,3.0886,3.2611,3.3152,3.4095,3.5583,3.56,3.56,3.5583,3.4844,3.437,3.4117,3.3626,3.3677,3.4134,3.4387,3.4928,3.56,3.56,3.56,3.56,3.56,3.5943,3.6417,3.6711,3.7263,3.8091,3.9292,3.9893,4.0096,4.0096,4.0096,4.0096,4.0096,4.0096,4.0096,4.0096,4.0096,4.0096,4.0096,4.0096,4.0096,4.0096,4.0096,4.0096,4.0096,4.0096,4.0096,4.0096,4.0096,4.0096,4.0096,4.0096,4.0096,4.0096,4.0096,4.0096,4.0096,4.0096,4.0096,4.0096,4.0096,4.0096,4.0096,4.0096,4.0096,4.0096,4.0096,4.0441,4.1178,4.1599,4.2165,4.2958,4.3047,4.3075,4.3075,4.2818,4.2415,4.1901,4.1625,4.0763,3.0954,3.1562,3.1718,2.9227,2.8618,2.7908,2.5186,2.5371,2.5811,2.478,2.5541,2.6319,2.6132,2.5439,2.4745,2.4255,2.3731,2.2598,0.0,1.9592,1.9473,1.9934,2.113,2.2023,2.2262,2.1806,2.2212,2.3983,2.3864,2.4797,2.7266,2.8873,3.0497,3.2242,3.3017,3.4095,3.5583,3.56,3.56,3.5583,3.4844,3.4489,3.4472,3.4015,3.4049,3.4506,3.4776,3.5165,3.56,3.56,3.56,3.56,3.56,3.6096,3.6829,3.7077,3.7821,3.8819,3.9774,4.0096,4.0096,4.0096,4.0096,4.0096,4.0096,4.0096,4.0096,4.0096,4.0299,4.0476,4.0476,4.0705,4.0891,4.0891,4.0891,4.0891,4.0891,4.0891,4.0891,4.0891,4.0891,4.0891,4.0891,4.0671,4.0417,4.0146,4.0096,4.0096,4.0096,4.0096,4.0096,4.0096,4.0096,4.0096,4.0096,4.0096,4.0096,4.0096,4.0286,4.0528,4.088,4.1686,4.2302,4.2692,4.3232,4.3515,4.3515,4.3515,4.3222,4.2727,4.2727,4.2011]}]]